[[{"header":{"parameterUnit":"m.s-1","parameterCategory":1,"la1":30.6,"la2":29.2853,"lo1":-89.7004,"lo2":-87.6739,"dy":0.0162,"dx":0.0183,"nx":112,"ny":82,"refTime":"2024-09-27T18:00:00:Z","depth":0,"parameterNumber":2,"parameterNumberName":"U-component_of_WINDS"},"data":[0.0,0.0,0.0,0.0,0.0,0.0,0.0,0.0,0.0,0.0,0.0,0.0,0.0,0.0,0.0,0.0,0.0,0.0,0.0,0.0,0.0,0.0,0.0,0.0,0.0,0.0,0.0,0.0,0.0,0.0,0.0,0.0,0.0,0.0,0.0,0.0,0.0,0.0,0.0,0.0,0.0,0.0,0.0,0.0,0.0,0.0,0.0,0.0,0.0,0.0,0.0,0.0,0.0,0.0,0.0,0.0,0.0,0.0,0.0,0.0,0.0,0.0,0.0,0.0,0.0,0.0,0.0,0.0,0.0,0.0,0.0,0.0,0.0,0.0,0.0,0.0,0.0,0.0,0.0,0.0,0.0,0.0,0.0,0.0,0.0,0.0,0.0,0.0,0.0,0.0,1.3601,1.5467,1.7606,1.8895,1.8913,1.8169,1.6787,1.4625,0.0,0.0,0.0,0.0,0.0,0.0,0.0,0.0,0.0,0.0,0.0,0.0,0.0,0.0,0.0,0.0,0.0,0.0,0.0,0.0,0.0,0.0,0.0,0.0,0.0,0.0,0.0,0.0,0.0,0.0,0.0,0.0,0.0,0.0,0.0,0.0,0.0,0.0,0.0,0.0,0.0,0.0,0.0,0.0,0.0,0.0,0.0,0.0,0.0,0.0,0.0,0.0,0.0,0.0,0.0,0.0,0.0,0.0,0.0,0.0,0.0,0.0,0.0,0.0,0.0,0.0,0.0,0.0,0.0,0.0,0.0,0.0,0.0,0.0,0.0,0.0,0.0,0.0,0.0,0.0,0.0,0.0,0.0,0.0,0.0,0.0,0.0,0.0,0.0,0.0,0.0,0.0,0.0,0.0,0.0,0.0,0.0,0.0,0.0,0.0,0.0,0.0,0.0,0.0,1.4042,1.7017,1.827,1.8932,1.8984,1.7648,1.6131,1.4526,0.0,0.0,0.0,0.0,0.0,0.0,0.0,0.0,0.0,0.0,0.0,0.0,0.0,0.0,0.0,0.0,0.0,0.0,0.0,0.0,0.0,0.0,0.0,0.0,0.0,0.0,0.0,0.0,0.0,0.0,0.0,0.0,0.0,0.0,0.0,0.0,0.0,0.0,0.0,0.0,0.0,0.0,0.0,0.0,0.0,0.0,0.0,0.0,0.0,0.0,0.0,0.0,0.0,0.0,0.0,0.0,0.0,0.0,0.0,0.0,0.0,0.0,0.0,0.0,0.0,0.0,0.0,0.0,0.0,0.0,0.0,0.0,0.0,0.0,0.0,0.0,0.0,0.0,0.0,0.0,0.0,0.0,0.0,0.0,0.0,0.0,0.0,0.0,0.0,0.0,0.0,0.0,0.0,0.0,0.0,0.0,0.0,0.0,0.0,0.0,0.0,0.0,0.0,1.3765,1.5264,1.8055,1.8716,1.8967,1.9002,1.7555,1.6018,1.4496,1.3269,0.0,0.0,0.0,0.0,0.0,0.0,0.0,0.0,0.0,0.0,0.0,0.0,0.0,0.0,0.0,0.0,0.0,0.0,0.0,0.0,0.0,0.0,0.0,0.0,0.0,0.0,0.0,0.0,0.0,0.0,0.0,0.0,0.0,0.0,0.0,0.0,0.0,0.0,0.0,0.0,0.0,0.0,0.0,0.0,0.0,0.0,0.0,0.0,0.0,0.0,0.0,0.0,0.0,0.0,0.0,0.0,0.0,0.0,0.0,0.0,0.0,0.0,0.0,0.0,0.0,0.0,0.0,0.0,0.0,0.0,0.0,0.0,0.0,0.0,0.0,0.0,0.0,0.0,0.0,0.0,0.0,0.0,0.0,0.0,0.0,0.0,0.0,0.0,0.0,0.0,0.0,0.0,0.0,0.0,0.0,0.0,0.0,0.0,0.0,0.0,0.0,0.0,1.5294,1.636,1.8592,1.8914,1.8984,1.9019,1.7408,1.5819,1.446,1.2602,0.0,0.0,0.0,0.0,0.0,0.0,0.0,0.0,0.0,0.0,0.0,0.0,0.0,0.0,0.0,0.0,0.0,0.0,0.0,0.0,0.0,0.0,0.0,0.0,0.0,0.0,0.0,0.0,0.0,0.0,0.0,0.0,0.0,0.0,0.0,0.0,0.0,0.0,0.0,0.0,0.0,0.0,0.0,0.0,0.0,0.0,0.0,0.0,0.0,0.0,0.0,0.0,0.0,0.0,0.0,0.0,0.0,0.0,0.0,0.0,0.0,0.0,0.0,0.0,0.0,0.0,0.0,0.0,0.0,0.0,0.0,0.0,0.0,0.0,0.0,0.0,0.0,0.0,0.0,0.0,0.0,0.0,0.0,0.0,0.0,0.0,0.0,0.0,0.0,0.0,0.0,0.0,0.0,0.0,0.0,0.0,0.0,0.0,0.0,0.0,0.0,0.0,1.5201,1.6765,1.8445,1.8788,1.8967,1.907,1.6884,1.5153,1.436,1.1507,0.0,0.0,0.0,0.0,0.0,0.0,0.0,0.0,0.0,0.0,0.0,0.0,0.0,0.0,0.0,0.0,0.0,0.0,0.0,0.0,0.0,0.0,0.0,0.0,0.0,0.0,0.0,0.0,0.0,0.0,0.0,0.0,0.0,0.0,0.0,0.0,0.0,0.0,0.0,0.0,0.0,0.0,0.0,0.0,0.0,0.0,0.0,0.0,0.0,0.0,0.0,0.0,0.0,0.0,0.0,0.0,0.0,0.0,0.0,0.0,0.0,0.0,0.0,0.0,0.0,0.0,0.0,0.0,0.0,0.0,0.0,0.0,0.0,0.0,0.0,0.0,0.0,0.0,0.0,0.0,0.0,0.0,0.0,0.0,0.0,0.0,0.0,0.0,0.0,0.0,0.0,0.0,0.0,0.0,0.0,0.0,0.0,0.0,0.0,0.0,0.0,0.0,1.4797,1.6323,0.0,1.8825,1.9002,1.9087,1.733,1.565,1.4384,0.0,0.0,0.0,0.0,0.0,0.0,0.0,0.0,0.0,0.0,0.0,0.0,0.0,0.0,0.0,0.0,0.0,0.0,0.0,0.0,0.0,0.0,0.0,0.0,0.0,0.0,0.0,0.0,0.0,0.0,0.0,0.0,0.0,0.0,0.0,0.0,0.0,0.0,0.0,0.0,0.0,0.0,0.0,0.0,0.0,0.0,0.0,0.0,0.0,0.0,0.0,0.0,0.0,0.0,0.0,0.0,0.0,0.0,0.0,0.0,0.0,0.0,0.0,0.0,0.0,0.0,0.0,0.0,0.0,0.0,0.0,0.0,0.0,0.0,0.0,0.0,0.0,0.0,0.0,0.0,0.0,0.0,0.0,0.0,0.0,0.0,0.0,0.0,0.0,0.0,0.0,0.0,0.0,0.0,0.0,0.0,0.0,0.0,0.0,0.0,0.0,0.0,1.3392,1.4601,1.6063,0.0,1.8697,1.8914,1.9002,1.7323,1.5709,1.4384,0.0,0.0,0.0,0.0,0.0,0.0,0.0,0.0,0.0,0.0,0.0,0.0,0.0,0.0,0.0,0.0,0.0,0.0,0.0,0.0,0.0,0.0,0.0,0.0,0.0,0.0,0.0,0.0,0.0,0.0,0.0,0.0,0.0,0.0,0.0,0.0,0.0,0.0,0.0,0.0,0.0,0.0,0.0,0.0,0.0,0.0,0.0,0.0,0.0,0.0,0.0,0.0,0.0,0.0,0.0,0.0,0.0,0.0,0.0,0.0,0.0,0.0,0.0,0.0,0.0,0.0,0.0,0.0,0.0,0.0,0.0,0.0,0.0,0.0,0.0,0.0,0.0,0.0,0.0,0.0,0.0,0.0,0.0,0.0,0.0,0.0,0.0,0.0,0.0,0.0,0.0,0.0,0.0,0.0,0.0,0.0,0.0,0.0,0.0,0.0,0.0,0.0,1.3191,1.4687,1.6217,1.7829,1.8368,1.8641,1.8788,1.6645,1.502,0.0,0.0,0.0,0.0,0.0,0.0,0.0,0.0,0.0,0.0,0.0,0.0,0.0,0.0,0.0,0.0,0.0,0.0,0.0,0.0,0.0,0.0,0.0,0.0,0.0,0.0,0.0,0.0,0.0,0.0,0.0,0.0,0.0,0.0,0.0,0.0,0.0,0.0,0.0,0.0,0.0,0.0,0.0,0.0,0.0,0.0,0.0,0.0,0.0,0.0,0.0,0.0,0.0,0.0,0.0,0.0,0.0,0.0,0.0,0.0,0.0,0.0,0.0,0.0,0.0,0.0,0.0,0.0,0.0,0.0,0.0,0.0,0.0,0.0,0.0,0.0,0.0,0.0,0.0,0.0,0.0,0.0,0.0,0.0,0.0,0.0,0.0,0.0,0.0,0.0,0.0,0.0,0.0,0.0,0.0,0.0,0.0,0.0,0.0,0.0,0.0,0.0,0.0,1.3143,1.4666,1.6197,1.7752,1.8187,1.841,1.8505,1.6888,1.5365,1.4163,0.0,0.0,0.0,0.0,0.0,0.0,0.0,0.0,0.0,0.0,0.0,0.0,0.0,0.0,0.0,0.0,0.0,0.0,0.0,0.0,0.0,0.0,0.0,0.0,0.0,0.0,0.0,0.0,0.0,0.0,0.0,0.0,0.0,0.0,0.0,0.0,0.0,0.0,0.0,0.0,0.0,0.0,0.0,0.0,0.0,0.0,0.0,0.0,0.0,0.0,0.0,0.0,0.0,0.0,0.0,0.0,0.0,0.0,0.0,0.0,0.0,0.0,0.0,0.0,0.0,0.0,0.0,0.0,0.0,0.0,0.0,0.0,0.0,0.0,0.0,0.0,0.0,0.0,0.0,0.0,0.0,0.0,0.0,0.0,0.0,0.0,0.0,0.0,0.0,0.0,0.0,0.0,0.0,0.0,0.0,0.0,0.0,0.0,0.0,0.0,0.0,0.0,1.3092,1.4572,1.6055,1.7575,1.8014,1.8205,1.8246,1.688,1.5416,1.4023,0.0,0.0,0.0,0.0,0.0,0.0,0.0,0.0,0.0,0.0,0.0,0.0,0.0,0.0,0.0,0.0,0.0,0.0,0.0,0.0,0.0,0.0,0.0,0.0,0.0,0.0,0.0,0.0,0.0,0.0,0.0,0.0,0.0,0.0,0.0,0.0,0.0,0.0,0.0,0.0,0.0,0.0,0.0,0.0,0.0,0.0,0.0,0.0,0.0,0.0,0.0,0.0,0.0,0.0,0.0,0.0,0.0,0.0,0.0,0.0,0.0,0.0,0.0,0.0,0.0,0.0,0.0,0.0,0.0,0.0,0.0,0.0,0.0,0.0,0.0,0.0,0.0,0.0,0.0,0.0,0.0,0.0,0.0,0.0,0.0,0.0,0.0,0.0,0.0,0.0,0.0,0.0,0.0,0.0,0.0,0.0,0.0,0.0,0.0,0.0,0.0,0.0,1.3092,1.4455,1.5878,1.7339,1.7783,1.7966,1.7958,1.6669,1.5297,1.3961,0.0,0.0,0.0,0.0,0.0,0.0,0.0,0.0,0.0,0.0,0.0,0.0,0.0,0.0,0.0,0.0,0.0,0.0,0.0,0.0,0.0,0.0,0.0,0.0,0.0,0.0,0.0,0.0,0.0,0.0,0.0,0.0,0.0,0.0,0.0,0.0,0.0,0.0,0.0,0.0,0.0,0.0,0.0,0.0,0.0,0.0,0.0,0.0,0.0,0.0,0.0,0.0,0.0,0.0,0.0,0.0,0.0,0.0,0.0,0.0,1.3804,0.0,0.0,0.0,0.0,0.0,0.0,0.0,0.0,0.0,0.0,0.0,0.0,0.0,0.0,0.0,0.0,0.0,0.0,0.0,0.0,0.0,0.0,0.0,0.0,0.0,0.0,0.0,0.0,0.0,0.0,0.0,0.0,0.0,0.0,0.0,0.0,0.0,0.0,0.0,0.0,0.0,1.2955,1.4416,1.5856,1.7332,1.7606,1.7681,1.7687,1.6424,1.5321,1.4469,1.1709,0.0,0.0,0.0,0.0,0.0,0.0,0.0,0.0,0.0,0.0,0.0,0.0,0.0,0.0,0.0,0.0,0.0,0.0,0.0,0.0,0.0,0.0,0.0,0.0,0.0,0.0,0.0,0.0,0.0,0.0,0.0,0.0,0.0,0.0,0.0,0.0,0.0,0.0,0.0,0.0,0.0,0.0,0.0,0.0,0.0,0.0,0.0,0.0,0.0,0.0,0.0,0.0,0.0,0.0,0.0,0.0,0.0,0.0,0.0,0.0,1.4571,0.0,0.0,0.0,0.0,0.0,0.0,0.0,0.0,0.0,0.0,0.0,0.0,0.0,0.0,0.0,0.0,0.0,0.0,0.0,0.0,0.0,0.0,0.0,0.0,0.0,0.0,0.0,0.0,0.0,0.0,0.0,0.0,0.0,0.0,0.0,0.0,0.0,0.0,0.0,0.0,1.2951,1.4558,1.6065,1.7358,1.7529,1.7566,1.7589,1.6336,1.5274,1.4603,1.2409,0.0,0.0,0.0,0.0,0.0,0.0,0.0,0.0,0.0,0.0,0.0,0.0,0.0,0.0,0.0,0.0,0.0,0.0,0.0,0.0,0.0,0.0,0.0,0.0,0.0,0.0,0.0,0.0,0.0,0.0,0.0,0.0,0.0,0.0,0.0,0.0,0.0,0.0,0.0,0.0,0.0,0.0,0.0,0.0,0.0,0.0,0.0,0.0,0.0,0.0,0.0,0.0,0.0,2.0856,1.9504,1.9237,1.7734,1.7572,1.8427,1.7876,1.7593,1.7344,1.5633,0.0,0.0,0.0,0.0,0.0,0.0,0.0,0.0,0.0,0.0,0.0,0.0,0.0,0.0,0.0,0.0,0.0,0.0,0.0,0.0,0.0,0.0,0.0,0.0,1.602,1.6298,0.0,0.0,0.0,0.0,0.0,0.0,0.0,0.0,0.0,0.0,0.0,0.0,1.3022,1.4702,1.6224,1.7231,1.7345,1.7377,1.7432,1.6282,1.5241,1.4582,1.3159,1.1451,0.0,0.0,0.0,0.0,0.0,0.0,0.0,0.0,0.0,0.0,0.0,0.0,0.0,0.0,0.0,0.0,0.0,0.0,0.0,0.0,0.0,0.0,0.0,0.0,0.0,0.0,0.0,0.0,0.0,0.0,0.0,0.0,1.1827,1.2633,0.0,0.0,0.0,0.0,0.0,0.0,0.0,0.0,0.0,0.0,0.0,0.0,0.0,1.6096,2.1586,2.287,2.3494,2.3476,2.3066,2.2161,2.086,2.1964,2.2553,2.27,2.2607,0.0,1.8556,1.8289,0.0,0.0,0.0,0.0,0.0,0.0,0.0,0.0,0.0,0.0,0.0,0.0,0.0,0.0,0.0,0.0,0.0,0.0,0.0,0.0,0.0,0.0,1.8733,1.8087,1.8584,1.8915,0.0,1.5795,1.3818,1.2871,1.2024,0.0,0.0,0.0,0.0,0.0,0.0,0.0,1.3199,1.4648,1.5858,1.6622,1.6763,1.6799,1.6825,1.6112,1.542,1.4816,1.338,1.2187,1.1384,0.97,0.0,0.0,0.0,0.0,0.0,0.0,0.0,0.0,0.0,0.0,0.0,0.0,0.0,0.0,0.0,0.0,0.0,0.0,0.0,0.0,0.0,0.0,0.0,0.0,0.0,0.0,0.0,0.0,0.0,1.1789,1.3139,1.255,1.3606,1.3732,0.0,0.0,0.0,0.0,0.0,0.0,0.0,0.0,0.0,1.6718,1.8552,2.0876,2.3646,2.3567,2.3494,2.3494,2.3494,2.3119,2.2482,2.3195,2.3494,2.3453,2.2816,2.1773,2.0556,2.1194,1.9572,1.6594,0.0,0.0,0.0,0.0,1.1334,1.438,1.739,1.9916,0.0,2.1797,0.0,0.0,0.0,0.0,0.0,0.0,0.0,0.0,0.0,0.0,1.959,1.9481,2.0025,2.0293,1.936,1.8177,1.666,0.0,1.4063,1.3585,1.2034,0.0,0.0,0.0,0.0,1.3184,1.3872,1.5084,1.6077,1.6565,1.6633,1.6659,1.6696,1.6035,1.5535,1.5327,1.3983,1.2915,1.2226,1.0962,0.9717,0.0,0.0,0.0,0.0,0.0,0.0,0.0,0.0,0.0,0.0,0.0,0.0,0.0,0.0,0.0,0.0,0.0,0.0,0.0,0.0,0.0,0.0,0.0,0.0,0.0,0.0,0.0,0.0,1.3248,1.4356,1.3509,1.5292,1.5778,0.0,0.0,0.0,0.0,0.0,0.0,1.8537,1.9452,2.0409,2.1403,2.296,2.3795,2.3795,2.3394,2.3151,2.306,2.306,2.3126,2.3193,2.3193,2.3151,2.3035,2.2169,2.1797,2.1869,2.2712,2.1669,1.9458,1.8362,1.7167,1.5784,1.3444,1.5122,1.8925,2.1052,2.1797,2.1797,2.1797,0.0,2.0638,1.8452,0.0,0.0,0.0,0.0,1.7723,1.8696,1.9493,2.0082,2.0295,2.0765,2.0943,2.0147,1.9972,1.9165,0.0,1.6022,1.5559,1.3468,0.0,0.0,0.0,0.0,1.4557,1.4742,1.5672,1.6348,1.6398,1.6409,1.6436,1.6474,1.5968,1.5618,1.5505,1.4554,1.3615,1.2742,1.2094,1.0924,0.9176,0.0,0.0,0.0,0.0,0.0,0.0,0.0,0.0,0.0,0.0,0.0,0.0,0.0,0.0,0.0,0.0,0.0,0.0,0.0,0.0,0.0,0.0,0.0,0.0,0.0,0.0,0.0,0.0,0.0,1.7325,1.8912,0.0,0.0,0.0,0.0,1.7259,1.8215,1.9417,2.0779,2.19,2.2872,2.3614,2.3741,2.3795,2.3795,2.2841,2.2192,2.1899,2.1899,2.2061,2.2366,2.2366,2.2192,2.1869,2.1811,2.1797,2.1781,2.1869,2.1786,2.1637,2.157,2.1504,2.1375,2.1242,2.1346,2.1599,2.1748,2.1797,2.1797,2.1797,2.0539,1.9015,1.8866,1.8601,0.0,0.0,1.9396,2.0433,2.0199,2.0661,2.1149,2.0829,2.0795,2.0811,2.0747,2.0731,2.0289,0.0,1.7737,1.7155,1.7183,0.0,1.508,1.5771,1.59,1.5849,1.5751,1.6293,1.6458,1.5887,1.5856,1.5856,1.5856,1.5797,1.554,1.4977,1.4871,1.4288,1.3039,1.2451,1.1862,1.1171,0.9279,0.0,0.0,0.0,0.0,0.0,0.0,0.0,0.0,0.0,0.0,0.0,0.0,0.0,0.0,0.0,0.0,0.0,0.0,0.0,0.0,0.0,0.0,0.0,0.0,0.0,0.0,0.0,0.0,1.807,1.948,0.0,1.83,1.8563,1.9017,1.9503,2.0365,2.1308,2.2306,2.2734,2.3132,2.3455,2.3382,2.3495,2.3795,2.279,2.2237,2.2123,2.1886,2.1991,2.231,2.231,2.2123,2.1797,2.1797,2.1797,2.1797,2.1797,2.1797,2.1797,2.1797,2.1797,2.1797,2.1797,2.1797,2.1797,2.1797,2.1797,2.1797,2.1797,2.1317,2.0754,2.0754,2.0562,2.0306,2.0306,2.0532,2.0734,2.0607,2.0767,2.0877,2.0496,2.0429,2.0361,2.0135,2.01,1.9928,1.9406,1.8864,1.8223,1.7375,1.6954,1.6729,1.6739,1.6925,1.7089,1.7026,1.7204,1.71,1.6443,1.6368,1.6219,1.5829,1.5799,1.5709,1.5497,1.4713,1.4061,1.3603,1.2605,1.1775,1.112,1.0399,0.9419,0.0,0.0,0.0,0.0,0.0,0.0,0.0,0.0,0.0,0.0,0.0,0.0,0.0,0.0,0.0,0.0,0.0,0.0,0.0,0.0,0.0,0.0,0.0,0.0,0.0,0.0,1.9001,1.9101,2.0481,2.094,1.9643,2.0201,2.0947,2.1701,2.2321,2.293,2.3482,2.3618,2.3614,2.3473,2.3382,2.3785,2.4764,2.411,2.3782,2.3782,2.3553,2.3583,2.3782,2.3782,2.3644,2.341,2.2803,2.2474,2.2355,2.2325,2.2126,2.1797,2.1797,2.1797,2.1797,2.1797,2.1797,2.1797,2.1797,2.1797,2.1797,2.1797,2.1797,2.1781,2.1678,2.1464,2.1277,2.1151,2.0958,2.0761,2.0646,2.0613,2.0496,2.012,2.0015,1.998,1.9747,1.969,1.969,1.969,1.9526,1.9071,1.8138,1.8188,1.8272,1.8031,1.8104,1.8096,1.784,1.7709,1.7426,1.6878,1.6644,1.641,1.6144,1.5933,1.5799,1.5799,1.4806,1.41,1.3875,1.284,1.1964,1.1318,1.1091,1.0091,0.8303,0.0,0.0,0.0,0.0,0.0,0.0,0.0,0.0,0.0,0.0,0.0,0.0,0.0,0.0,0.0,0.0,0.0,0.0,0.0,0.0,0.0,0.0,0.0,1.73,1.861,1.9865,2.069,2.2159,2.2797,2.2048,2.2691,2.3327,2.3798,2.405,2.4217,2.4271,2.4629,2.4462,2.3789,2.3753,2.4711,2.6691,2.6691,2.6691,2.6691,2.6691,2.6691,2.6691,2.6691,2.6674,2.6539,2.4796,2.3849,2.3524,2.34,2.2723,2.1797,2.1797,2.1797,2.1797,2.1797,2.1781,2.1781,2.1781,2.1781,2.1768,2.1768,2.1768,2.1691,2.1371,2.1277,2.1183,2.086,2.0761,2.0695,2.0292,2.0174,2.0104,1.9782,1.969,1.969,1.969,1.969,1.969,1.969,1.969,1.969,1.969,1.969,1.969,1.9639,1.9325,0.0,1.8187,1.776,1.7446,1.7156,1.6568,1.632,1.665,1.6159,1.5785,1.574,1.5126,1.4442,1.3784,1.3121,1.2471,1.1906,1.1223,1.0245,0.8919,0.0,0.0,0.0,0.0,0.0,0.0,0.0,0.0,0.0,0.0,0.0,0.0,0.0,0.0,0.0,0.0,0.0,0.0,0.0,0.0,0.0,1.8018,1.9441,1.9441,2.0315,2.1368,2.2532,2.3044,2.3448,2.3745,2.3996,2.4172,2.4305,2.4057,2.3915,2.3925,2.4338,2.4007,2.2738,2.2703,2.4002,2.6657,2.6691,2.6691,2.6691,2.6691,2.6691,2.6691,2.6691,2.6269,2.5511,2.501,2.4461,2.3914,2.3882,2.3069,2.1797,2.1797,2.1797,2.1797,2.1797,2.1648,2.1433,2.1433,2.1277,2.1071,2.1071,2.1071,2.1055,2.0958,2.0745,2.0481,2.0395,2.0189,1.9995,1.9889,1.9854,1.9818,1.9711,1.969,1.969,1.969,1.969,1.9603,1.9325,1.925,1.925,1.925,1.925,1.9176,1.8884,1.8745,0.0,1.8427,1.8285,1.8134,1.7834,1.7652,1.7243,1.6457,1.6193,1.5621,1.4472,1.3797,1.318,1.26,1.2056,1.171,1.1549,1.0925,1.0191,0.0,0.0,0.0,0.0,0.0,0.0,0.0,0.0,0.0,0.0,0.0,0.0,0.0,0.0,0.0,0.0,0.0,0.0,0.0,0.0,0.0,0.0,1.9804,2.125,2.1557,2.201,2.2579,2.3321,2.3663,2.4019,2.4472,2.4506,2.4642,2.4932,2.4695,2.4678,2.4983,2.5253,2.5017,2.4171,2.4137,2.4966,2.6674,2.664,2.664,2.6691,2.664,2.6657,2.6691,2.635,2.6015,2.5664,2.5225,2.4876,2.453,2.4128,2.3373,0.0,0.0,0.0,0.0,0.0,2.1464,2.1277,2.1151,2.0958,2.0794,2.0794,2.0794,2.0761,2.0613,2.0395,2.0174,2.0015,1.9854,1.969,1.969,1.969,1.969,1.969,1.969,1.969,1.969,1.9581,1.9398,1.9139,1.895,0.0,1.8592,1.8707,1.8784,1.8553,1.8344,1.8226,1.8226,1.8068,1.797,1.7969,1.7726,1.7248,1.6475,1.6131,0.0,0.0,0.0,1.2884,1.204,1.1745,0.0,0.0,0.0,0.0,0.0,0.0,0.0,0.0,1.015,1.0017,0.0,0.0,0.0,0.0,0.0,0.0,0.0,0.0,0.0,0.0,0.0,0.0,0.0,0.0,0.0,0.0,2.1566,2.2784,2.3427,2.3596,2.3646,2.3646,2.4222,2.4675,2.476,2.476,2.5017,2.5676,2.5727,2.6015,2.6657,0.0,0.0,0.0,0.0,2.6674,2.6674,2.6572,2.6537,2.664,2.6452,2.6452,2.6539,2.5762,2.5762,2.6315,2.5411,2.5056,2.5109,2.4271,2.3724,2.3409,2.2949,2.2304,2.1631,2.134,2.1214,2.1151,2.086,0.0,0.0,2.0695,2.0695,2.0613,2.0243,2.0139,2.0085,1.9782,1.969,1.969,1.969,1.969,1.969,1.969,1.969,1.9654,1.9654,1.931,1.8988,1.895,1.8669,1.8226,1.7787,1.8108,1.8422,1.8344,1.7988,1.772,1.772,1.7434,1.7352,1.776,0.0,0.0,1.6578,1.5985,1.5338,1.4645,1.3972,1.3094,1.1998,1.1957,1.1957,1.1957,1.1957,1.222,1.2761,1.2733,1.2899,1.3267,1.1557,1.14,0.0,0.0,0.0,0.0,0.0,0.0,0.0,0.0,0.0,0.0,0.0,0.0,0.0,0.0,0.0,2.1701,2.3105,2.4103,2.4286,2.4797,2.5186,2.5186,2.5304,2.5625,2.6218,2.6268,2.6319,2.6471,2.6488,2.6505,2.6539,2.6555,2.6537,2.6537,2.6537,2.6537,2.6537,2.652,2.6415,2.631,0.0,0.0,2.5726,2.5121,2.5082,2.5449,2.5259,2.5102,2.5029,2.4837,2.4347,2.3602,2.2404,2.1531,2.099,2.0925,2.0697,2.0413,2.0345,2.0154,1.9925,1.9925,1.9925,1.9889,1.9818,1.9782,0.0,1.9711,1.969,1.969,1.969,1.969,1.969,1.969,1.9472,1.9213,1.9213,1.8822,1.8383,1.8108,1.7868,1.7598,1.724,1.7598,1.7828,1.7516,1.7352,1.7323,1.7323,1.724,1.7352,1.776,1.7679,1.7217,1.6291,1.6099,1.5209,1.3369,1.2688,1.2321,1.2291,1.2306,1.2306,1.2306,1.2306,1.236,1.2482,1.2255,1.2553,1.3293,1.2636,1.2623,0.0,0.0,0.0,0.0,0.0,0.0,0.0,0.0,0.0,0.0,0.0,1.8707,1.9858,0.0,2.253,2.3274,2.4323,2.497,2.4761,2.5546,2.6015,2.5642,2.593,2.6269,2.6624,2.6674,2.6573,2.6262,2.6504,2.6504,2.6191,2.6137,2.6277,2.6485,2.6082,2.5957,2.6154,2.5885,2.5721,2.5701,2.5253,2.516,2.5335,2.4744,2.4704,2.5067,2.4576,2.4592,2.4926,2.4744,2.4113,2.3194,2.2478,2.1807,2.125,2.108,2.0655,2.0174,2.0015,1.9854,1.969,1.969,1.969,1.969,1.969,1.969,1.969,1.969,1.969,1.9639,1.9472,1.9398,1.9347,1.9147,1.8936,1.8784,1.8784,1.8383,1.7988,1.7787,1.7516,1.7282,1.7002,1.7199,1.7323,1.7073,1.7073,1.7073,1.7044,1.7044,1.7115,1.7323,1.7352,1.7008,1.6138,1.5604,1.4734,1.3441,1.3069,1.2843,1.2648,1.2664,1.2664,1.2664,1.2664,1.2781,1.3085,1.2975,1.3359,1.42,1.3853,1.386,0.0,0.0,0.0,0.0,0.0,0.0,0.0,0.0,1.7003,1.8566,1.9813,2.1027,2.2249,2.31,2.3787,2.4389,2.5111,2.5464,2.5139,2.5879,2.6218,2.5631,2.6152,2.6521,2.6382,2.6504,2.6332,2.5852,2.6225,2.626,2.5795,2.5798,2.6008,2.6385,2.5821,2.5692,2.6016,2.5575,2.5377,2.5352,2.5092,2.4989,2.5005,2.4436,2.4354,2.4672,2.3921,2.4006,2.4623,2.4287,2.3648,2.2862,2.2862,2.2483,2.1833,2.128,2.0742,2.0233,1.9827,1.969,1.969,1.969,1.969,1.969,1.969,1.969,1.969,1.9617,1.9581,1.9493,1.9101,1.8988,1.8898,1.8592,1.8422,1.8344,1.8344,1.7988,1.7639,1.7598,1.7323,1.7086,1.6918,1.6918,1.6918,1.6876,1.696,1.696,1.6918,1.6876,1.6876,1.6876,1.6876,1.6658,1.6053,1.5145,1.4469,1.4119,1.4093,1.3872,1.3376,1.3396,1.3428,1.3428,1.3428,1.3631,1.4114,1.4114,1.4475,1.5179,1.5029,1.5052,1.4765,1.4697,1.4979,1.6598,1.6479,1.6969,0.0,0.0,2.0529,2.2313,2.2832,2.2994,2.3156,2.3772,2.4327,2.4408,2.5029,2.5501,2.5464,2.5508,2.5524,2.5443,2.5875,2.5997,2.5572,2.5848,2.5994,2.5815,2.5868,2.5832,2.5738,2.5869,2.5966,2.5982,2.6451,2.674,2.6783,2.6698,2.6425,2.5819,2.5435,2.4972,2.4369,2.3909,2.3724,2.3767,2.3638,2.3638,2.3724,2.3681,2.3608,2.349,2.349,2.3113,2.2415,2.1203,2.07,2.0535,1.9936,1.969,1.969,1.969,1.969,1.969,1.969,1.969,1.9617,1.9288,1.9176,1.9064,1.8669,1.8592,1.8553,1.85,1.8187,1.7868,1.7868,1.7475,1.7115,1.724,1.7002,1.6803,1.6876,1.6803,1.6761,1.6876,1.6918,1.6918,1.6876,1.6876,1.6876,1.6876,1.6876,1.6658,1.6053,1.5479,1.5082,1.5055,1.5093,1.5092,1.5027,1.5138,1.5199,1.5199,1.5199,1.5238,1.5304,1.5304,1.5367,1.5483,1.5983,1.6083,1.7697,1.7656,1.7593,0.0,1.9341,1.967,2.1779,2.1876,2.2102,2.412,2.4519,2.4632,2.5088,2.5395,2.5476,0.0,2.525,2.5313,2.5005,2.516,2.5121,2.4639,2.4965,2.5221,2.516,2.5389,2.5529,2.5527,2.5767,2.5943,2.5989,2.6061,2.6233,2.6477,2.6253,2.6258,2.651,2.6258,2.5985,2.5695,2.5546,2.5107,2.4472,2.4282,2.3984,2.3595,2.3595,2.3595,2.3595,2.3595,2.3595,2.3595,2.3595,2.3445,2.3101,2.2188,2.162,2.1246,2.0961,2.0857,2.0759,2.0129,1.9921,1.9809,1.9188,1.8997,1.8974,1.8822,1.8745,1.8669,1.8226,1.8068,1.7988,1.772,1.7475,1.7323,1.7282,1.7115,1.6918,1.6918,1.6846,1.6791,1.6693,1.6675,1.6675,1.6663,1.6748,1.6761,1.6705,1.665,1.665,1.665,1.665,1.6464,1.5919,1.5693,1.5465,1.5223,1.5248,1.5248,1.5248,1.5311,1.5349,1.5387,1.5387,1.5424,1.5487,1.5487,1.5632,1.5919,1.6179,1.6375,1.9212,1.9527,0.0,2.0783,2.1359,2.1807,2.2372,2.271,2.3367,2.5035,2.5346,2.5544,2.6078,2.6014,2.5688,2.5155,2.5036,2.4863,2.4477,2.4648,2.4608,2.4009,2.4147,2.4405,2.4592,2.4847,2.5067,2.5256,2.5612,2.5936,2.6181,2.6275,2.6474,2.682,2.6364,2.6266,2.6565,2.6314,2.6063,2.5884,2.5884,2.554,2.4851,2.4672,2.4253,2.3595,2.3595,2.3595,2.3595,2.3595,2.3595,2.3595,2.3465,2.3421,2.3318,2.273,2.2212,2.1717,2.1539,2.1385,2.1134,2.037,2.0145,1.9936,1.899,1.8728,1.8647,1.8361,1.8266,1.8187,1.7679,1.7557,1.7434,1.7086,1.696,1.696,1.6918,1.6876,1.6876,1.6761,1.6803,1.6791,1.6577,1.662,1.662,1.6522,1.6577,1.662,1.6522,1.6522,1.6522,1.6522,1.6522,1.6346,1.6027,1.6002,1.5878,1.5565,1.5592,1.5592,1.5592,1.5671,1.571,1.5737,1.5737,1.5776,1.5893,1.5893,1.6061,1.6383,1.6383,1.6574,1.815,0.0,2.0345,2.0646,2.172,2.2828,2.3204,2.4013,2.4804,2.5219,2.5287,2.5287,2.5346,2.4752,2.428,2.4265,2.4109,2.4024,2.4024,2.3925,2.3824,2.3797,2.3696,2.3638,0.0,2.4105,2.4689,2.5272,2.5318,2.5595,2.6181,2.6468,2.6606,2.6606,2.722,2.7565,2.7565,2.7565,2.7186,2.6557,2.6557,2.6213,2.5555,2.4881,2.4253,2.3595,2.3595,2.3595,2.3595,2.3595,2.3595,2.3551,2.3113,2.2934,2.2844,2.23,2.2038,2.1787,2.1164,2.0641,2.0245,2.0188,2.0188,2.0076,1.946,1.9279,1.9071,1.8031,1.772,1.7598,1.7086,1.6918,1.6918,1.6918,1.6876,1.6876,1.6876,1.6876,1.6876,1.6876,1.6803,1.6675,1.6675,1.6577,1.6522,1.6522,1.6522,1.6522,1.6522,1.6522,1.6522,1.6522,1.6522,1.6509,1.6497,1.6497,1.6484,1.6471,1.657,1.6625,1.6625,1.6795,1.6866,1.6866,1.6866,1.6866,1.6866,1.6866,1.6879,1.6892,1.6892,1.6905,1.9699,2.0239,2.0628,2.2081,2.28,2.3289,2.385,2.457,2.5153,2.5272,2.5318,2.5179,2.4733,2.4403,2.4028,2.3488,2.4031,2.4324,2.3814,2.4462,2.4657,2.3758,2.4014,0.0,0.0,0.0,0.0,2.4791,2.5259,2.5787,2.6436,2.6969,2.7245,2.7245,2.7455,2.7625,2.7625,2.7625,2.7505,2.7245,2.6797,2.6482,2.6228,2.5136,2.4462,2.4253,2.3789,2.3421,2.3157,2.3157,2.292,2.2589,2.2406,2.2374,2.236,2.2175,2.1876,2.1588,2.1685,2.16,2.1349,2.0629,2.0325,2.008,1.9186,1.8601,1.817,1.7826,1.7444,1.7115,1.696,1.6876,1.6876,1.6803,1.6761,1.6748,1.665,1.665,1.665,1.665,1.662,1.6577,1.6577,1.6522,1.6522,1.6522,1.6522,1.6522,1.6522,1.6522,1.6522,1.6522,1.6522,1.6522,1.6522,1.6522,1.6522,1.6522,1.6522,1.6577,1.6577,1.6607,1.6663,1.6761,1.6761,1.6803,1.6876,1.6876,1.6846,1.6761,1.6761,1.6705,2.0248,2.0803,2.1299,2.317,2.3759,2.4028,2.4844,2.5277,2.5435,2.5321,2.4844,2.4334,2.3751,2.3239,2.2862,2.2724,2.3522,2.4015,2.3733,2.4774,2.5193,2.4118,2.4551,2.4807,0.0,0.0,0.0,2.4896,2.5585,2.6243,2.6901,2.7385,2.7625,2.7625,2.7625,2.7625,2.7625,2.7625,2.7509,2.724,2.6825,2.65,2.6234,2.5213,2.4582,2.431,2.3671,2.3078,2.2603,2.2603,2.242,2.2081,2.1908,2.1813,2.1752,2.1575,2.1299,2.1068,2.1609,2.167,2.1411,2.0649,2.0337,2.0088,1.9206,1.8639,1.8272,1.8035,1.7562,1.7122,1.7295,1.7053,1.6799,1.6928,1.6784,1.662,1.6522,1.6522,1.6522,1.6522,1.6522,1.6522,1.6522,1.6522,1.6522,1.6522,1.6522,1.6522,1.6522,1.6522,1.6522,1.6522,1.6522,1.6522,1.6522,1.6522,1.6522,1.6522,1.6522,1.6522,1.6522,1.6522,1.6522,1.6633,1.6633,1.6663,1.6748,1.6748,1.6705,1.6633,1.6633,1.6577,1.9908,2.0865,2.2269,2.3902,2.4526,2.5047,2.6045,2.594,2.5561,2.5173,2.3879,2.2702,2.2322,2.1305,2.0882,2.1885,2.263,2.3194,2.3696,2.482,2.5375,0.0,0.0,0.0,0.0,0.0,0.0,2.555,0.0,2.6856,2.7535,2.761,2.7625,2.7625,2.7625,2.7625,2.7625,2.7575,2.7255,2.6669,2.6669,2.635,2.5676,2.5147,2.4532,2.3934,2.3277,2.267,2.2077,2.2049,2.2035,2.1941,2.1506,2.1251,2.1091,2.0649,2.0347,2.0271,2.0944,2.0871,2.0461,2.0233,2.0182,2.008,1.9592,1.9413,1.9236,1.8618,1.7999,1.7637,1.8053,1.7388,1.6697,1.725,1.6936,1.6522,1.6522,1.6522,1.6479,1.6466,1.6423,1.6423,1.6479,1.6466,1.6466,1.6522,1.6522,1.6522,1.6522,1.6522,1.6522,1.6522,1.6522,1.6522,1.6522,1.6522,1.6522,1.6522,1.6522,1.6522,1.6522,1.6522,1.6522,1.6522,1.6522,1.6522,1.6522,1.6522,1.6522,1.6522,1.6522,1.6522,2.1203,2.2375,2.3396,2.4045,2.4282,2.4415,2.4685,2.4222,2.3437,2.2456,2.1439,2.0378,1.9336,1.953,1.9916,2.021,2.2207,0.0,2.3257,2.4646,0.0,2.4261,0.0,2.4875,2.4405,2.4775,0.0,0.0,2.6026,2.6662,2.6841,2.7355,2.7625,2.7625,2.7625,2.7625,2.7625,2.7152,2.6616,2.6014,2.6014,2.5929,2.5745,2.5188,2.4807,2.4609,2.3498,2.2679,2.2083,2.1607,2.1126,2.066,2.0573,2.0472,2.0422,2.0334,2.0233,2.0233,2.0271,2.0283,2.0283,2.0233,2.0131,2.0016,1.9877,1.9484,1.9093,1.8906,1.8465,1.8062,1.8166,1.7689,1.72,1.735,1.6936,1.6522,1.6522,1.6522,1.638,1.6064,1.5712,1.568,1.638,1.6207,1.6107,1.6436,1.6522,1.6522,1.6522,1.6522,1.6522,1.6522,1.6522,1.6522,1.6522,1.6522,1.6522,1.6522,1.6522,1.6522,1.6522,1.6522,1.6522,1.6522,1.6522,1.6522,1.6522,1.6522,1.6522,1.6522,1.6522,1.6522,2.2061,2.304,2.3909,2.4648,2.4519,2.4196,2.3999,2.3076,2.1888,2.0531,1.9298,1.8264,1.7404,1.7775,1.8451,0.0,0.0,0.0,2.3009,2.4445,2.5182,0.0,2.4908,0.0,2.4749,2.5068,2.5264,0.0,2.5911,2.6272,2.6272,2.6843,2.7086,2.6811,2.7086,2.7086,2.6811,2.6443,2.6014,2.5481,2.5481,2.5481,2.5412,2.4791,2.4491,2.4405,0.0,2.2508,2.1628,2.1286,2.0807,2.0182,2.0182,2.0182,2.0131,2.0131,2.008,2.0016,1.9926,1.9965,2.0016,2.0016,1.9965,1.9926,1.9926,1.9661,1.9359,1.9359,1.8982,1.8618,1.8844,1.8141,1.7438,1.7689,1.7112,1.6522,1.6522,1.6522,1.638,1.5876,1.54,1.5289,1.5812,1.568,1.5668,1.6107,1.6032,1.5944,1.6151,1.6194,1.6107,1.5901,1.5901,1.5901,1.5901,1.5901,1.5901,1.5901,1.6076,1.612,1.5901,1.6064,1.612,1.5901,1.5901,1.5988,1.6194,1.6194,1.6293,1.6522,1.6522,1.6522,2.2455,2.3159,2.3966,2.5078,2.469,2.39,2.3416,2.2002,2.0372,1.8917,0.0,1.6338,1.6014,1.6155,1.6797,1.8328,0.0,2.1165,2.2787,2.4008,2.4789,2.4881,2.5314,2.5577,2.5577,2.5577,2.5577,2.5577,2.5577,2.5632,2.5783,2.6283,2.6336,2.5837,2.6283,2.6297,2.5687,2.5687,2.5425,2.4892,2.4892,2.4892,2.4835,2.4287,2.3997,2.3806,2.325,2.2292,2.1153,2.1089,2.0719,2.0131,2.0131,2.008,1.9978,1.9978,1.9926,1.9798,1.9798,1.9798,1.9798,1.9798,1.9798,1.9798,1.9798,1.9798,1.9798,1.9798,1.9472,1.9233,1.9685,1.8656,1.7614,1.7997,1.7355,1.6566,1.6362,1.6293,1.6207,1.58,1.5322,1.5017,1.5108,1.5062,1.5187,1.5623,1.5367,1.5232,1.5579,1.5656,1.5534,1.5153,1.5108,1.5108,1.5108,1.5108,1.5108,1.5108,1.549,1.5534,1.5108,1.549,1.5534,1.5108,1.5108,1.5322,1.5788,1.5788,1.6064,1.6522,1.6522,1.6522,2.2138,2.3003,2.3668,2.3634,2.3173,2.2446,2.1368,1.9656,0.0,0.0,1.5657,1.48,1.4317,1.501,1.6061,1.7284,1.8864,2.0548,2.2273,2.3065,2.3715,0.0,2.4332,2.439,2.439,2.439,0.0,0.0,0.0,2.4821,2.5728,2.5906,2.5906,2.5783,2.5906,2.5687,2.516,2.516,2.4835,2.4287,2.4287,2.4229,2.4112,2.4008,2.3826,2.3612,2.3103,0.0,2.1581,2.1148,2.0496,1.9862,1.9862,1.9862,1.985,1.985,1.9811,1.9798,1.9798,1.9798,1.9798,1.9798,1.9798,1.9798,1.9798,1.9798,1.9798,1.9798,1.9736,1.9685,1.9773,1.8932,1.7984,1.7677,1.7412,1.6876,1.5608,1.5322,1.5334,1.5232,1.4834,1.4651,1.5017,1.4789,1.4697,1.5142,1.5153,1.5017,1.4686,1.496,1.5187,1.5108,1.5108,1.5108,1.5108,1.5108,1.5108,1.5108,1.5198,1.5198,1.5108,1.5198,1.5198,1.5108,1.5108,1.5322,1.5788,1.5788,1.6064,1.6522,1.6522,1.6522,2.2491,2.3111,2.345,2.3487,2.2802,2.1672,1.972,0.0,0.0,0.0,1.3769,1.3278,1.3317,1.4023,0.0,1.6545,1.7486,1.8832,2.1197,2.176,0.0,2.3511,2.3929,2.4112,0.0,0.0,0.0,0.0,0.0,2.4332,2.4878,2.4935,2.5034,2.537,2.509,2.4765,2.4505,2.4505,2.439,2.4112,2.4112,2.4008,2.3891,2.3891,2.376,2.3497,2.3229,0.0,2.1579,2.1327,2.0643,1.9798,1.9798,1.9798,1.9798,1.9798,1.9798,1.9798,1.9798,1.9798,1.9798,1.9798,1.9798,1.9798,1.9798,1.9798,1.9747,1.9448,1.9396,1.9291,1.9004,1.8322,1.7659,1.7446,1.6991,1.6323,1.5302,1.4926,1.4743,1.4743,1.4326,1.4046,1.4269,1.4129,1.414,1.4651,1.4501,1.4326,1.4373,1.4362,1.4316,1.4316,1.4316,1.4316,1.4316,1.4316,1.4316,1.4316,1.4605,1.4605,1.4316,1.4605,1.4593,1.4316,1.4316,1.4593,1.5085,1.5311,1.5546,1.5768,1.625,1.638,2.2531,2.2854,2.2909,2.3191,2.2379,2.0894,1.8446,1.6558,0.0,1.3213,1.2429,1.2177,1.2781,1.3278,1.4167,0.0,1.631,1.7356,2.0136,2.0738,2.1433,0.0,2.3702,0.0,2.4067,0.0,0.0,0.0,0.0,0.0,2.4112,2.4054,2.4287,2.4721,2.4274,2.3995,2.3995,2.3995,2.3995,2.3995,2.3995,2.3936,2.3772,2.3772,2.3654,2.333,2.333,0.0,0.0,2.1493,2.0828,1.9798,1.9798,1.9798,1.9798,1.9798,1.9798,1.9798,1.9798,1.9695,1.9656,1.9656,1.9656,1.9656,1.9656,1.954,1.9331,1.8922,1.8827,1.8709,1.8201,1.7714,1.726,1.7146,1.6287,1.5395,1.5164,1.4729,1.4373,1.4233,1.3999,1.3716,1.3621,1.3621,1.3752,1.4186,1.3858,1.3752,1.4186,1.3858,1.3621,1.3621,1.3621,1.3621,1.3621,1.3621,1.3621,1.3621,1.3999,1.4046,1.3621,1.3999,1.4046,1.361,1.3621,1.3858,1.4373,1.4789,1.5017,1.5108,1.5944,1.6151,2.1328,2.1642,2.1655,2.1708,2.0856,1.9533,1.7695,0.0,1.4337,1.3134,1.2429,1.2177,1.2781,1.297,1.3539,1.5291,0.0,1.7212,1.9551,2.078,2.1877,2.308,0.0,0.0,2.3891,0.0,0.0,0.0,0.0,0.0,2.4054,2.4008,2.3949,2.4008,2.3747,2.3628,2.3628,2.3628,2.3628,2.3628,2.3628,2.3569,2.3463,2.3463,2.333,2.3138,2.3138,0.0,0.0,2.1493,2.0828,1.9798,1.9798,1.9798,1.9798,1.9798,1.9798,1.9798,1.9798,1.95,1.9093,1.9093,1.9093,1.9093,1.9093,1.8697,1.8255,1.8201,1.8201,1.8147,1.8093,1.7714,1.7168,1.6761,1.5493,1.4581,1.5077,1.4774,1.428,1.3752,1.4046,1.4186,1.3668,1.3621,1.3621,1.3668,1.361,1.3621,1.3668,1.361,1.3621,1.3621,1.3621,1.3621,1.3621,1.3621,1.3621,1.3621,1.3668,1.3668,1.3621,1.3668,1.3668,1.3621,1.3621,1.3858,1.4373,1.4419,1.4697,1.5108,1.5623,1.5832,2.0675,2.125,2.1511,2.1511,2.0649,1.9342,1.7591,1.5591,1.3775,1.2612,1.1616,1.1264,1.2177,1.2089,1.2533,1.4611,1.4572,1.5095,1.7421,1.8338,1.946,2.1277,2.2231,0.0,0.0,0.0,0.0,0.0,0.0,0.0,2.3806,2.376,2.37,2.37,2.3628,2.3628,2.3628,2.3628,2.3628,2.3628,2.3628,2.3509,2.3403,2.3403,2.3271,2.3053,2.2786,0.0,0.0,2.1129,2.0526,1.9798,1.9798,1.9798,1.9747,1.9448,1.9291,1.9291,1.8898,1.8632,1.8483,1.8483,1.8201,1.7984,1.8375,1.8309,1.8038,1.7644,1.7534,1.749,1.7179,1.6937,1.6623,1.6191,1.5363,1.4696,1.4665,1.428,1.3858,1.3658,1.3752,1.3847,1.3621,1.3621,1.3621,1.3621,1.3621,1.3621,1.3621,1.3621,1.3621,1.3621,1.3621,1.3621,1.3621,1.3621,1.3621,1.3621,1.3621,1.3621,1.3621,1.3621,1.3621,1.3621,1.3621,1.3716,1.3905,1.4233,1.4326,1.4222,1.4994,1.5367,2.0083,2.0701,2.1015,2.1015,2.0152,1.8885,1.7316,1.5173,1.3239,1.2216,1.1095,1.0599,1.1577,1.1592,1.201,0.0,1.3696,1.4067,1.6062,1.6837,1.797,0.0,0.0,0.0,0.0,0.0,0.0,0.0,0.0,0.0,2.3437,2.3437,2.3509,2.3509,2.3509,2.3437,2.3437,2.3437,2.3437,2.3437,2.3437,2.339,2.333,2.333,2.321,2.304,2.2548,0.0,0.0,2.0891,2.0326,1.9798,1.9656,1.9552,1.95,1.8922,1.8709,1.8655,1.8267,1.7984,1.782,1.782,1.7435,1.7056,1.7446,1.7611,1.7501,1.7056,1.6944,1.6899,1.6477,1.6384,1.626,1.5804,1.5442,1.507,1.4614,1.4148,1.3828,1.3828,1.3714,1.3621,1.3621,1.3621,1.3621,1.3621,1.3621,1.3621,1.3621,1.3621,1.3621,1.3621,1.3621,1.3621,1.3621,1.3621,1.3621,1.3621,1.3621,1.3621,1.3621,1.3621,1.3621,1.3621,1.3621,1.3621,1.3621,1.3999,1.3952,1.361,1.464,1.5244,1.9342,1.9812,1.9826,1.9826,1.8963,1.7813,1.6663,1.4585,1.2729,1.2125,1.1095,1.0482,1.1109,1.1657,1.219,1.2808,1.3812,1.4896,1.6035,1.7131,0.0,0.0,0.0,0.0,0.0,0.0,0.0,0.0,0.0,0.0,2.3138,2.3138,2.321,2.3403,2.321,2.3138,2.3138,2.3138,2.3138,2.3138,2.3138,2.3078,2.3078,2.3078,2.3078,2.304,0.0,0.0,0.0,2.0891,2.0326,1.9759,1.9198,1.8987,1.8934,1.8321,1.8093,1.8093,1.8093,1.7699,1.7202,1.7202,1.6842,1.6431,1.6441,1.6441,1.6441,1.6431,1.6431,1.6431,1.6384,1.6384,1.626,1.5804,1.568,1.5556,1.509,1.4624,1.4304,1.4304,1.3931,1.3621,1.3621,1.3621,1.3621,1.3621,1.3621,1.3621,1.3621,1.3621,1.3621,1.3621,1.3621,1.3621,1.3621,1.3621,1.3621,1.3621,1.3621,1.3621,1.3621,1.3621,1.3621,1.3621,1.3621,1.3621,1.3621,1.3621,1.3621,1.361,1.464,1.5591,1.653,1.7349,1.79,1.7565,1.7199,1.6728,1.5957,1.4284,1.2729,1.2065,1.1026,1.0405,1.0948,1.091,1.1495,1.3643,1.3925,0.0,0.0,0.0,0.0,0.0,0.0,0.0,0.0,0.0,0.0,0.0,0.0,0.0,2.3078,2.3078,2.3138,2.3198,2.3138,2.3078,2.3078,2.3078,2.3078,2.3078,2.3078,2.3078,2.3078,2.3078,2.3078,0.0,0.0,0.0,0.0,1.9643,1.9066,1.9186,1.859,1.8375,1.8321,1.7699,1.7479,1.7435,1.7078,1.6807,1.6637,1.6637,1.6534,1.6384,1.6384,1.6384,1.6384,1.6384,1.6384,1.6384,1.6384,1.6384,1.6343,1.6198,1.5918,1.5649,1.5504,1.5101,1.478,1.478,1.4407,1.4086,1.4086,1.3828,1.3621,1.3621,1.3621,1.3621,1.3621,1.3621,1.3621,1.3621,1.3621,1.3621,1.3621,1.3621,1.3621,1.3621,1.3621,1.3621,1.3621,1.3621,1.3621,1.3621,1.3621,1.3621,1.3621,1.3621,1.3621,1.361,1.464,1.5232,1.4859,1.5906,1.6452,1.6335,1.601,1.5527,1.4941,1.3435,1.2053,1.1658,1.0817,1.0251,1.0611,1.0739,1.1397,1.3181,1.3668,1.4351,0.0,0.0,0.0,0.0,0.0,0.0,0.0,0.0,0.0,0.0,0.0,0.0,2.3078,2.3078,2.3078,2.3078,2.3078,2.3078,2.3078,2.3078,2.3078,2.3078,2.3078,2.2944,2.275,2.3005,2.2944,0.0,0.0,0.0,0.0,1.9178,1.8655,1.8934,1.8321,1.8093,1.7984,1.7224,1.6888,1.6842,1.6545,1.6384,1.6384,1.6384,1.6384,1.6384,1.6384,1.6384,1.6384,1.6384,1.6384,1.6384,1.6384,1.6384,1.6384,1.6384,1.6156,1.5949,1.5949,1.5587,1.5256,1.5256,1.4883,1.4511,1.4335,1.4066,1.3817,1.3641,1.3621,1.3621,1.3621,1.3621,1.3621,1.3621,1.3621,1.3621,1.3621,1.3621,1.3621,1.3621,1.3621,1.3621,1.3621,1.3621,1.3621,1.3621,1.3621,1.3621,1.3621,1.3621,1.3705,1.3905,1.4731,1.5187,0.0,1.5001,1.5257,1.5711,1.5038,1.418,1.3687,1.2239,0.0,1.0996,1.0494,1.0123,1.02,1.103,1.1784,1.1989,1.3264,1.4651,0.0,0.0,0.0,0.0,0.0,0.0,0.0,0.0,0.0,0.0,0.0,0.0,2.3078,2.3078,2.3078,2.3078,2.3078,2.3078,2.3078,2.3078,2.3078,2.3078,2.3078,2.275,2.2101,2.2811,2.2689,0.0,0.0,0.0,0.0,1.9353,1.8934,1.8827,1.8267,1.8038,1.7831,1.6807,1.6384,1.6384,1.6384,1.6384,1.6384,1.6384,1.6384,1.6384,1.6384,1.6384,1.6384,1.6384,1.6384,1.6384,1.6384,1.6384,1.6384,1.6384,1.6384,1.6384,1.6384,1.6042,1.5742,1.5742,1.5359,1.4914,1.448,1.4376,1.421,1.3776,1.3714,1.3714,1.3714,1.3714,1.3703,1.3662,1.3662,1.3652,1.3621,1.3621,1.3621,1.3621,1.3621,1.3621,1.3621,1.3621,1.3621,1.3621,1.3621,1.3621,1.3621,1.3621,1.3858,1.4384,1.488,1.5322,1.083,0.0,1.2513,1.2268,1.235,1.2396,0.0,1.16,1.0996,1.0926,0.0,1.0262,1.1109,1.1121,1.1776,1.395,1.4587,1.5361,1.6964,0.0,0.0,0.0,0.0,0.0,0.0,0.0,0.0,0.0,0.0,2.3078,2.3078,2.3078,2.3078,2.3078,2.3078,2.3078,2.3078,2.3078,2.3078,2.3078,2.3078,2.275,2.2101,2.2811,2.2445,0.0,0.0,0.0,1.9762,1.8739,1.8038,1.7589,1.7479,1.7168,1.6761,1.6488,1.6384,1.6384,1.6384,1.6384,1.6384,1.6384,1.6384,1.6384,1.6384,1.6384,1.6384,1.6384,1.6384,1.6384,1.6384,1.6384,1.6384,1.6384,1.6384,1.6384,1.6384,1.6291,1.6218,1.6218,1.5846,1.5494,1.538,1.507,1.48,1.4687,1.4676,1.4676,1.4676,1.4676,1.4542,1.4179,1.4148,1.4003,1.3652,1.3621,1.3621,1.3621,1.3621,1.3621,1.3621,1.3621,1.3621,1.3621,1.3621,1.3621,1.3621,1.3621,1.3658,1.381,1.4697,1.5153,0.9303,1.0588,1.1695,1.1704,1.1729,1.1755,1.1755,0.0,0.0,0.0,0.0,1.0485,1.1073,1.1563,1.2398,1.397,1.5055,0.0,0.0,0.0,0.0,0.0,0.0,0.0,0.0,0.0,0.0,0.0,0.0,2.3078,2.3078,2.3078,2.3078,2.3078,2.3078,2.3078,2.3078,2.3078,2.3078,2.3078,2.3078,2.275,2.2101,2.2811,2.2567,0.0,0.0,0.0,1.9598,1.8227,1.7479,1.7202,1.7202,1.7,1.674,1.6488,1.6384,1.6384,1.6384,1.6384,1.6384,1.6384,1.6384,1.6384,1.6384,1.6384,1.6384,1.6384,1.6384,1.6384,1.6384,1.6384,1.6384,1.6384,1.6384,1.6384,1.6384,1.6384,1.6488,1.674,1.6381,1.605,1.6028,1.5635,1.5245,1.5028,1.4997,1.4997,1.4997,1.4997,1.4904,1.4656,1.4438,1.421,1.3952,1.3734,1.3621,1.3621,1.3621,1.3621,1.3621,1.3621,1.3621,1.3621,1.3621,1.3621,1.3621,1.3621,1.3621,1.361,1.464,1.5223,0.8798,1.0361,1.1741,1.2045,1.1893,1.1653,1.1564,0.0,0.0,0.0,0.0,0.0,0.0,1.2371,0.0,0.0,0.0,0.0,0.0,0.0,0.0,0.0,0.0,0.0,0.0,0.0,0.0,0.0,0.0,2.3078,2.3078,2.3078,2.3078,2.3078,2.3078,2.3078,2.3078,2.3078,2.3078,2.3078,2.3078,2.275,2.2113,2.2689,2.2518,2.1625,0.0,0.0,1.926,1.7913,1.7202,1.7101,1.7146,1.7146,1.7,1.6591,1.6384,1.6384,1.6384,1.6384,1.6384,1.6384,1.6384,1.6384,1.6384,1.6384,1.6384,1.6384,1.6384,1.6384,1.6384,1.6384,1.6384,1.6384,1.6384,1.6384,1.6384,1.6384,1.6534,1.7,1.6684,1.6409,1.6591,1.6157,1.5714,1.5521,1.5405,1.5353,1.5458,1.5405,1.5332,1.5269,1.48,1.449,1.4417,1.3983,1.3724,1.3724,1.3652,1.3621,1.3621,1.3621,1.3621,1.3621,1.3621,1.3621,1.3621,1.3683,1.3724,1.3724,1.4829,1.5545,0.8798,1.0334,1.1404,1.0523,1.0963,1.1492,1.0973,0.0,0.0,0.0,0.0,0.0,0.0,1.3783,0.0,0.0,0.0,0.0,0.0,0.0,0.0,0.0,0.0,0.0,0.0,0.0,0.0,0.0,0.0,2.3078,2.3078,2.3078,2.3078,2.3078,2.3078,2.3078,2.3078,2.3078,2.3078,2.3078,2.3078,2.275,2.2101,2.2237,2.1369,1.9816,0.0,1.8792,1.7444,1.7835,1.739,1.6591,1.7,1.6944,1.6534,1.6431,1.6384,1.6384,1.6384,1.6384,1.6384,1.6384,1.6384,1.6384,1.6384,1.6384,1.6384,1.6384,1.6384,1.6384,1.6384,1.6384,1.6384,1.6384,1.6384,1.6384,1.6384,1.6384,1.6431,1.6488,1.6488,1.657,1.7003,1.6634,1.6623,1.7508,1.7213,1.7049,1.754,1.7159,1.6732,1.6288,1.5774,1.5318,1.4925,1.4469,1.42,1.42,1.3838,1.3621,1.3621,1.3621,1.3621,1.3621,1.3621,1.3621,1.3621,1.4014,1.42,1.421,1.5664,1.6164,0.8361,0.9642,1.0696,1.0784,1.1907,1.2801,1.2184,0.0,0.0,0.0,0.0,0.0,0.0,0.0,0.0,0.0,0.0,0.0,0.0,0.0,0.0,0.0,0.0,0.0,0.0,0.0,0.0,0.0,0.0,0.0,2.3078,2.3078,2.3078,2.3078,2.3078,2.3078,2.3078,2.3078,2.3078,2.3078,2.275,2.2433,2.2101,2.1445,2.0696,1.989,0.0,1.8328,1.7573,1.7329,1.6864,1.6431,1.6694,1.6637,1.6384,1.6384,1.6384,1.6384,1.6384,1.6384,1.6384,1.6384,1.6384,1.6384,1.6384,1.6384,1.6384,1.6384,1.6384,1.6384,1.6384,1.6384,1.6384,1.6384,1.6384,1.6384,1.6384,1.6384,1.6591,1.719,1.7067,1.7123,1.8038,1.7722,1.7512,1.8038,1.7875,1.7644,1.7644,1.7368,1.7025,1.6509,1.6254,1.5912,1.5444,1.5257,1.4811,1.3962,1.3734,1.3621,1.3621,1.3859,1.3869,1.3621,1.4107,1.4242,1.3993,1.4449,1.483,1.5185,1.5846,1.6512,0.8148,0.9265,1.0332,1.1337,1.2763,1.3821,1.3483,0.0,0.0,0.0,0.0,0.0,0.0,0.0,0.0,0.0,0.0,0.0,0.0,0.0,0.0,0.0,0.0,0.0,0.0,0.0,0.0,0.0,0.0,0.0,2.3078,2.3078,2.3078,2.3078,2.3078,2.3005,2.2884,2.2884,2.2884,2.2884,2.2226,2.186,2.1651,2.0534,1.9932,1.9784,1.8438,1.7774,1.7644,1.6738,1.6384,1.6384,1.6384,1.6384,1.6384,1.6384,1.6384,1.6384,1.6384,1.6384,1.6384,1.6384,1.6384,1.6384,1.6384,1.6384,1.6384,1.6384,1.6384,1.6384,1.6384,1.6384,1.6384,1.6384,1.6384,1.6384,1.6384,1.6477,1.6853,1.771,1.7644,1.7754,1.8827,1.8483,1.8201,1.8471,1.8363,1.8201,1.7852,1.7699,1.7435,1.6864,1.6742,1.6429,1.5745,1.5786,1.5314,1.3993,1.3941,1.3941,1.3941,1.4283,1.4304,1.3952,1.4635,1.4821,1.4469,1.4935,1.5416,1.5834,1.614,1.6888,0.861,0.983,1.0781,1.1437,1.2441,0.0,1.3921,1.4425,0.0,1.5417,0.0,0.0,0.0,0.0,0.0,0.0,0.0,0.0,0.0,0.0,0.0,0.0,0.0,0.0,0.0,0.0,0.0,0.0,0.0,0.0,2.3078,2.3078,2.3078,2.3078,2.3078,2.2811,2.2175,2.2175,2.2175,2.2163,2.1669,2.1128,2.0461,1.9342,1.8636,1.8217,1.7413,1.6867,1.654,1.6452,1.6384,1.6384,1.6384,1.6384,1.6384,1.6384,1.6384,1.6384,1.6384,1.6384,1.6384,1.6384,1.6384,1.6384,1.6384,1.6384,1.6384,1.6384,1.6384,1.6384,1.6384,1.6384,1.6384,1.6384,1.6384,1.6384,1.6384,1.6797,1.7146,1.7257,1.7699,1.8267,1.8881,1.8483,1.8471,1.954,1.9239,1.9081,1.954,1.9186,1.8655,1.8038,1.7501,1.6774,1.5776,1.5714,1.5475,1.4925,1.4894,1.4894,1.4894,1.4925,1.4935,1.4894,1.4966,1.4976,1.4945,1.5411,1.5693,1.5758,1.7245,1.7706,0.8236,0.9642,1.0919,1.1864,1.3182,0.0,0.0,1.5254,1.6158,1.7074,1.7426,0.0,0.0,0.0,0.0,0.0,0.0,0.0,0.0,0.0,0.0,0.0,0.0,0.0,0.0,0.0,0.0,0.0,0.0,0.0,2.3053,2.2811,2.2623,2.2623,2.2517,2.2043,2.1186,2.1091,2.0665,1.9977,2.0102,2.0036,1.9716,1.8276,1.7539,1.736,1.6863,1.6539,1.6384,1.6384,1.6384,1.6384,1.6384,1.6384,1.6384,1.6384,1.6384,1.6384,1.6384,1.6384,1.6384,1.6384,1.6384,1.6384,1.6384,1.6384,1.6384,1.6384,1.6384,1.6384,1.6384,1.6384,1.6384,1.6384,1.6384,1.6384,1.6384,1.6534,1.6909,1.76,1.7918,1.8417,1.9331,1.9331,1.9319,1.9747,1.9656,1.9448,1.9291,1.9146,1.8762,1.8147,1.7875,1.7741,1.7733,1.7398,1.7092,1.6957,1.5722,1.4997,1.4997,1.5574,1.5806,1.5569,1.6436,1.6791,1.6491,1.6937,1.7398,1.7787,1.8012,1.8365,0.8298,0.9742,1.1194,1.2178,0.0,0.0,1.5279,1.612,1.7061,1.8003,1.8342,0.0,0.0,0.0,0.0,0.0,0.0,0.0,0.0,0.0,0.0,0.0,0.0,0.0,0.0,0.0,0.0,0.0,0.0,0.0,0.0,2.2259,2.1988,2.1745,2.1666,2.1069,1.9995,1.9941,1.9349,1.8362,1.8545,1.862,1.8599,1.735,1.6829,1.6819,1.6508,1.6384,1.6384,1.6384,1.6384,1.6384,1.6384,1.6384,1.6384,1.6384,1.6384,1.6384,1.6384,1.6384,1.6384,1.6384,1.6384,1.6384,1.6384,1.6384,1.6384,1.6384,1.6384,1.6384,1.6384,1.6384,1.6384,1.6384,1.6384,1.6431,1.6637,1.6807,1.7245,1.8213,1.8525,1.8898,1.9695,1.9798,1.9798,1.9798,1.9798,1.9656,1.9291,1.9239,1.9028,1.8375,1.8038,1.8147,1.8655,1.8429,1.8309,1.8309,1.6826,1.5988,1.5988,1.6611,1.6857,1.6577,1.7588,1.7921,1.7629,1.7921,1.824,1.8472,1.8412,1.8613,0.8949,1.0321,1.1726,0.0,0.0,0.0,1.6145,1.6974,1.7539,1.8103,0.0,1.9196,1.971,0.0,0.0,0.0,0.0,0.0,0.0,0.0,0.0,0.0,0.0,0.0,0.0,0.0,0.0,0.0,0.0,0.0,0.0,2.1481,2.1232,2.0628,2.0571,1.9983,1.8693,1.8693,1.8351,1.7657,1.7193,1.6977,1.6966,1.6581,1.6384,1.6384,1.6384,1.6384,1.6384,1.6384,1.6384,1.6384,1.6384,1.6384,1.6384,1.6384,1.6384,1.6384,1.6384,1.6384,1.6384,1.6384,1.6384,1.6384,1.6384,1.6384,1.6384,1.6384,1.6384,1.6384,1.6384,1.6384,1.6384,1.6384,1.6384,1.6534,1.7101,1.7644,1.8267,1.8881,1.9448,1.9798,1.9798,1.9798,1.9798,1.9798,1.9798,1.9798,1.9798,1.9798,1.954,1.8815,1.7984,1.7699,1.8093,1.8483,1.8709,1.8709,1.8321,1.8093,1.8093,1.8093,1.8093,1.8093,1.8093,1.8093,1.8093,1.8093,1.7829,1.7347,1.846,1.841,0.8644,1.0174,0.0,1.2298,0.0,0.0,0.0,1.6974,0.0,0.0,0.0,1.9623,1.9773,0.0,0.0,0.0,0.0,0.0,0.0,0.0,0.0,0.0,0.0,0.0,0.0,0.0,0.0,0.0,0.0,0.0,0.0,2.0482,2.0053,1.941,1.9285,1.8717,1.7639,1.7579,1.7256,1.6777,1.6643,1.6746,1.6966,1.6581,1.6384,1.6384,1.6384,1.6384,1.6384,1.6384,1.6384,1.6384,1.6384,1.6384,1.6384,1.6384,1.6384,1.6384,1.6384,1.6384,1.6384,1.6384,1.6384,1.6384,1.6384,1.6384,1.6384,1.6384,1.6384,1.6384,1.6384,1.6384,1.6384,1.6384,1.6384,1.6534,1.7101,1.7313,1.7754,1.8815,1.9146,1.9344,1.9747,1.9798,1.9798,1.9798,1.9798,1.9798,1.9798,1.9798,1.9695,1.9488,1.9267,1.915,1.9267,1.9436,1.9488,1.9488,1.9371,1.8951,1.8147,1.8483,1.8709,1.8709,1.9109,1.9319,1.9319,1.9319,1.901,1.8509,1.8832,1.8635,0.9629,1.1191,0.0,1.3314,1.4965,1.6697,1.7363,0.0,0.0,0.0,0.0,0.0,0.0,0.0,0.0,0.0,0.0,0.0,0.0,0.0,0.0,0.0,0.0,0.0,0.0,0.0,0.0,0.0,0.0,0.0,0.0,1.9282,1.8841,1.8261,1.8154,1.7687,1.6899,1.6796,1.6643,1.6384,1.6384,1.6519,1.6767,1.6498,1.6384,1.6384,1.6384,1.6384,1.6384,1.6384,1.6384,1.6384,1.6384,1.6384,1.6384,1.6384,1.6384,1.6384,1.6384,1.6384,1.6384,1.6384,1.6384,1.6384,1.6384,1.6384,1.6384,1.6384,1.6384,1.6384,1.6384,1.6384,1.6431,1.6694,1.6534,1.6705,1.771,1.7699,1.7918,1.9069,1.9291,1.9396,1.9747,1.9798,1.9798,1.9798,1.9798,1.9798,1.9798,1.9798,1.9798,1.9798,1.9798,1.9798,1.9798,1.9798,1.9798,1.9798,1.9798,1.9488,1.878,1.9121,1.9291,1.9291,1.9656,1.9798,1.9798,1.9798,1.9422,1.8706,1.8883,1.8493,1.1127,0.0,0.0,1.4702,1.5743,0.0,1.862,0.0,1.9233,0.0,0.0,0.0,0.0,0.0,0.0,0.0,0.0,0.0,0.0,0.0,0.0,0.0,0.0,0.0,0.0,0.0,0.0,0.0,0.0,0.0,0.0,1.8038,1.7754,1.7157,1.7146,1.6899,1.6384,1.6384,1.6384,1.6384,1.6384,1.6384,1.6384,1.6384,1.6384,1.6384,1.6384,1.6384,1.6384,1.6384,1.6384,1.6384,1.6384,1.6384,1.6384,1.6384,1.6384,1.6384,1.6384,1.6384,1.6384,1.6384,1.6384,1.6384,1.6384,1.6384,1.6384,1.6384,1.6384,1.6431,1.6488,1.6431,1.6534,1.7213,1.6899,1.692,1.8614,1.8548,1.8525,1.9592,1.9798,1.9798,1.9798,1.9798,1.9798,1.9798,1.9798,1.9798,1.9798,1.9798,1.9798,1.9798,1.9798,1.9798,1.9798,1.9798,1.9798,1.9798,1.9798,1.9798,1.9798,1.9798,1.9798,1.9798,1.9798,1.9798,1.9798,1.9798,1.9258,1.8216,1.8719,1.8078,0.9856,1.164,0.0,0.0,1.6045,1.8053,1.8795,1.9346,1.966,0.0,0.0,0.0,0.0,0.0,0.0,0.0,0.0,0.0,0.0,0.0,0.0,0.0,0.0,0.0,0.0,0.0,0.0,0.0,0.0,0.0,1.7424,1.7368,1.7168,1.6591,1.6591,1.6545,1.6384,1.6384,1.6384,1.6384,1.6384,1.6384,1.6384,1.6384,1.6384,1.6384,1.6384,1.6384,1.6384,1.6384,1.6384,1.6384,1.6384,1.6384,1.6384,1.6384,1.6384,1.6384,1.6384,1.6384,1.6384,1.6384,1.6384,1.6384,1.6384,1.6384,1.6384,1.6384,1.6384,1.6488,1.6899,1.674,1.6761,1.8278,1.782,1.7379,1.8709,1.8881,1.9028,1.9643,1.9798,1.9798,1.9798,1.9798,1.9798,1.9798,1.9798,1.9798,1.9798,1.9798,1.9798,1.9798,1.9798,1.9798,1.9798,1.9798,1.9798,1.9798,1.9798,1.9798,1.9798,1.9798,1.9798,1.9798,1.9798,1.9798,1.9798,1.9798,1.9258,1.8204,1.8329,1.7714,0.0,0.0,0.0,1.4928,0.0,0.0,1.8844,1.9233,1.9497,0.0,0.0,0.0,0.0,0.0,0.0,0.0,0.0,0.0,0.0,0.0,0.0,0.0,0.0,0.0,0.0,0.0,0.0,0.0,0.0,1.7435,1.6842,1.6797,1.6694,1.6431,1.6384,1.6384,1.6384,1.6384,1.6384,1.6384,1.6384,1.6384,1.6384,1.6384,1.6384,1.6384,1.6384,1.6384,1.6384,1.6384,1.6384,1.6384,1.6384,1.6384,1.6384,1.6384,1.6384,1.6384,1.6384,1.6384,1.6384,1.6384,1.6384,1.6384,1.6384,1.6384,1.6431,1.6684,1.6786,1.6899,1.749,1.7446,1.7512,1.8721,1.8093,1.7589,1.9069,1.9198,1.9146,1.9708,1.9798,1.9798,1.9798,1.9798,1.9798,1.9798,1.9798,1.9798,1.9798,1.9798,1.9798,1.9798,1.9798,1.9798,1.9798,1.9798,1.9798,1.9798,1.9798,1.9798,1.9798,1.9798,1.9798,1.9798,1.9798,1.9798,1.9798,1.9547,1.9007,1.8191,1.794,1.7338,0.0,0.0,1.3699,1.5844,1.6886,0.0,1.853,1.8894,1.9145,0.0,0.0,0.0,0.0,0.0,0.0,0.0,0.0,0.0,0.0,0.0,0.0,0.0,0.0,0.0,0.0,0.0,0.0,0.0,0.0,1.7056,1.6431,1.6488,1.6488,1.6384,1.6384,1.6384,1.6384,1.6384,1.6384,1.6384,1.6384,1.6384,1.6384,1.6384,1.6384,1.6384,1.6384,1.6384,1.6384,1.6384,1.6384,1.6384,1.6384,1.6384,1.6384,1.6384,1.6384,1.6384,1.6384,1.6384,1.6384,1.6384,1.6488,1.6534,1.6534,1.6591,1.6807,1.7213,1.7368,1.7479,1.8093,1.8201,1.8267,1.8975,1.8309,1.7907,1.9475,1.9448,1.9291,1.9695,1.9798,1.9798,1.9798,1.9798,1.9798,1.9798,1.9798,1.9798,1.9798,1.9798,1.9798,1.9798,1.9798,1.9798,1.9798,1.9798,1.9798,1.9798,1.9798,1.9798,1.9798,1.9798,1.9798,1.9798,1.9798,1.9748,1.961,1.9221,1.8694,1.8053,1.7601,1.7074,0.0,0.0,1.3611,0.0,1.6597,1.7426,0.0,0.0,0.0,0.0,0.0,0.0,0.0,0.0,0.0,0.0,0.0,0.0,0.0,0.0,0.0,0.0,0.0,0.0,0.0,0.0,0.0,0.0,1.7699,1.7501,1.6431,1.6842,1.6899,1.6431,1.6384,1.6384,1.6384,1.6384,1.6384,1.6384,1.6384,1.6384,1.6384,1.6384,1.6384,1.6384,1.6384,1.6384,1.6384,1.6384,1.6384,1.6384,1.6384,1.6384,1.6384,1.6384,1.6384,1.6384,1.6384,1.6384,1.6384,1.6384,1.6684,1.7101,1.7101,1.7435,1.7875,1.7984,1.7984,1.8093,1.8709,1.8483,1.8363,1.9436,1.9239,1.8975,1.9643,1.9747,1.9695,1.9798,1.9798,1.9798,1.9798,1.9798,1.9798,1.9798,1.9798,1.9798,1.9798,1.9798,1.9798,1.9798,1.9798,1.9798,1.9798,1.9798,1.9798,1.9798,1.9798,1.9798,1.9798,1.9798,1.9798,1.9798,1.9798,1.9497,1.8857,1.897,1.8505,1.7488,1.7413,1.7074,0.9352,1.1186,1.3135,0.0,1.5844,1.6597,1.7237,0.0,0.0,0.0,0.0,0.0,0.0,0.0,0.0,0.0,0.0,0.0,0.0,0.0,0.0,0.0,0.0,0.0,0.0,0.0,0.0,0.0,1.7929,1.771,1.6899,1.7045,1.6944,1.6441,1.6384,1.6384,1.6384,1.6384,1.6384,1.6384,1.6384,1.6384,1.6384,1.6384,1.6384,1.6384,1.6384,1.6384,1.6384,1.6384,1.6384,1.6384,1.6384,1.6384,1.6384,1.6384,1.6384,1.6384,1.6384,1.6591,1.6842,1.6842,1.7224,1.7699,1.7699,1.7875,1.8147,1.8483,1.859,1.875,1.9291,1.9226,1.9162,1.9695,1.9604,1.95,1.9747,1.9798,1.9798,1.9798,1.9798,1.9798,1.9798,1.9798,1.9798,1.9798,1.9798,1.9798,1.9798,1.9798,1.9798,1.9798,1.9798,1.9798,1.9798,1.9798,1.9798,1.9798,1.9798,1.9798,1.9798,1.9798,1.9798,1.9798,1.9798,1.9648,1.9321,1.8807,1.8317,1.7827,1.7187,1.6936,0.0,0.0,1.2178,1.3835,1.4764,1.5567,0.0,0.0,0.0,0.0,0.0,0.0,0.0,0.0,0.0,0.0,0.0,0.0,0.0,0.0,0.0,0.0,0.0,0.0,0.0,0.0,0.0,0.0,1.8147,1.7875,1.7056,1.6982,1.6772,1.6265,1.6094,1.6022,1.6022,1.6146,1.6208,1.6208,1.6208,1.626,1.6374,1.6136,1.6094,1.6208,1.6332,1.6384,1.6384,1.6384,1.6384,1.6384,1.6384,1.6384,1.6384,1.6384,1.6488,1.6581,1.6581,1.6955,1.7424,1.7424,1.782,1.8321,1.8321,1.8417,1.8632,1.9081,1.9186,1.9291,1.9708,1.9798,1.9798,1.9798,1.9798,1.9798,1.9798,1.9798,1.9798,1.9798,1.9798,1.9798,1.9798,1.9798,1.9798,1.9798,1.9798,1.9798,1.9798,1.9798,1.9798,1.9798,1.9798,1.9798,1.9798,1.9798,1.9798,1.9798,1.9798,1.9798,1.9798,1.9798,1.9798,1.9798,1.9798,1.971,1.9522,1.8631,1.8129,1.7978,1.6986,1.6748,0.0,0.9309,0.0,1.2115,0.0,0.0,0.0,0.0,0.0,0.0,0.0,0.0,0.0,0.0,0.0,0.0,0.0,0.0,0.0,0.0,0.0,0.0,0.0,0.0,0.0,0.0,0.0,0.0,1.8363,1.7886,1.6488,1.6492,1.6299,1.5776,1.5297,1.507,1.507,1.5504,1.5732,1.5732,1.5732,1.5949,1.6353,1.5473,1.5308,1.5753,1.6187,1.6384,1.6384,1.6384,1.6384,1.6384,1.6384,1.6384,1.6384,1.6384,1.674,1.7146,1.7146,1.7534,1.8038,1.8038,1.8483,1.8934,1.8934,1.9291,1.9695,1.9747,1.9759,1.9747,1.9798,1.9798,1.9798,1.9798,1.9798,1.9798,1.9798,1.9798,1.9798,1.9798,1.9798,1.9798,1.9798,1.9798,1.9798,1.9798,1.9798,1.9798,1.9798,1.9798,1.9798,1.9798,1.9798,1.9798,1.9798,1.9798,1.9798,1.9798,1.9798,1.9798,1.9798,1.9798,1.9798,1.9798,1.9798,1.9459,1.8769,1.8392,1.794,1.7413,1.6798,1.6534,0.0,0.0,0.0,1.1374,1.2441,1.3283,0.0,0.0,0.0,0.0,0.0,0.0,0.0,0.0,0.0,0.0,0.0,0.0,0.0,0.0,0.0,0.0,0.0,0.0,0.0,0.0,0.0,0.0,0.0,1.779,1.6922,1.6495,1.6107,1.57,1.5238,1.4997,1.4997,1.5163,1.5245,1.5245,1.5245,1.5328,1.5484,1.5152,1.509,1.5256,1.5421,1.5494,1.5494,1.5494,1.5494,1.5525,1.5815,1.5962,1.6031,1.6674,1.7082,1.7326,1.7652,1.8147,1.8655,1.8655,1.9081,1.95,1.95,1.9643,1.9798,1.9798,1.9798,1.9798,1.9798,1.9798,1.9798,1.9798,1.9798,1.9798,1.9798,1.9798,1.9798,1.9798,1.9798,1.9798,1.9798,1.9798,1.9798,1.9798,1.9798,1.9798,1.9798,1.9798,1.9798,1.9798,1.9798,1.9798,1.9798,1.9798,1.9798,1.9798,1.9798,1.9798,1.9798,1.9798,1.9798,1.9798,1.9798,1.951,1.892,1.8442,1.7928,1.7363,1.6785,1.6773,0.7846,0.0,0.0,0.0,0.0,1.2002,0.0,0.0,0.0,0.0,0.0,0.0,0.0,0.0,0.0,0.0,0.0,0.0,0.0,0.0,0.0,0.0,0.0,0.0,0.0,0.0,0.0,0.0,0.0,0.0,1.6825,1.618,1.5676,1.5284,1.4985,1.4744,1.4694,1.4799,1.4872,1.4769,1.4769,1.4852,1.4987,1.4676,1.4624,1.4759,1.4604,1.4707,1.4997,1.4997,1.5091,1.5279,1.5595,1.5827,1.6012,1.6693,1.7096,1.7345,1.7734,1.8227,1.8727,1.8727,1.9092,1.9547,1.9547,1.966,1.9798,1.9798,1.9798,1.9798,1.9798,1.9798,1.9798,1.9798,1.9798,1.9798,1.9798,1.9798,1.9798,1.9798,1.9798,1.9798,1.9798,1.9798,1.9798,1.9798,1.9798,1.9798,1.9798,1.9798,1.9798,1.9798,1.9798,1.9798,1.9798,1.9798,1.9798,1.9798,1.9798,1.9798,1.9798,1.9798,1.9798,1.9798,1.9798,1.9459,1.8744,1.838,1.7953,1.7438,1.681,1.6773,0.0,0.0,0.0,0.0,0.0,0.0,0.0,0.0,0.0,0.0,0.0,0.0,0.0,0.0,0.0,0.0,0.0,0.0,0.0,0.0,0.0,0.0,0.0,0.0,0.0,0.0,0.0,0.0,1.6764,1.6227,1.6327,1.5532,1.4912,1.4441,1.443,1.4291,1.402,1.4478,1.4552,1.4283,1.4283,1.4521,1.4925,1.4024,1.3859,1.4262,1.3807,1.4128,1.4956,1.4956,1.5257,1.5658,1.568,1.6003,1.6371,1.6394,1.6814,1.7315,1.7327,1.769,1.8204,1.8204,1.8568,1.8958,1.902,1.9384,1.9798,1.9798,1.9798,1.9798,1.9798,1.9798,1.9798,1.9798,1.9798,1.9798,1.9798,1.9798,1.9798,1.9798,1.9798,1.9798,1.9798,1.9798,1.9798,1.9798,1.9798,1.9798,1.9798,1.9798,1.9798,1.9798,1.9798,1.9798,1.9798,1.9798,1.9798,1.9798,1.9798,1.9798,1.9798,1.9798,1.9798,1.9798,1.9798,1.9284,1.8216,1.8216,1.8003,1.7564,1.6848,1.6522,0.7534,0.0,0.0,0.0,0.0,0.0,0.0,0.0,0.0,0.0,0.0,0.0,0.0,0.0,0.0,0.0,0.0,0.0,0.0,0.0,0.0,0.0,0.0,0.0,0.0,0.0,0.0,0.0,1.6873,1.6549,1.6593,1.5875,1.5154,1.443,1.4523,1.4523,1.4291,1.4421,1.4439,1.4381,1.4153,1.4131,1.4247,1.383,1.3683,1.3796,1.3672,1.3957,1.4585,1.4585,1.4633,1.4847,1.5527,1.5856,1.6031,1.6787,1.7183,1.7421,1.7817,1.8049,1.8204,1.8204,1.8304,1.8505,1.8907,1.9384,1.9798,1.9798,1.9798,1.9798,1.9798,1.9798,1.9798,1.9798,1.9798,1.9798,1.9798,1.9798,1.9798,1.9798,1.9798,1.9798,1.9798,1.9798,1.9798,1.9798,1.9798,1.9798,1.9798,1.9798,1.9798,1.9798,1.9798,1.9798,1.9798,1.9798,1.9798,1.9798,1.9798,1.9798,1.9798,1.9798,1.9798,1.9798,1.9798,1.9397,1.8568,1.8568,1.7965,1.681,1.6609,1.6522,0.8522,0.0,0.0,0.0,0.0,0.0,0.0,1.0819,0.0,0.0,0.0,0.0,0.0,0.0,0.0,0.0,0.0,0.0,0.0,0.0,0.0,0.0,0.0,0.0,0.0,1.66,1.669,1.7144,1.6778,1.6479,1.6479,1.6088,1.5647,1.5153,1.5244,1.5244,1.4994,1.4994,1.4949,1.4823,1.464,1.4547,1.4558,1.4398,1.4258,1.4222,1.4222,1.4408,1.4697,1.4915,1.4994,1.5028,1.5591,1.5918,1.6181,1.6773,1.7004,1.7074,1.7388,1.7501,1.7501,1.7501,1.7664,1.7928,1.8242,1.8807,1.9409,1.971,1.9798,1.9798,1.9798,1.9798,1.9798,1.9798,1.9798,1.9798,1.9798,1.9798,1.9798,1.9798,1.9798,1.9798,1.9798,1.9798,1.9798,1.9798,1.9798,1.9798,1.9798,1.9798,1.9798,1.9798,1.9798,1.9798,1.9798,1.9798,1.9798,1.9798,1.9798,1.9798,1.9798,1.9862,1.9914,1.9798,1.9862,1.9648,1.9158,1.8719,1.7815,1.6522,1.6522,1.6522,0.0,0.0,0.0,0.0,0.0,0.0,1.1482,1.1044,1.0532,0.0,0.0,0.0,0.0,0.0,0.0,0.0,0.0,0.0,0.0,0.0,0.0,0.0,0.0,0.0,1.6245,1.598,1.6132,1.6935,1.6473,1.6127,1.6145,1.6145,1.6182,1.62,1.6188,1.61,1.5844,1.5832,1.57,1.5478,1.5478,1.5389,1.5355,1.5311,1.5232,1.5108,1.5108,1.5153,1.5198,1.5623,1.5788,1.5788,1.5876,1.6151,1.6522,1.6522,1.6522,1.6522,1.6522,1.6522,1.6522,1.6522,1.6861,1.73,1.7363,1.794,1.8706,1.9422,1.9623,1.9623,1.9623,1.9648,1.9685,1.9685,1.9748,1.9798,1.9798,1.9798,1.9798,1.9798,1.9798,1.9798,1.9798,1.9798,1.9798,1.9798,1.9798,1.9798,1.9798,1.9798,1.9798,1.9798,1.9798,1.9798,1.9798,1.9798,1.9798,1.9798,1.9798,1.9798,1.9798,2.0029,2.008,1.9901,2.0029,1.9851,1.9434,1.848,1.7501,1.6522,1.6522,1.6522,0.0,0.0,0.0,0.0,0.0,0.0,0.9996,1.0022,1.0214,0.0,0.0,0.0,0.0,0.0,0.0,0.0,0.0,0.0,0.0,0.0,0.0,0.0,0.0,0.0,1.5657,1.5619,1.562,1.5826,1.5711,1.567,1.579,1.5856,1.5932,1.6032,1.6144,1.6188,1.6144,1.6144,1.61,1.6057,1.5844,1.57,1.57,1.5433,1.5311,1.5266,1.5142,1.5322,1.5656,1.5744,1.5788,1.5832,1.6194,1.6423,1.6522,1.6522,1.6522,1.6522,1.6522,1.6522,1.6522,1.6522,1.6597,1.6773,1.7237,1.7501,1.7765,1.8355,1.8518,1.8518,1.8518,1.8719,1.892,1.892,1.9371,1.9798,1.9798,1.9798,1.9798,1.9798,1.9798,1.9798,1.9798,1.9798,1.9798,1.9798,1.9798,1.9798,1.9798,1.9798,1.9798,1.9798,1.9798,1.9798,1.9798,1.9798,1.9798,1.9798,1.9798,1.9798,1.9798,2.0144,2.041,2.0549,2.0067,1.8981,1.7162,1.6948,1.6735,1.6522,1.6522,1.6522,0.0,0.0,0.0,1.2378,0.0,0.0,0.0,0.0,1.0413,0.0,0.0,0.0,0.0,0.0,0.0,0.0,0.0,0.0,0.0,0.0,0.0,0.0,0.0,0.0,1.5016,1.5042,1.5249,1.5742,1.5819,1.5747,1.5594,1.6075,1.6414,1.6565,1.6674,1.6722,1.6693,1.662,1.662,1.6693,1.6509,1.638,1.6337,1.6151,1.602,1.5888,1.5812,1.5944,1.6151,1.6151,1.6151,1.6151,1.6423,1.6522,1.6522,1.6522,1.6522,1.6522,1.6522,1.6522,1.6522,1.6522,1.6522,1.6572,1.6861,1.7149,1.7438,1.7714,1.799,1.8242,1.8417,1.8455,1.8593,1.9133,1.9535,1.9798,1.9798,1.9798,1.9798,1.9798,1.9798,1.9798,1.9798,1.9798,1.9798,1.9798,1.9798,1.9798,1.9798,1.9798,1.9798,1.9798,1.9798,1.9798,1.9798,1.9798,1.9798,1.9798,1.9798,1.9798,1.9798,2.0296,2.0612,2.0699,2.0118,1.8719,1.6522,1.6522,1.6522,1.6522,1.6522,1.6522,0.0,0.0,0.0,0.0,0.0,1.2328,0.0,0.0,0.0,0.0,0.0,0.0,0.0,0.0,0.0,0.0,0.0,0.0,0.0,0.0,0.0,0.0,0.0,0.0,1.4232,1.4167,1.4524,1.5575,1.5366,1.5191,1.519,1.5878,1.6442,1.6718,1.693,1.7036,1.7042,1.7034,1.7044,1.7157,1.7044,1.696,1.6876,1.6876,1.6748,1.6565,1.6522,1.6522,1.6522,1.6522,1.6522,1.6522,1.6522,1.6522,1.6522,1.6522,1.6522,1.6522,1.6522,1.6522,1.6522,1.6522,1.6522,1.6522,1.6522,1.6848,1.7269,1.7269,1.7584,1.7987,1.8264,1.8125,1.8091,1.8957,1.9497,1.985,1.9965,1.9965,1.9965,1.9965,1.9965,1.9965,1.9965,1.9862,1.985,1.9965,1.9965,1.9965,1.9965,1.9965,1.9965,1.9965,1.9965,1.9965,1.9965,1.9862,1.985,1.9965,1.985,1.9798,1.9798,2.0385,2.0699,2.0699,1.9797,1.8434,1.6637,1.6552,1.6565,1.665,1.6964,1.6993,0.0,0.0,0.0,0.0,1.4139,0.0,0.0,0.0,0.0,0.0,0.0,0.0,0.0,0.0,0.0,0.0,0.0,0.0,0.0,0.0,0.0,0.0,0.0,0.0,0.0,1.2625,1.2794,1.3965,1.2799,1.2596,1.393,1.4101,1.443,1.498,1.5958,1.6494,1.648,1.684,1.7002,1.7002,1.696,1.6918,1.6876,1.6761,1.6761,1.6833,1.6607,1.6577,1.6675,1.6534,1.6522,1.6522,1.6522,1.6522,1.6522,1.6522,1.6522,1.6522,1.6522,1.6522,1.6522,1.6522,1.6522,1.6522,1.6522,1.6615,1.6777,1.6777,1.6901,1.7038,1.7076,1.6921,1.6735,1.6861,1.838,1.9965,2.0485,2.0599,2.0599,2.0599,2.0599,2.0599,2.0599,2.0169,1.9965,2.0549,2.0599,2.0599,2.0599,2.0599,2.0599,2.0599,2.0599,2.0599,2.0599,2.0118,2.0016,2.0549,2.0118,1.9798,1.9798,2.0385,2.0699,2.0699,1.8591,1.7375,1.7115,1.6693,1.6735,1.7157,1.8626,1.8817,0.0,0.0,0.0,0.0,0.0,0.0,1.2253,0.0,1.1695,0.0,0.0,0.0,0.0,0.0,0.0,0.0,0.9751,0.0,0.0,0.0,0.0,0.0,0.0,0.0,0.0,1.2984,1.2703,1.1823,1.2432,1.3134,1.3754,1.3792,1.3903,1.4183,1.5049,1.564,1.5866,1.6308,1.6553,1.666,1.6847,1.696,1.696,1.6846,1.6803,1.6761,1.6663,1.662,1.6577,1.662,1.6565,1.6522,1.6522,1.6522,1.6522,1.6522,1.6522,1.6522,1.6522,1.6522,1.6522,1.6522,1.6522,1.6522,1.6577,1.6675,1.6718,1.6803,1.6846,1.696,1.7323,1.7115,1.7102,1.847,1.9561,2.0385,2.0649,2.0699,2.0699,2.0699,2.0699,2.0699,2.0699,2.0485,2.0385,2.0649,2.0699,2.0699,2.0699,2.0699,2.0699,2.0699,2.0699,2.0699,2.0699,2.0498,2.0435,2.0699,2.0435,2.0334,2.0334,2.0549,2.1215,2.236,2.1411,2.0157,1.864,1.8458,1.8472,1.8679,1.9369,1.9442,1.561,0.0,0.0,0.0,0.0,0.0,0.0,0.0,0.0,0.0,0.0,0.0,0.0,0.0,0.0,0.0,0.0,0.9772,0.0,0.0,0.0,0.0,0.0,0.0,0.0,1.294,1.223,1.0432,1.1307,1.2472,1.3742,1.3789,1.3788,1.3791,1.4445,1.498,1.5238,1.5711,1.6009,1.6114,1.6397,1.6496,1.6496,1.6622,1.6616,1.6574,1.6697,1.6705,1.665,1.6705,1.6705,1.6607,1.6723,1.6765,1.6765,1.6607,1.6565,1.665,1.6723,1.6837,1.6909,1.6752,1.6837,1.6964,1.706,1.7115,1.7157,1.7115,1.724,1.7393,1.7598,1.7475,1.7741,1.967,2.0813,2.1444,2.1118,2.0898,2.0699,2.0699,2.0699,2.0699,2.0699,2.0699,2.0699,2.0699,2.0699,2.0699,2.0699,2.0699,2.0699,2.0699,2.0699,2.0699,2.0699,2.0699,2.0699,2.0699,2.0699,2.0699,2.0699,2.0699,2.1348,2.277,2.2623,2.159,1.969,1.969,1.969,1.969,1.969,1.9617,0.0,0.0,0.0,1.4076,0.0,0.0,0.0,0.0,1.2771,0.0,0.0,0.0,0.0,0.0,0.0,0.0,0.0,0.0,0.0,0.0,0.0,0.0,0.0,0.0,0.0,1.1646,1.0729,0.0,0.8325,0.9068,1.3574,1.3794,1.3784,1.3788,1.4324,1.4611,1.4624,1.5077,1.5337,1.5337,1.5286,1.5261,1.5287,1.5785,1.6109,1.6255,1.6687,1.6918,1.696,1.6918,1.6876,1.6918,1.7323,1.7475,1.7393,1.6876,1.6761,1.696,1.731,1.7733,1.7947,1.7422,1.7626,1.8066,1.8066,1.8159,1.8187,1.7787,1.8028,1.8266,1.7434,1.7598,1.8207,1.9211,2.1528,2.3231,2.2267,2.1348,2.0699,2.0699,2.0699,2.0699,2.0699,2.0699,2.0699,2.0699,2.0699,2.0699,2.0699,2.0699,2.0699,2.0699,2.0699,2.0699,2.0699,2.0699,2.0699,2.0699,2.0699,2.0699,2.0699,2.0699,2.0749,2.0799,2.0167,1.9765,1.969,1.969,1.969,1.969,1.969,1.942,0.0,0.0,1.4553,1.421,0.0,0.0,0.0,0.0,0.0,0.0,0.0,0.0,0.0,0.0,0.0,0.0,0.0,0.0,0.0,0.0,0.0,0.0,0.0,0.0,0.0,0.0,0.0,1.0738,0.971,0.9818,1.1406,1.2961,1.3802,1.3821,1.3971,1.4198,1.4386,1.4927,1.5278,1.5488,1.5874,1.6064,1.6064,1.6143,1.6477,1.6932,1.7097,1.7369,1.772,1.7787,1.7774,1.772,1.7841,1.7935,1.7988,1.7733,1.7639,1.772,1.7841,1.7987,1.8066,1.7907,1.7947,1.8106,1.8212,1.8266,1.8305,1.8226,1.8344,1.85,1.8461,1.8383,1.8782,2.0524,2.1564,2.2366,2.2966,2.286,2.2634,2.2634,2.2081,2.186,2.2498,2.1527,2.0699,2.0699,2.0699,2.0699,2.0699,2.0699,2.0699,2.0699,2.0699,2.1215,2.2498,2.1444,2.0699,2.0699,2.0699,2.0699,2.0699,1.9232,1.8375,1.8375,1.8152,1.8054,1.8054,1.9184,1.969,1.969,1.969,1.9603,1.4588,1.4461,0.0,1.4154,1.3629,0.0,1.2707,0.0,0.0,0.0,0.0,0.0,0.0,0.0,0.0,0.0,0.0,0.0,0.0,0.8286,0.0,0.0,0.0,0.0,0.0,0.0,0.0,1.1198,1.0626,1.0648,0.0,1.2993,1.3871,1.3992,1.4006,1.4149,1.4479,1.4818,1.5095,1.5338,1.5711,1.5921,1.5887,1.6,1.6306,1.6717,1.6903,1.7348,1.7879,1.7971,1.8096,1.8277,1.8394,1.8525,1.8539,1.8277,1.8277,1.8433,1.8238,1.838,1.8612,1.838,1.8458,1.8703,1.8755,1.8808,1.8808,1.8745,1.8822,1.8884,1.8745,1.8707,1.9147,2.0764,2.1269,2.1755,2.3284,2.3595,2.3595,2.3595,2.3098,2.286,2.3508,2.2543,2.1492,2.0799,2.0699,2.0934,2.1623,2.1718,2.1492,2.0749,2.0699,2.1215,2.2452,2.1444,2.0699,2.0699,2.0699,2.0332,1.9507,1.7996,1.7199,1.7199,1.7199,1.7199,1.7199,1.8869,1.969,1.969,1.969,1.969]},{"header":{"parameterUnit":"m.s-1","parameterCategory":1,"la1":30.6,"la2":29.2853,"lo1":-89.7004,"lo2":-87.6739,"dy":0.0162,"dx":0.0183,"nx":112,"ny":82,"refTime":"2024-09-27T18:00:00:Z","depth":0,"parameterNumber":3,"parameterNumberName":"V-component_of_WINDS"},"data":[0.0,0.0,0.0,0.0,0.0,0.0,0.0,0.0,0.0,0.0,0.0,0.0,0.0,0.0,0.0,0.0,0.0,0.0,0.0,0.0,0.0,0.0,0.0,0.0,0.0,0.0,0.0,0.0,0.0,0.0,0.0,0.0,0.0,0.0,0.0,0.0,0.0,0.0,0.0,0.0,0.0,0.0,0.0,0.0,0.0,0.0,0.0,0.0,0.0,0.0,0.0,0.0,0.0,0.0,0.0,0.0,0.0,0.0,0.0,0.0,0.0,0.0,0.0,0.0,0.0,0.0,0.0,0.0,0.0,0.0,0.0,0.0,0.0,0.0,0.0,0.0,0.0,0.0,0.0,0.0,0.0,0.0,0.0,0.0,0.0,0.0,0.0,0.0,0.0,0.0,-0.6091,-0.6846,-0.7609,-0.8021,-0.7979,-0.7479,-0.657,-0.5215,0.0,0.0,0.0,0.0,0.0,0.0,0.0,0.0,0.0,0.0,0.0,0.0,0.0,0.0,0.0,0.0,0.0,0.0,0.0,0.0,0.0,0.0,0.0,0.0,0.0,0.0,0.0,0.0,0.0,0.0,0.0,0.0,0.0,0.0,0.0,0.0,0.0,0.0,0.0,0.0,0.0,0.0,0.0,0.0,0.0,0.0,0.0,0.0,0.0,0.0,0.0,0.0,0.0,0.0,0.0,0.0,0.0,0.0,0.0,0.0,0.0,0.0,0.0,0.0,0.0,0.0,0.0,0.0,0.0,0.0,0.0,0.0,0.0,0.0,0.0,0.0,0.0,0.0,0.0,0.0,0.0,0.0,0.0,0.0,0.0,0.0,0.0,0.0,0.0,0.0,0.0,0.0,0.0,0.0,0.0,0.0,0.0,0.0,0.0,0.0,0.0,0.0,0.0,0.0,-0.6252,-0.7444,-0.7944,-0.8085,-0.7912,-0.731,-0.6477,-0.5431,0.0,0.0,0.0,0.0,0.0,0.0,0.0,0.0,0.0,0.0,0.0,0.0,0.0,0.0,0.0,0.0,0.0,0.0,0.0,0.0,0.0,0.0,0.0,0.0,0.0,0.0,0.0,0.0,0.0,0.0,0.0,0.0,0.0,0.0,0.0,0.0,0.0,0.0,0.0,0.0,0.0,0.0,0.0,0.0,0.0,0.0,0.0,0.0,0.0,0.0,0.0,0.0,0.0,0.0,0.0,0.0,0.0,0.0,0.0,0.0,0.0,0.0,0.0,0.0,0.0,0.0,0.0,0.0,0.0,0.0,0.0,0.0,0.0,0.0,0.0,0.0,0.0,0.0,0.0,0.0,0.0,0.0,0.0,0.0,0.0,0.0,0.0,0.0,0.0,0.0,0.0,0.0,0.0,0.0,0.0,0.0,0.0,0.0,0.0,0.0,0.0,0.0,0.0,-0.6057,-0.6677,-0.785,-0.7993,-0.8002,-0.7919,-0.7227,-0.6391,-0.5456,-0.483,0.0,0.0,0.0,0.0,0.0,0.0,0.0,0.0,0.0,0.0,0.0,0.0,0.0,0.0,0.0,0.0,0.0,0.0,0.0,0.0,0.0,0.0,0.0,0.0,0.0,0.0,0.0,0.0,0.0,0.0,0.0,0.0,0.0,0.0,0.0,0.0,0.0,0.0,0.0,0.0,0.0,0.0,0.0,0.0,0.0,0.0,0.0,0.0,0.0,0.0,0.0,0.0,0.0,0.0,0.0,0.0,0.0,0.0,0.0,0.0,0.0,0.0,0.0,0.0,0.0,0.0,0.0,0.0,0.0,0.0,0.0,0.0,0.0,0.0,0.0,0.0,0.0,0.0,0.0,0.0,0.0,0.0,0.0,0.0,0.0,0.0,0.0,0.0,0.0,0.0,0.0,0.0,0.0,0.0,0.0,0.0,0.0,0.0,0.0,0.0,0.0,0.0,-0.6849,-0.7241,-0.8229,-0.8126,-0.7961,-0.7878,-0.7122,-0.6311,-0.555,-0.4493,0.0,0.0,0.0,0.0,0.0,0.0,0.0,0.0,0.0,0.0,0.0,0.0,0.0,0.0,0.0,0.0,0.0,0.0,0.0,0.0,0.0,0.0,0.0,0.0,0.0,0.0,0.0,0.0,0.0,0.0,0.0,0.0,0.0,0.0,0.0,0.0,0.0,0.0,0.0,0.0,0.0,0.0,0.0,0.0,0.0,0.0,0.0,0.0,0.0,0.0,0.0,0.0,0.0,0.0,0.0,0.0,0.0,0.0,0.0,0.0,0.0,0.0,0.0,0.0,0.0,0.0,0.0,0.0,0.0,0.0,0.0,0.0,0.0,0.0,0.0,0.0,0.0,0.0,0.0,0.0,0.0,0.0,0.0,0.0,0.0,0.0,0.0,0.0,0.0,0.0,0.0,0.0,0.0,0.0,0.0,0.0,0.0,0.0,0.0,0.0,0.0,0.0,-0.7373,-0.7951,-0.8601,-0.8365,-0.8051,-0.7753,-0.6907,-0.6238,-0.5802,-0.4245,0.0,0.0,0.0,0.0,0.0,0.0,0.0,0.0,0.0,0.0,0.0,0.0,0.0,0.0,0.0,0.0,0.0,0.0,0.0,0.0,0.0,0.0,0.0,0.0,0.0,0.0,0.0,0.0,0.0,0.0,0.0,0.0,0.0,0.0,0.0,0.0,0.0,0.0,0.0,0.0,0.0,0.0,0.0,0.0,0.0,0.0,0.0,0.0,0.0,0.0,0.0,0.0,0.0,0.0,0.0,0.0,0.0,0.0,0.0,0.0,0.0,0.0,0.0,0.0,0.0,0.0,0.0,0.0,0.0,0.0,0.0,0.0,0.0,0.0,0.0,0.0,0.0,0.0,0.0,0.0,0.0,0.0,0.0,0.0,0.0,0.0,0.0,0.0,0.0,0.0,0.0,0.0,0.0,0.0,0.0,0.0,0.0,0.0,0.0,0.0,0.0,0.0,-0.7177,-0.7698,0.0,-0.8283,-0.7919,-0.7712,-0.7002,-0.6363,-0.5848,0.0,0.0,0.0,0.0,0.0,0.0,0.0,0.0,0.0,0.0,0.0,0.0,0.0,0.0,0.0,0.0,0.0,0.0,0.0,0.0,0.0,0.0,0.0,0.0,0.0,0.0,0.0,0.0,0.0,0.0,0.0,0.0,0.0,0.0,0.0,0.0,0.0,0.0,0.0,0.0,0.0,0.0,0.0,0.0,0.0,0.0,0.0,0.0,0.0,0.0,0.0,0.0,0.0,0.0,0.0,0.0,0.0,0.0,0.0,0.0,0.0,0.0,0.0,0.0,0.0,0.0,0.0,0.0,0.0,0.0,0.0,0.0,0.0,0.0,0.0,0.0,0.0,0.0,0.0,0.0,0.0,0.0,0.0,0.0,0.0,0.0,0.0,0.0,0.0,0.0,0.0,0.0,0.0,0.0,0.0,0.0,0.0,0.0,0.0,0.0,0.0,0.0,-0.6971,-0.7439,-0.8053,0.0,-0.8521,-0.8077,-0.7919,-0.7175,-0.6427,-0.5848,0.0,0.0,0.0,0.0,0.0,0.0,0.0,0.0,0.0,0.0,0.0,0.0,0.0,0.0,0.0,0.0,0.0,0.0,0.0,0.0,0.0,0.0,0.0,0.0,0.0,0.0,0.0,0.0,0.0,0.0,0.0,0.0,0.0,0.0,0.0,0.0,0.0,0.0,0.0,0.0,0.0,0.0,0.0,0.0,0.0,0.0,0.0,0.0,0.0,0.0,0.0,0.0,0.0,0.0,0.0,0.0,0.0,0.0,0.0,0.0,0.0,0.0,0.0,0.0,0.0,0.0,0.0,0.0,0.0,0.0,0.0,0.0,0.0,0.0,0.0,0.0,0.0,0.0,0.0,0.0,0.0,0.0,0.0,0.0,0.0,0.0,0.0,0.0,0.0,0.0,0.0,0.0,0.0,0.0,0.0,0.0,0.0,0.0,0.0,0.0,0.0,0.0,-0.7425,-0.831,-0.9175,-0.9934,-0.9208,-0.8643,-0.8414,-0.7368,-0.6453,0.0,0.0,0.0,0.0,0.0,0.0,0.0,0.0,0.0,0.0,0.0,0.0,0.0,0.0,0.0,0.0,0.0,0.0,0.0,0.0,0.0,0.0,0.0,0.0,0.0,0.0,0.0,0.0,0.0,0.0,0.0,0.0,0.0,0.0,0.0,0.0,0.0,0.0,0.0,0.0,0.0,0.0,0.0,0.0,0.0,0.0,0.0,0.0,0.0,0.0,0.0,0.0,0.0,0.0,0.0,0.0,0.0,0.0,0.0,0.0,0.0,0.0,0.0,0.0,0.0,0.0,0.0,0.0,0.0,0.0,0.0,0.0,0.0,0.0,0.0,0.0,0.0,0.0,0.0,0.0,0.0,0.0,0.0,0.0,0.0,0.0,0.0,0.0,0.0,0.0,0.0,0.0,0.0,0.0,0.0,0.0,0.0,0.0,0.0,0.0,0.0,0.0,0.0,-0.7665,-0.8425,-0.9211,-0.9992,-0.9518,-0.9079,-0.8975,-0.8101,-0.7165,-0.6269,0.0,0.0,0.0,0.0,0.0,0.0,0.0,0.0,0.0,0.0,0.0,0.0,0.0,0.0,0.0,0.0,0.0,0.0,0.0,0.0,0.0,0.0,0.0,0.0,0.0,0.0,0.0,0.0,0.0,0.0,0.0,0.0,0.0,0.0,0.0,0.0,0.0,0.0,0.0,0.0,0.0,0.0,0.0,0.0,0.0,0.0,0.0,0.0,0.0,0.0,0.0,0.0,0.0,0.0,0.0,0.0,0.0,0.0,0.0,0.0,0.0,0.0,0.0,0.0,0.0,0.0,0.0,0.0,0.0,0.0,0.0,0.0,0.0,0.0,0.0,0.0,0.0,0.0,0.0,0.0,0.0,0.0,0.0,0.0,0.0,0.0,0.0,0.0,0.0,0.0,0.0,0.0,0.0,0.0,0.0,0.0,0.0,0.0,0.0,0.0,0.0,0.0,-0.7789,-0.8626,-0.9457,-1.0301,-0.9883,-0.9527,-0.9448,-0.8601,-0.7644,-0.6576,0.0,0.0,0.0,0.0,0.0,0.0,0.0,0.0,0.0,0.0,0.0,0.0,0.0,0.0,0.0,0.0,0.0,0.0,0.0,0.0,0.0,0.0,0.0,0.0,0.0,0.0,0.0,0.0,0.0,0.0,0.0,0.0,0.0,0.0,0.0,0.0,0.0,0.0,0.0,0.0,0.0,0.0,0.0,0.0,0.0,0.0,0.0,0.0,0.0,0.0,0.0,0.0,0.0,0.0,0.0,0.0,0.0,0.0,0.0,0.0,0.0,0.0,0.0,0.0,0.0,0.0,0.0,0.0,0.0,0.0,0.0,0.0,0.0,0.0,0.0,0.0,0.0,0.0,0.0,0.0,0.0,0.0,0.0,0.0,0.0,0.0,0.0,0.0,0.0,0.0,0.0,0.0,0.0,0.0,0.0,0.0,0.0,0.0,0.0,0.0,0.0,0.0,-0.7828,-0.8858,-0.9825,-1.073,-1.0371,-1.001,-0.9903,-0.9004,-0.8006,-0.6885,0.0,0.0,0.0,0.0,0.0,0.0,0.0,0.0,0.0,0.0,0.0,0.0,0.0,0.0,0.0,0.0,0.0,0.0,0.0,0.0,0.0,0.0,0.0,0.0,0.0,0.0,0.0,0.0,0.0,0.0,0.0,0.0,0.0,0.0,0.0,0.0,0.0,0.0,0.0,0.0,0.0,0.0,0.0,0.0,0.0,0.0,0.0,0.0,0.0,0.0,0.0,0.0,0.0,0.0,0.0,0.0,0.0,0.0,0.0,0.0,-0.5718,0.0,0.0,0.0,0.0,0.0,0.0,0.0,0.0,0.0,0.0,0.0,0.0,0.0,0.0,0.0,0.0,0.0,0.0,0.0,0.0,0.0,0.0,0.0,0.0,0.0,0.0,0.0,0.0,0.0,0.0,0.0,0.0,0.0,0.0,0.0,0.0,0.0,0.0,0.0,0.0,0.0,-0.8017,-0.8921,-0.986,-1.0778,-1.0631,-1.0467,-1.0418,-0.9482,-0.8537,-0.7775,-0.6391,0.0,0.0,0.0,0.0,0.0,0.0,0.0,0.0,0.0,0.0,0.0,0.0,0.0,0.0,0.0,0.0,0.0,0.0,0.0,0.0,0.0,0.0,0.0,0.0,0.0,0.0,0.0,0.0,0.0,0.0,0.0,0.0,0.0,0.0,0.0,0.0,0.0,0.0,0.0,0.0,0.0,0.0,0.0,0.0,0.0,0.0,0.0,0.0,0.0,0.0,0.0,0.0,0.0,0.0,0.0,0.0,0.0,0.0,0.0,0.0,-0.626,0.0,0.0,0.0,0.0,0.0,0.0,0.0,0.0,0.0,0.0,0.0,0.0,0.0,0.0,0.0,0.0,0.0,0.0,0.0,0.0,0.0,0.0,0.0,0.0,0.0,0.0,0.0,0.0,0.0,0.0,0.0,0.0,0.0,0.0,0.0,0.0,0.0,0.0,0.0,0.0,-0.8132,-0.9319,-1.0333,-1.0847,-1.0794,-1.0659,-1.0621,-0.9671,-0.8818,-0.822,-0.7021,0.0,0.0,0.0,0.0,0.0,0.0,0.0,0.0,0.0,0.0,0.0,0.0,0.0,0.0,0.0,0.0,0.0,0.0,0.0,0.0,0.0,0.0,0.0,0.0,0.0,0.0,0.0,0.0,0.0,0.0,0.0,0.0,0.0,0.0,0.0,0.0,0.0,0.0,0.0,0.0,0.0,0.0,0.0,0.0,0.0,0.0,0.0,0.0,0.0,0.0,0.0,0.0,0.0,-0.934,-0.8582,-0.8215,-0.7803,-0.7686,-0.7774,-0.7819,-0.7833,-0.7767,-0.7001,0.0,0.0,0.0,0.0,0.0,0.0,0.0,0.0,0.0,0.0,0.0,0.0,0.0,0.0,0.0,0.0,0.0,0.0,0.0,0.0,0.0,0.0,0.0,0.0,-0.9817,-1.0037,0.0,0.0,0.0,0.0,0.0,0.0,0.0,0.0,0.0,0.0,0.0,0.0,-0.8457,-0.9917,-1.0944,-1.1084,-1.105,-1.0964,-1.084,-1.0026,-0.9294,-0.8762,-0.7907,-0.6881,0.0,0.0,0.0,0.0,0.0,0.0,0.0,0.0,0.0,0.0,0.0,0.0,0.0,0.0,0.0,0.0,0.0,0.0,0.0,0.0,0.0,0.0,0.0,0.0,0.0,0.0,0.0,0.0,0.0,0.0,0.0,0.0,-0.4451,-0.4692,0.0,0.0,0.0,0.0,0.0,0.0,0.0,0.0,0.0,0.0,0.0,0.0,0.0,-0.7209,-0.9667,-1.0242,-1.0522,-1.0514,-1.033,-0.9867,-0.9233,-0.9779,-1.0041,-1.0047,-1.0065,0.0,-0.831,-0.8191,0.0,0.0,0.0,0.0,0.0,0.0,0.0,0.0,0.0,0.0,0.0,0.0,0.0,0.0,0.0,0.0,0.0,0.0,0.0,0.0,0.0,0.0,-1.1706,-1.1302,-1.1613,-1.182,0.0,-0.9774,-0.8551,-0.8004,-0.7734,0.0,0.0,0.0,0.0,0.0,0.0,0.0,-0.9546,-1.0642,-1.1469,-1.1911,-1.1847,-1.1763,-1.1726,-1.1177,-1.0598,-0.9993,-0.9153,-0.8337,-0.7642,-0.6329,0.0,0.0,0.0,0.0,0.0,0.0,0.0,0.0,0.0,0.0,0.0,0.0,0.0,0.0,0.0,0.0,0.0,0.0,0.0,0.0,0.0,0.0,0.0,0.0,0.0,0.0,0.0,0.0,0.0,-0.4496,-0.5011,-0.4912,-0.5532,-0.5688,0.0,0.0,0.0,0.0,0.0,0.0,0.0,0.0,0.0,-0.7053,-0.778,-0.8754,-0.9976,-1.0308,-1.0522,-1.0522,-1.0522,-1.0354,-1.001,-1.0327,-1.0522,-1.0565,-1.1751,-1.1883,-1.1219,-1.0052,-0.8765,-0.7388,0.0,0.0,0.0,0.0,-0.5806,-0.8219,-0.9839,-1.179,0.0,-1.3621,0.0,0.0,0.0,0.0,0.0,0.0,0.0,0.0,0.0,0.0,-1.2361,-1.2712,-1.3129,-1.3432,-1.3244,-1.2551,-1.145,0.0,-0.9397,-0.9163,-0.8041,0.0,0.0,0.0,0.0,-1.0025,-1.0312,-1.1366,-1.206,-1.209,-1.2029,-1.1993,-1.1909,-1.149,-1.1081,-1.0732,-0.9791,-0.9001,-0.8521,-0.7499,-0.6585,0.0,0.0,0.0,0.0,0.0,0.0,0.0,0.0,0.0,0.0,0.0,0.0,0.0,0.0,0.0,0.0,0.0,0.0,0.0,0.0,0.0,0.0,0.0,0.0,0.0,0.0,0.0,0.0,-0.5218,-0.5655,-0.5561,-0.6412,-0.6616,0.0,0.0,0.0,0.0,0.0,0.0,-0.7916,-0.8107,-0.8349,-0.8756,-0.9335,-0.9614,-0.9614,-1.06,-1.1167,-1.1309,-1.1309,-1.1217,-1.1124,-1.1124,-1.1167,-1.136,-1.2929,-1.3621,-1.3467,-1.195,-1.0686,-0.9648,-0.8956,-0.8466,-0.8042,-0.6998,-0.873,-1.1768,-1.3155,-1.3621,-1.3621,-1.3621,0.0,-1.2896,-1.153,0.0,0.0,0.0,0.0,-1.1074,-1.1911,-1.2478,-1.3042,-1.3884,-1.4338,-1.4596,-1.457,-1.4577,-1.3861,0.0,-1.1271,-1.1047,-0.9607,0.0,0.0,0.0,0.0,-1.1631,-1.1363,-1.2299,-1.283,-1.2413,-1.2365,-1.233,-1.2246,-1.1978,-1.1663,-1.1421,-1.0671,-0.9937,-0.9343,-0.8707,-0.7792,-0.6576,0.0,0.0,0.0,0.0,0.0,0.0,0.0,0.0,0.0,0.0,0.0,0.0,0.0,0.0,0.0,0.0,0.0,0.0,0.0,0.0,0.0,0.0,0.0,0.0,0.0,0.0,0.0,0.0,0.0,-0.7221,-0.7931,0.0,0.0,0.0,0.0,-0.8048,-0.7873,-0.8242,-0.9415,-0.924,-0.9241,-0.9541,-0.9592,-0.9614,-0.9614,-1.1701,-1.3007,-1.342,-1.342,-1.319,-1.2783,-1.2783,-1.3007,-1.3467,-1.3563,-1.3621,-1.361,-1.3467,-1.3416,-1.3324,-1.3283,-1.3242,-1.3227,-1.3145,-1.3274,-1.3496,-1.3589,-1.3621,-1.3621,-1.3621,-1.2834,-1.1882,-1.1789,-1.1623,0.0,0.0,-1.212,-1.2892,-1.3433,-1.3936,-1.44,-1.4926,-1.504,-1.5051,-1.5073,-1.5062,-1.4741,0.0,-1.3427,-1.3223,-1.2831,0.0,-1.2103,-1.2489,-1.2704,-1.2891,-1.3042,-1.3611,-1.381,-1.3213,-1.3129,-1.3129,-1.3129,-1.3138,-1.2867,-1.2291,-1.2205,-1.1622,-1.0465,-0.9728,-0.902,-0.838,-0.6866,0.0,0.0,0.0,0.0,0.0,0.0,0.0,0.0,0.0,0.0,0.0,0.0,0.0,0.0,0.0,0.0,0.0,0.0,0.0,0.0,0.0,0.0,0.0,0.0,0.0,0.0,0.0,0.0,-0.8571,-0.9291,0.0,-0.868,-0.8854,-0.9173,-0.9512,-0.9659,-0.9993,-1.058,-1.0541,-1.042,-1.032,-1.0533,-1.0277,-0.9614,-1.1801,-1.2968,-1.3162,-1.3478,-1.3344,-1.2881,-1.2881,-1.3162,-1.3621,-1.3621,-1.3621,-1.3621,-1.3621,-1.3621,-1.3621,-1.3621,-1.3621,-1.3621,-1.3621,-1.3621,-1.3621,-1.3621,-1.3621,-1.3621,-1.3621,-1.332,-1.2969,-1.2969,-1.3163,-1.3377,-1.3377,-1.3849,-1.4383,-1.4564,-1.4744,-1.496,-1.5445,-1.5534,-1.5623,-1.5944,-1.5988,-1.5922,-1.5575,-1.4938,-1.4237,-1.3514,-1.3668,-1.379,-1.3374,-1.3828,-1.4212,-1.4287,-1.45,-1.4412,-1.3858,-1.3795,-1.3609,-1.3223,-1.3198,-1.3123,-1.2889,-1.2182,-1.1591,-1.1164,-1.0162,-0.9324,-0.8766,-0.8198,-0.7359,0.0,0.0,0.0,0.0,0.0,0.0,0.0,0.0,0.0,0.0,0.0,0.0,0.0,0.0,0.0,0.0,0.0,0.0,0.0,0.0,0.0,0.0,0.0,0.0,0.0,0.0,-0.9114,-0.9576,-1.0267,-1.044,-0.9847,-1.0127,-1.0558,-1.1057,-1.1129,-1.1308,-1.1644,-1.1456,-1.1011,-1.0328,-1.0533,-1.0965,-1.1548,-1.3023,-1.373,-1.373,-1.4082,-1.4031,-1.373,-1.373,-1.3928,-1.4205,-1.4111,-1.3975,-1.3834,-1.3882,-1.3759,-1.3621,-1.3621,-1.3621,-1.3621,-1.3621,-1.3621,-1.3621,-1.3621,-1.3621,-1.3621,-1.3621,-1.3621,-1.361,-1.381,-1.414,-1.4419,-1.4605,-1.488,-1.5153,-1.5277,-1.5322,-1.5445,-1.5932,-1.6064,-1.6107,-1.6423,-1.6522,-1.6522,-1.6522,-1.5954,-1.5306,-1.4688,-1.506,-1.5264,-1.4666,-1.5191,-1.5592,-1.544,-1.5531,-1.535,-1.4672,-1.4405,-1.4078,-1.3546,-1.3311,-1.3198,-1.3198,-1.2314,-1.1727,-1.154,-1.0585,-0.9775,-0.9206,-0.9022,-0.8208,-0.6723,0.0,0.0,0.0,0.0,0.0,0.0,0.0,0.0,0.0,0.0,0.0,0.0,0.0,0.0,0.0,0.0,0.0,0.0,0.0,0.0,0.0,0.0,0.0,-0.8767,-0.938,-1.0013,-1.0372,-1.0928,-1.118,-1.0933,-1.1129,-1.1694,-1.2654,-1.2254,-1.214,-1.2635,-1.2012,-1.1083,-0.9732,-0.9718,-1.1523,-1.5332,-1.541,-1.541,-1.541,-1.541,-1.541,-1.541,-1.541,-1.54,-1.54,-1.5121,-1.4686,-1.4205,-1.441,-1.413,-1.3621,-1.3621,-1.3621,-1.3621,-1.3621,-1.361,-1.361,-1.361,-1.361,-1.3668,-1.3668,-1.3668,-1.3752,-1.428,-1.4419,-1.4558,-1.5017,-1.5153,-1.5244,-1.5712,-1.5832,-1.592,-1.638,-1.6522,-1.6522,-1.6522,-1.6522,-1.6522,-1.6522,-1.6522,-1.6522,-1.6522,-1.6522,-1.6522,-1.6552,-1.6947,0.0,-1.652,-1.678,-1.6628,-1.5652,-1.5049,-1.4566,-1.4158,-1.3559,-1.3245,-1.3207,-1.2693,-1.2172,-1.1618,-1.101,-1.0418,-0.9814,-0.9292,-0.8483,-0.745,0.0,0.0,0.0,0.0,0.0,0.0,0.0,0.0,0.0,0.0,0.0,0.0,0.0,0.0,0.0,0.0,0.0,0.0,0.0,0.0,0.0,-0.9834,-1.0446,-1.0446,-1.0801,-1.1482,-1.249,-1.2774,-1.2931,-1.3162,-1.3233,-1.3399,-1.3681,-1.3404,-1.3256,-1.3399,-1.3421,-1.2967,-1.2026,-1.2008,-1.31,-1.5391,-1.541,-1.541,-1.541,-1.541,-1.541,-1.541,-1.541,-1.5243,-1.4952,-1.4879,-1.477,-1.4654,-1.4707,-1.4276,-1.3621,-1.3621,-1.3621,-1.3621,-1.3621,-1.3858,-1.4186,-1.4186,-1.4419,-1.4686,-1.4686,-1.4686,-1.4743,-1.488,-1.5142,-1.5433,-1.5579,-1.5844,-1.612,-1.625,-1.6293,-1.6337,-1.6466,-1.6522,-1.6522,-1.6522,-1.6522,-1.6595,-1.6947,-1.7031,-1.7031,-1.7031,-1.7031,-1.7115,-1.738,-1.7557,0.0,-1.7411,-1.7504,-1.7209,-1.627,-1.6034,-1.5526,-1.4559,-1.4327,-1.3942,-1.3319,-1.2754,-1.2184,-1.1546,-1.0808,-1.0315,-1.0173,-0.9581,-0.8937,0.0,0.0,0.0,0.0,0.0,0.0,0.0,0.0,0.0,0.0,0.0,0.0,0.0,0.0,0.0,0.0,0.0,0.0,0.0,0.0,0.0,0.0,-1.1205,-1.1901,-1.2072,-1.2263,-1.2645,-1.3396,-1.3662,-1.3867,-1.4058,-1.4077,-1.4155,-1.4394,-1.4258,-1.4248,-1.4424,-1.458,-1.4443,-1.3955,-1.3936,-1.4414,-1.54,-1.5536,-1.5536,-1.541,-1.5536,-1.5546,-1.541,-1.5911,-1.5786,-1.5193,-1.5839,-1.5696,-1.5106,-1.5669,-1.5397,0.0,0.0,0.0,0.0,0.0,-1.414,-1.4419,-1.4605,-1.488,-1.5108,-1.5108,-1.5108,-1.5153,-1.5322,-1.5579,-1.5832,-1.6064,-1.6293,-1.6522,-1.6522,-1.6522,-1.6522,-1.6522,-1.6522,-1.6522,-1.6522,-1.665,-1.6863,-1.7157,-1.7365,0.0,-1.772,-1.7598,-1.7516,-1.776,-1.7948,-1.8068,-1.8068,-1.8226,-1.8048,-1.7353,-1.7043,-1.644,-1.5296,-1.4977,0.0,0.0,0.0,-1.2497,-1.1627,-1.1145,0.0,0.0,0.0,0.0,0.0,0.0,0.0,0.0,-0.8746,-0.8631,0.0,0.0,0.0,0.0,0.0,0.0,0.0,0.0,0.0,0.0,0.0,0.0,0.0,0.0,0.0,0.0,-1.2451,-1.3154,-1.3525,-1.3623,-1.3652,-1.3652,-1.3984,-1.4175,-1.4223,-1.4223,-1.4443,-1.4824,-1.4853,-1.5019,-1.5391,0.0,0.0,0.0,0.0,-1.5478,-1.5478,-1.573,-1.5788,-1.5536,-1.5894,-1.5894,-1.5633,-1.681,-1.681,-1.5968,-1.7302,-1.706,-1.5766,-1.6994,-1.6922,-1.5939,-1.4903,-1.4209,-1.3847,-1.4326,-1.4512,-1.4605,-1.5017,0.0,0.0,-1.5244,-1.5244,-1.5322,-1.5744,-1.5876,-1.5976,-1.638,-1.6522,-1.6522,-1.6522,-1.6522,-1.6522,-1.6522,-1.6522,-1.6565,-1.6565,-1.6934,-1.7323,-1.7365,-1.7639,-1.8068,-1.85,-1.8187,-1.7868,-1.7948,-1.8305,-1.8592,-1.8592,-1.886,-1.8936,-1.8553,0.0,0.0,-1.615,-1.564,-1.5072,-1.4328,-1.3731,-1.2924,-1.1894,-1.1853,-1.1853,-1.1853,-1.1853,-1.2114,-1.265,-1.2678,-1.2566,-1.2263,-1.0544,-1.031,0.0,0.0,0.0,0.0,0.0,0.0,0.0,0.0,0.0,0.0,0.0,0.0,0.0,0.0,0.0,-1.2529,-1.334,-1.3916,-1.3951,-1.4316,-1.4541,-1.4541,-1.4609,-1.4795,-1.5137,-1.5166,-1.5195,-1.5283,-1.5293,-1.538,-1.5633,-1.572,-1.5788,-1.5788,-1.5788,-1.5788,-1.5788,-1.5856,-1.6029,-1.6202,0.0,0.0,-1.6866,-1.7754,-1.7809,-1.7246,-1.7523,-1.7577,-1.7444,-1.7716,-1.7527,-1.6991,-1.5981,-1.5287,-1.4834,-1.4926,-1.5175,-1.5522,-1.5611,-1.5888,-1.6207,-1.6207,-1.6207,-1.625,-1.6337,-1.638,0.0,-1.6466,-1.6522,-1.6522,-1.6522,-1.6522,-1.6522,-1.6522,-1.6778,-1.7073,-1.7073,-1.7475,-1.7908,-1.8187,-1.8422,-1.8707,-1.9064,-1.8707,-1.8461,-1.8784,-1.8936,-1.8988,-1.8988,-1.9064,-1.8936,-1.8553,-1.8387,-1.7829,-1.6577,-1.6382,-1.575,-1.4399,-1.3725,-1.3213,-1.2784,-1.2743,-1.2743,-1.2743,-1.2743,-1.2799,-1.2926,-1.3141,-1.3344,-1.3527,-1.2471,-1.1979,0.0,0.0,0.0,0.0,0.0,0.0,0.0,0.0,0.0,0.0,0.0,-1.0801,-1.1465,0.0,-1.3008,-1.3437,-1.4043,-1.4562,-1.4878,-1.5048,-1.5019,-1.4805,-1.4971,-1.5243,-1.5526,-1.5478,-1.5575,-1.6093,-1.5768,-1.5768,-1.6208,-1.6332,-1.6181,-1.5914,-1.6457,-1.6616,-1.6343,-1.6729,-1.6944,-1.7011,-1.76,-1.7699,-1.7413,-1.8309,-1.8363,-1.7797,-1.8436,-1.8447,-1.8027,-1.8309,-1.8336,-1.8121,-1.7641,-1.6658,-1.551,-1.5741,-1.5849,-1.5832,-1.6064,-1.6293,-1.6522,-1.6522,-1.6522,-1.6522,-1.6522,-1.6522,-1.6522,-1.6522,-1.6522,-1.6552,-1.6778,-1.6863,-1.6892,-1.7089,-1.7352,-1.7516,-1.7516,-1.7908,-1.8305,-1.85,-1.8784,-1.9026,-1.9302,-1.9101,-1.8988,-1.9213,-1.9213,-1.9213,-1.9265,-1.9265,-1.9176,-1.8988,-1.8936,-1.8561,-1.7611,-1.6881,-1.6009,-1.4863,-1.4515,-1.4139,-1.3682,-1.3641,-1.3641,-1.3641,-1.3641,-1.3826,-1.4156,-1.4284,-1.4515,-1.4769,-1.4534,-1.4228,0.0,0.0,0.0,0.0,0.0,0.0,0.0,0.0,-1.0116,-1.1156,-1.1964,-1.2634,-1.3369,-1.3811,-1.4222,-1.451,-1.4939,-1.5452,-1.5938,-1.5859,-1.5676,-1.5325,-1.5481,-1.57,-1.6009,-1.5768,-1.5979,-1.6708,-1.6228,-1.6171,-1.6832,-1.7076,-1.697,-1.6487,-1.7498,-1.7823,-1.7383,-1.7991,-1.8102,-1.7834,-1.823,-1.8239,-1.7918,-1.875,-1.8857,-1.834,-1.9371,-1.9267,-1.8471,-1.8975,-1.915,-1.9183,-1.9183,-1.8044,-1.6527,-1.6701,-1.6499,-1.6166,-1.6417,-1.6522,-1.6522,-1.6522,-1.6522,-1.6522,-1.6522,-1.6522,-1.6522,-1.6607,-1.665,-1.6723,-1.7199,-1.7323,-1.7393,-1.772,-1.7868,-1.7948,-1.7948,-1.8305,-1.8669,-1.8707,-1.8988,-1.9228,-1.9376,-1.9376,-1.9376,-1.9413,-1.9339,-1.9339,-1.9376,-1.9413,-1.9413,-1.9413,-1.9413,-1.9163,-1.8549,-1.7346,-1.6354,-1.575,-1.5721,-1.5474,-1.4921,-1.4877,-1.4848,-1.4848,-1.4848,-1.5139,-1.5676,-1.5676,-1.5797,-1.5995,-1.6402,-1.6354,-0.9137,-0.982,-1.0343,-1.0625,-1.0448,-1.0915,0.0,0.0,-1.3141,-1.4909,-1.5328,-1.5437,-1.5546,-1.5959,-1.6255,-1.6309,-1.6645,-1.6959,-1.7014,-1.7124,-1.7135,-1.7081,-1.6564,-1.6482,-1.7168,-1.6786,-1.656,-1.6765,-1.6719,-1.6775,-1.6955,-1.7946,-1.8521,-1.8533,-1.9218,-1.9517,-1.9459,-1.9576,-1.9287,-1.8759,-1.9341,-1.9335,-1.8869,-1.9448,-1.9643,-1.9592,-1.9747,-1.9747,-1.9643,-1.9695,-1.9722,-1.971,-1.971,-1.9309,-1.856,-1.7634,-1.7293,-1.7155,-1.6654,-1.6522,-1.6522,-1.6522,-1.6522,-1.6522,-1.6522,-1.6522,-1.6607,-1.6989,-1.7115,-1.724,-1.7639,-1.772,-1.776,-1.7787,-1.8108,-1.8422,-1.8422,-1.8822,-1.9176,-1.9064,-1.9302,-1.9501,-1.9413,-1.9501,-1.9538,-1.9413,-1.9376,-1.9376,-1.9413,-1.9413,-1.9413,-1.9413,-1.9413,-1.9163,-1.8549,-1.7806,-1.7349,-1.7243,-1.721,-1.7133,-1.706,-1.6961,-1.688,-1.688,-1.688,-1.6924,-1.6996,-1.6996,-1.6992,-1.7045,-1.7673,-1.7475,-1.1658,-1.1965,-1.2091,0.0,-1.2923,-1.3205,-1.4829,-1.4755,-1.4838,-1.6422,-1.6773,-1.685,-1.7082,-1.7291,-1.7346,0.0,-1.7192,-1.7479,-1.7918,-1.7699,-1.7754,-1.8483,-1.7972,-1.7578,-1.7699,-1.7368,-1.7545,-1.8462,-1.8126,-1.825,-1.9056,-1.9549,-1.9678,-1.9414,-2.0327,-2.0607,-2.025,-2.0607,-2.0669,-2.0438,-2.0686,-2.0513,-1.9994,-2.0195,-2.0125,-1.9798,-1.9798,-1.9798,-1.9798,-1.9798,-1.9798,-1.9798,-1.9798,-1.9673,-1.9384,-1.8618,-1.8141,-1.7827,-1.7589,-1.7501,-1.7496,-1.7421,-1.7393,-1.7372,-1.7277,-1.7256,-1.731,-1.7475,-1.7557,-1.7639,-1.8068,-1.8226,-1.8305,-1.8592,-1.8822,-1.8988,-1.9026,-1.9176,-1.9376,-1.9376,-1.9465,-1.9487,-1.9545,-1.9611,-1.9611,-1.9596,-1.9523,-1.9538,-1.956,-1.9581,-1.9581,-1.9581,-1.9581,-1.9277,-1.8639,-1.8293,-1.7948,-1.7512,-1.7464,-1.7464,-1.7464,-1.7382,-1.7349,-1.7315,-1.7315,-1.7282,-1.72,-1.72,-1.7437,-1.7835,-1.8127,-1.8266,-1.3081,-1.3484,0.0,-1.4552,-1.4887,-1.5269,-1.5958,-1.6124,-1.6514,-1.7775,-1.8079,-1.8137,-1.843,-1.8385,-1.8238,-1.7943,-1.7941,-1.8147,-1.8697,-1.8405,-1.8459,-1.9356,-1.9121,-1.8727,-1.8447,-1.8135,-1.8464,-1.9732,-1.93,-1.9455,-2.0547,-2.09,-2.087,-2.0487,-2.1445,-2.1749,-2.132,-2.1691,-2.187,-2.1719,-2.1719,-2.143,-2.0945,-2.0794,-2.0351,-1.9798,-1.9798,-1.9798,-1.9798,-1.9798,-1.9798,-1.9798,-1.9952,-2.0003,-2.0004,-1.9759,-1.9223,-1.863,-1.8478,-1.8508,-1.8616,-1.8503,-1.846,-1.8428,-1.8179,-1.8085,-1.8086,-1.8043,-1.8028,-1.8108,-1.863,-1.8745,-1.886,-1.9228,-1.9339,-1.9339,-1.9376,-1.9413,-1.9413,-1.9538,-1.9501,-1.9487,-1.9669,-1.9632,-1.9632,-1.969,-1.9669,-1.9632,-1.969,-1.969,-1.969,-1.969,-1.969,-1.948,-1.8932,-1.8902,-1.8673,-1.8144,-1.8096,-1.8096,-1.8096,-1.8027,-1.7993,-1.7944,-1.7944,-1.791,-1.7806,-1.7806,-1.8074,-1.8599,-1.8599,-1.8899,-1.2591,0.0,-1.5611,-1.5277,-1.5926,-1.6892,-1.7885,-1.8177,-1.8522,-1.9526,-1.9756,-1.9756,-1.9713,-1.9426,-1.9141,-1.9129,-1.9263,-1.9368,-1.9368,-1.946,-1.9552,-1.9617,-1.9708,-1.9747,0.0,-1.9174,-1.903,-1.9744,-1.978,-1.9997,-2.0547,-2.1626,-2.2226,-2.2226,-2.2739,-2.3027,-2.3027,-2.3027,-2.2811,-2.2284,-2.2284,-2.1995,-2.1443,-2.097,-2.0351,-1.9798,-1.9798,-1.9798,-1.9798,-1.9798,-1.9798,-1.985,-2.0359,-2.056,-2.066,-2.1161,-2.0641,-1.9703,-1.914,-1.9248,-1.9636,-1.9666,-1.9666,-1.9557,-1.8958,-1.878,-1.8741,-1.859,-1.8592,-1.8707,-1.9228,-1.9376,-1.9376,-1.9376,-1.9413,-1.9413,-1.9413,-1.9413,-1.9413,-1.9413,-1.9501,-1.9611,-1.9611,-1.9669,-1.969,-1.969,-1.969,-1.969,-1.969,-1.969,-1.969,-1.969,-1.969,-1.9675,-1.966,-1.966,-1.9645,-1.963,-1.9573,-1.9551,-1.9551,-1.9406,-1.9317,-1.9317,-1.9317,-1.9317,-1.9317,-1.9317,-1.9332,-1.9347,-1.9347,-1.9362,-1.4912,-1.546,-1.6044,-1.6943,-1.7416,-1.787,-1.855,-1.9024,-1.9388,-1.9744,-1.978,-1.9672,-1.9324,-1.9238,-1.9113,-1.8851,-1.9547,-2.0051,-1.9718,-2.0345,-2.0598,-1.9847,-2.015,0.0,0.0,0.0,0.0,-2.0345,-2.0729,-2.1163,-2.1696,-2.243,-2.2862,-2.2862,-2.3037,-2.3078,-2.3078,-2.3078,-2.2977,-2.2862,-2.2485,-2.2221,-2.2008,-2.1091,-2.0618,-2.0351,-1.9962,-2.0003,-2.0308,-2.0308,-2.0547,-2.0881,-2.1077,-2.114,-2.1126,-2.1321,-2.1404,-2.1307,-2.0759,-2.0678,-2.0797,-2.072,-2.0773,-2.0793,-2.0485,-2.0122,-1.9829,-1.9798,-1.9459,-1.9176,-1.9339,-1.9413,-1.9413,-1.9501,-1.9538,-1.9523,-1.9581,-1.9581,-1.9581,-1.9581,-1.9632,-1.9669,-1.9669,-1.969,-1.969,-1.969,-1.969,-1.969,-1.969,-1.969,-1.969,-1.969,-1.969,-1.969,-1.969,-1.969,-1.969,-1.969,-1.969,-1.9669,-1.9669,-1.9617,-1.9596,-1.9538,-1.9538,-1.9501,-1.9413,-1.9413,-1.9465,-1.9538,-1.9538,-1.956,-1.6178,-1.6548,-1.6866,-1.8184,-1.873,-1.9113,-1.9498,-1.9927,-2.0232,-1.9872,-1.9939,-1.9793,-1.9147,-1.9157,-1.9183,-1.8983,-1.9825,-2.0511,-2.045,-2.1066,-2.1327,-2.0781,-2.0876,-2.0815,0.0,0.0,0.0,-2.0983,-2.1468,-2.202,-2.2573,-2.2877,-2.3078,-2.3078,-2.3078,-2.3078,-2.3078,-2.3078,-2.3185,-2.3471,-2.3114,-2.2834,-2.2604,-2.2111,-2.1557,-2.0947,-2.0759,-2.078,-2.0894,-2.0894,-2.1091,-2.1417,-2.1623,-2.1718,-2.1752,-2.1955,-2.2249,-2.2495,-2.1894,-2.186,-2.1979,-2.1951,-2.2001,-2.2018,-2.1708,-2.1348,-2.102,-2.0838,-2.0292,-1.9871,-2.0161,-1.9879,-1.9582,-1.9908,-1.9826,-1.9632,-1.969,-1.969,-1.969,-1.969,-1.969,-1.969,-1.969,-1.969,-1.969,-1.969,-1.969,-1.969,-1.969,-1.969,-1.969,-1.969,-1.969,-1.969,-1.969,-1.969,-1.969,-1.969,-1.969,-1.969,-1.969,-1.969,-1.969,-1.9647,-1.9647,-1.9596,-1.9523,-1.9523,-1.956,-1.9647,-1.9647,-1.9669,-1.6411,-1.7277,-1.8276,-1.8927,-1.9773,-2.0464,-2.0625,-2.0913,-2.0884,-1.9934,-2.0037,-1.9997,-1.9065,-1.91,-1.9303,-1.9448,-2.0109,-2.0884,-2.1524,-2.1671,-2.1865,0.0,0.0,0.0,0.0,0.0,0.0,-2.163,0.0,-2.2535,-2.3002,-2.3065,-2.3078,-2.3078,-2.3078,-2.3078,-2.3078,-2.3138,-2.3484,-2.4118,-2.4118,-2.383,-2.3323,-2.3864,-2.3178,-2.1551,-2.2089,-2.1988,-2.1506,-2.1479,-2.1465,-2.1561,-2.2077,-2.2296,-2.242,-2.2933,-2.3201,-2.3216,-2.2558,-2.2678,-2.3127,-2.3275,-2.3319,-2.3201,-2.2538,-2.2332,-2.2226,-2.1702,-2.1074,-2.0742,-2.1515,-2.0722,-1.9899,-2.0557,-2.0183,-1.969,-1.969,-1.969,-1.9726,-1.9711,-1.9747,-1.9747,-1.9726,-1.9711,-1.9711,-1.969,-1.969,-1.969,-1.969,-1.969,-1.969,-1.969,-1.969,-1.969,-1.969,-1.969,-1.969,-1.969,-1.969,-1.969,-1.969,-1.969,-1.969,-1.969,-1.969,-1.969,-1.969,-1.969,-1.969,-1.969,-1.969,-1.969,-1.827,-1.8942,-1.9458,-2.0355,-2.0739,-2.0945,-2.099,-2.0779,-2.0284,-1.9179,-1.8802,-1.8349,-1.7258,-1.7975,-1.8735,-1.8764,-2.089,0.0,-2.2167,-2.3286,0.0,-2.3124,0.0,-2.3298,-2.2858,-2.3205,0.0,0.0,-2.2724,-2.2372,-2.2523,-2.2852,-2.3078,-2.3078,-2.3078,-2.3078,-2.3078,-2.3603,-2.4176,-2.4794,-2.4794,-2.4714,-2.4538,-2.4217,-2.3852,-2.3353,-2.2593,-2.2482,-2.2768,-2.2278,-2.236,-2.2844,-2.2949,-2.3038,-2.3083,-2.3187,-2.3275,-2.3275,-2.3216,-2.3231,-2.3231,-2.3275,-2.3363,-2.3436,-2.3273,-2.2914,-2.2554,-2.2431,-2.1909,-2.1431,-2.165,-2.1081,-2.0498,-2.0677,-2.0183,-1.969,-1.969,-1.969,-1.9782,-2.0015,-2.0292,-2.0342,-1.9782,-1.9925,-1.998,-1.9762,-1.969,-1.969,-1.969,-1.969,-1.969,-1.969,-1.969,-1.969,-1.969,-1.969,-1.969,-1.969,-1.969,-1.969,-1.969,-1.969,-1.969,-1.969,-1.969,-1.969,-1.969,-1.969,-1.969,-1.969,-1.969,-1.969,-1.969,-2.0294,-2.0784,-2.1807,-2.1981,-2.1786,-2.142,-2.0869,-1.9969,-1.8325,-1.7996,-1.7638,-1.6588,-1.7468,-1.8451,0.0,0.0,0.0,-2.3009,-2.3917,-2.4532,0.0,-2.4477,0.0,-2.4109,-2.4313,-2.4504,0.0,-2.3847,-2.3449,-2.3449,-2.3541,-2.3649,-2.393,-2.3649,-2.3649,-2.393,-2.4337,-2.4794,-2.537,-2.537,-2.537,-2.5412,-2.5338,-2.5031,-2.4512,0.0,-2.3822,-2.3706,-2.3331,-2.3211,-2.3319,-2.3319,-2.3319,-2.3363,-2.3363,-2.3407,-2.3436,-2.3538,-2.348,-2.3436,-2.3436,-2.348,-2.3538,-2.3538,-2.3327,-2.3071,-2.3071,-2.2622,-2.2188,-2.2458,-2.162,-2.0782,-2.1081,-2.0393,-1.969,-1.969,-1.969,-1.9782,-2.0139,-2.053,-2.0662,-2.0239,-2.0342,-2.0326,-1.998,-2.0065,-2.0135,-1.9945,-1.9909,-1.998,-2.017,-2.017,-2.017,-2.017,-2.017,-2.017,-2.017,-2.003,-1.9995,-2.017,-2.0015,-1.9995,-2.017,-2.017,-2.01,-1.9909,-1.9909,-1.9854,-1.969,-1.969,-1.969,-2.0939,-2.1502,-2.2154,-2.308,-2.3125,-2.2681,-2.1741,-2.0879,-1.9673,-1.7487,0.0,-1.7292,-1.6439,-1.7249,-1.8331,-1.9145,0.0,-2.1917,-2.3907,-2.4218,-2.4681,-2.5877,-2.5536,-2.5245,-2.5245,-2.5245,-2.5245,-2.5245,-2.5245,-2.5189,-2.5007,-2.4509,-2.4452,-2.4951,-2.4509,-2.4523,-2.5133,-2.5133,-2.5425,-2.6002,-2.6002,-2.6002,-2.6056,-2.6621,-2.6303,-2.5417,-2.5821,-2.5419,-2.4442,-2.4368,-2.3939,-2.3363,-2.3363,-2.3407,-2.3494,-2.3494,-2.3538,-2.3595,-2.3595,-2.3595,-2.3595,-2.3595,-2.3595,-2.3595,-2.3595,-2.3595,-2.3595,-2.3595,-2.3206,-2.2921,-2.346,-2.2233,-2.0991,-2.1639,-2.0775,-1.9831,-1.9848,-1.9854,-1.9925,-2.0224,-2.0613,-2.086,-2.0794,-2.0827,-2.0712,-2.0361,-2.0579,-2.0679,-2.0395,-2.0311,-2.0429,-2.0761,-2.0794,-2.0794,-2.0794,-2.0794,-2.0794,-2.0794,-2.0462,-2.0429,-2.0794,-2.0462,-2.0429,-2.0794,-2.0794,-2.0613,-2.0208,-2.0208,-2.0015,-1.969,-1.969,-1.969,-2.2332,-2.2903,-2.3259,-2.3737,-2.3478,-2.2742,-2.1555,-2.0089,0.0,0.0,-1.6644,-1.6293,-1.5624,-1.6525,-1.776,-1.8945,-2.0676,-2.2523,-2.4413,-2.5171,-2.5767,0.0,-2.6553,-2.65,-2.65,-2.65,0.0,0.0,0.0,-2.6042,-2.5063,-2.4908,-2.4908,-2.5007,-2.4908,-2.5133,-2.5715,-2.5715,-2.6056,-2.6621,-2.6621,-2.6674,-2.6779,-2.6899,-2.693,-2.6806,-2.6344,0.0,-2.5156,-2.4652,-2.4104,-2.3566,-2.3566,-2.3566,-2.3551,-2.3551,-2.361,-2.3595,-2.3595,-2.3595,-2.3595,-2.3595,-2.3595,-2.3595,-2.3595,-2.3595,-2.3595,-2.3595,-2.352,-2.346,-2.3565,-2.2562,-2.1624,-2.2026,-2.1311,-2.0563,-2.0618,-2.0613,-2.0628,-2.0679,-2.099,-2.1119,-2.086,-2.1023,-2.1087,-2.0745,-2.0761,-2.086,-2.1071,-2.0877,-2.0712,-2.0794,-2.0794,-2.0794,-2.0794,-2.0794,-2.0794,-2.0794,-2.0728,-2.0728,-2.0794,-2.0728,-2.0728,-2.0794,-2.0794,-2.0613,-2.0208,-2.0208,-2.0015,-1.969,-1.969,-1.969,-2.3189,-2.3621,-2.3863,-2.4535,-2.4028,-2.2838,-2.1055,0.0,0.0,0.0,-1.5092,-1.4747,-1.479,-1.5574,0.0,-1.8375,-1.942,-2.0915,-2.3438,-2.4061,0.0,-2.6112,-2.6576,-2.6779,0.0,0.0,0.0,0.0,0.0,-2.6553,-2.5988,-2.5934,-2.5811,-2.5481,-2.5756,-2.6096,-2.6394,-2.6394,-2.65,-2.6779,-2.6779,-2.6899,-2.7003,-2.7003,-2.7093,-2.7269,-2.6959,0.0,-2.5491,-2.5193,-2.4492,-2.3595,-2.3595,-2.3595,-2.3595,-2.3595,-2.3595,-2.3595,-2.3595,-2.3595,-2.3595,-2.3595,-2.3595,-2.3595,-2.3595,-2.3595,-2.3638,-2.3909,-2.3952,-2.4036,-2.4214,-2.3557,-2.291,-2.3047,-2.2143,-2.1177,-2.087,-2.0925,-2.1055,-2.1055,-2.134,-2.1526,-2.1355,-2.1448,-2.1464,-2.1119,-2.1198,-2.134,-2.1309,-2.1293,-2.1324,-2.1324,-2.1324,-2.1324,-2.1324,-2.1324,-2.1324,-2.1324,-2.1151,-2.1151,-2.1324,-2.1151,-2.1135,-2.1324,-2.1324,-2.1135,-2.0763,-2.0597,-2.0444,-2.0273,-1.9889,-1.9782,-2.3639,-2.3978,-2.4141,-2.4869,-2.4104,-2.2603,-2.0396,-1.839,0.0,-1.4674,-1.3803,-1.3583,-1.4195,-1.4747,-1.5734,0.0,-1.8114,-1.9275,-2.2265,-2.2931,-2.3804,0.0,-2.6439,0.0,-2.6846,0.0,0.0,0.0,0.0,0.0,-2.6779,-2.6832,-2.6621,-2.6165,-2.6606,-2.6884,-2.6884,-2.6884,-2.6884,-2.6884,-2.6884,-2.6937,-2.7107,-2.7107,-2.7211,-2.7437,-2.7437,0.0,0.0,-2.5615,-2.4822,-2.3595,-2.3595,-2.3595,-2.3595,-2.3595,-2.3595,-2.3595,-2.3595,-2.3681,-2.3739,-2.3739,-2.3739,-2.3739,-2.3739,-2.3809,-2.3979,-2.4328,-2.4426,-2.4492,-2.4823,-2.4381,-2.3866,-2.3707,-2.2833,-2.1885,-2.1259,-2.1231,-2.1309,-2.1402,-2.1556,-2.1738,-2.1797,-2.1797,-2.1691,-2.1433,-2.1648,-2.1691,-2.1433,-2.1648,-2.1797,-2.1797,-2.1797,-2.1797,-2.1797,-2.1797,-2.1797,-2.1797,-2.1556,-2.1526,-2.1797,-2.1556,-2.1526,-2.1781,-2.1797,-2.1648,-2.1309,-2.1023,-2.086,-2.0794,-2.0135,-1.9945,-2.3583,-2.3931,-2.3945,-2.4003,-2.3062,-2.1599,-1.9653,0.0,-1.5922,-1.4587,-1.3803,-1.3583,-1.4195,-1.4341,-1.5037,-1.6982,0.0,-1.9116,-2.1714,-2.3078,-2.4297,-2.5633,0.0,0.0,-2.7003,0.0,0.0,0.0,0.0,0.0,-2.6832,-2.6899,-2.6951,-2.6899,-2.7078,-2.7181,-2.7181,-2.7181,-2.7181,-2.7181,-2.7181,-2.7233,-2.735,-2.735,-2.7437,-2.7575,-2.7575,0.0,0.0,-2.5615,-2.4822,-2.3595,-2.3595,-2.3595,-2.3595,-2.3595,-2.3595,-2.3595,-2.3595,-2.3867,-2.4219,-2.4219,-2.4219,-2.4219,-2.4219,-2.4477,-2.4784,-2.4823,-2.4823,-2.4863,-2.4902,-2.4381,-2.3739,-2.307,-2.2862,-2.2669,-2.2247,-2.1698,-2.1371,-2.1691,-2.1526,-2.1433,-2.1768,-2.1797,-2.1797,-2.1768,-2.1781,-2.1797,-2.1768,-2.1781,-2.1797,-2.1797,-2.1797,-2.1797,-2.1797,-2.1797,-2.1797,-2.1797,-2.1768,-2.1768,-2.1797,-2.1768,-2.1768,-2.1797,-2.1797,-2.1648,-2.1309,-2.1277,-2.1087,-2.0794,-2.0361,-2.0174,-2.2962,-2.3601,-2.3891,-2.3891,-2.2933,-2.1481,-1.9537,-1.7316,-1.5298,-1.4007,-1.2958,-1.2565,-1.3583,-1.3426,-1.3919,-1.6227,-1.6184,-1.6764,-1.9348,-2.0546,-2.19,-2.3944,-2.5238,0.0,0.0,0.0,0.0,0.0,0.0,0.0,-2.7026,-2.7093,-2.7144,-2.7144,-2.7181,-2.7181,-2.7181,-2.7181,-2.7181,-2.7181,-2.7181,-2.7284,-2.7401,-2.7401,-2.7488,-2.7595,-2.7156,0.0,0.0,-2.5181,-2.4462,-2.3595,-2.3595,-2.3595,-2.3638,-2.3909,-2.4036,-2.4036,-2.4297,-2.4502,-2.4639,-2.4639,-2.4823,-2.4981,-2.4719,-2.4744,-2.4942,-2.5198,-2.5275,-2.5329,-2.5589,-2.5468,-2.5114,-2.4346,-2.3884,-2.3405,-2.28,-2.2095,-2.1648,-2.1751,-2.1691,-2.1631,-2.1797,-2.1797,-2.1797,-2.1797,-2.1797,-2.1797,-2.1797,-2.1797,-2.1797,-2.1797,-2.1797,-2.1797,-2.1797,-2.1797,-2.1797,-2.1797,-2.1797,-2.1797,-2.1797,-2.1797,-2.1797,-2.1797,-2.1797,-2.1738,-2.1617,-2.1402,-2.134,-2.1386,-2.0828,-2.0579,-2.2207,-2.2991,-2.3339,-2.3339,-2.2381,-2.0973,-1.9232,-1.6851,-1.4703,-1.3627,-1.2376,-1.1823,-1.2914,-1.2874,-1.3339,0.0,-1.5211,-1.5692,-1.7917,-1.9031,-2.0401,0.0,0.0,0.0,0.0,0.0,0.0,0.0,0.0,0.0,-2.7321,-2.7321,-2.7284,-2.7284,-2.7284,-2.7321,-2.7321,-2.7321,-2.7321,-2.7321,-2.7321,-2.7386,-2.7437,-2.7437,-2.7539,-2.758,-2.6871,0.0,0.0,-2.4896,-2.4223,-2.3595,-2.3739,-2.3824,-2.3867,-2.4328,-2.4492,-2.4533,-2.4799,-2.4981,-2.5098,-2.5098,-2.5368,-2.5647,-2.5384,-2.5269,-2.5346,-2.5647,-2.5721,-2.5775,-2.6115,-2.622,-2.6021,-2.5292,-2.4713,-2.4116,-2.3388,-2.2642,-2.2129,-2.2129,-2.1947,-2.1797,-2.1797,-2.1797,-2.1797,-2.1797,-2.1797,-2.1797,-2.1797,-2.1797,-2.1797,-2.1797,-2.1797,-2.1797,-2.1797,-2.1797,-2.1797,-2.1797,-2.1797,-2.1797,-2.1797,-2.1797,-2.1797,-2.1797,-2.1797,-2.1797,-2.1797,-2.1556,-2.1587,-2.1781,-2.1103,-2.0695,-2.1481,-2.2004,-2.2019,-2.2019,-2.1061,-1.9783,-1.8506,-1.6198,-1.4137,-1.3525,-1.2376,-1.1693,-1.2284,-1.2947,-1.3598,-1.4224,-1.5475,-1.6837,-1.8124,-1.9449,0.0,0.0,0.0,0.0,0.0,0.0,0.0,0.0,0.0,0.0,-2.7575,-2.7575,-2.7539,-2.7401,-2.7539,-2.7575,-2.7575,-2.7575,-2.7575,-2.7575,-2.7575,-2.7625,-2.7625,-2.7625,-2.7625,-2.758,0.0,0.0,0.0,-2.4896,-2.4223,-2.3653,-2.4135,-2.4302,-2.4343,-2.4759,-2.4902,-2.4902,-2.4902,-2.516,-2.5503,-2.5503,-2.5811,-2.6168,-2.6184,-2.6184,-2.6184,-2.6168,-2.6168,-2.6168,-2.622,-2.622,-2.6021,-2.5292,-2.5094,-2.4895,-2.4149,-2.3404,-2.2891,-2.2891,-2.2294,-2.1797,-2.1797,-2.1797,-2.1797,-2.1797,-2.1797,-2.1797,-2.1797,-2.1797,-2.1797,-2.1797,-2.1797,-2.1797,-2.1797,-2.1797,-2.1797,-2.1797,-2.1797,-2.1797,-2.1797,-2.1797,-2.1797,-2.1797,-2.1797,-2.1797,-2.1797,-2.1797,-2.1797,-2.1781,-2.1103,-2.041,-1.852,-1.9438,-1.9968,-1.9508,-1.9101,-1.8579,-1.7722,-1.5864,-1.4137,-1.3578,-1.2463,-1.1761,-1.2428,-1.2331,-1.2935,-1.5285,-1.574,0.0,0.0,0.0,0.0,0.0,0.0,0.0,0.0,0.0,0.0,0.0,0.0,0.0,-2.7625,-2.7625,-2.7575,-2.7524,-2.7575,-2.7625,-2.7625,-2.7625,-2.7625,-2.7625,-2.7625,-2.7625,-2.7625,-2.7625,-2.7625,0.0,0.0,0.0,0.0,-2.5029,-2.4513,-2.412,-2.4558,-2.4719,-2.4759,-2.516,-2.5313,-2.5368,-2.568,-2.5881,-2.599,-2.599,-2.6079,-2.622,-2.622,-2.622,-2.622,-2.622,-2.622,-2.622,-2.622,-2.622,-2.6154,-2.5922,-2.5475,-2.5044,-2.4812,-2.4166,-2.3653,-2.3653,-2.3056,-2.2543,-2.2543,-2.2129,-2.1797,-2.1797,-2.1797,-2.1797,-2.1797,-2.1797,-2.1797,-2.1797,-2.1797,-2.1797,-2.1797,-2.1797,-2.1797,-2.1797,-2.1797,-2.1797,-2.1797,-2.1797,-2.1797,-2.1797,-2.1797,-2.1797,-2.1797,-2.1797,-2.1797,-2.1781,-2.1103,-2.0679,-1.6869,-1.7899,-1.8433,-1.8302,-1.7859,-1.7321,-1.6666,-1.5052,-1.3563,-1.3235,-1.2335,-1.174,-1.2152,-1.23,-1.2996,-1.4964,-1.5654,-1.6509,0.0,0.0,0.0,0.0,0.0,0.0,0.0,0.0,0.0,0.0,0.0,0.0,-2.7625,-2.7625,-2.7625,-2.7625,-2.7625,-2.7625,-2.7625,-2.7625,-2.7625,-2.7625,-2.7625,-2.771,-2.7845,-2.766,-2.771,0.0,0.0,0.0,0.0,-2.4994,-2.4533,-2.4343,-2.4759,-2.4902,-2.4981,-2.5535,-2.5758,-2.5811,-2.6096,-2.622,-2.622,-2.622,-2.622,-2.622,-2.622,-2.622,-2.622,-2.622,-2.622,-2.622,-2.622,-2.622,-2.622,-2.622,-2.5855,-2.5524,-2.5524,-2.4944,-2.4414,-2.4414,-2.3818,-2.3222,-2.294,-2.251,-2.2112,-2.1831,-2.1797,-2.1797,-2.1797,-2.1797,-2.1797,-2.1797,-2.1797,-2.1797,-2.1797,-2.1797,-2.1797,-2.1797,-2.1797,-2.1797,-2.1797,-2.1797,-2.1797,-2.1797,-2.1797,-2.1797,-2.1797,-2.1797,-2.1721,-2.1617,-2.1039,-2.0712,0.0,-1.7031,-1.7169,-1.7758,-1.6998,-1.5958,-1.5403,-1.3894,0.0,-1.2594,-1.2072,-1.1645,-1.1733,-1.2745,-1.3616,-1.3853,-1.5461,-1.7154,0.0,0.0,0.0,0.0,0.0,0.0,0.0,0.0,0.0,0.0,0.0,0.0,-2.7625,-2.7625,-2.7625,-2.7625,-2.7625,-2.7625,-2.7625,-2.7625,-2.7625,-2.7625,-2.7625,-2.7845,-2.8288,-2.7795,-2.7894,0.0,0.0,0.0,0.0,-2.4883,-2.4343,-2.4426,-2.4799,-2.4942,-2.5114,-2.5881,-2.622,-2.622,-2.622,-2.622,-2.622,-2.622,-2.622,-2.622,-2.622,-2.622,-2.622,-2.622,-2.622,-2.622,-2.622,-2.622,-2.622,-2.622,-2.622,-2.622,-2.622,-2.5673,-2.5193,-2.5193,-2.458,-2.3868,-2.3172,-2.3007,-2.2742,-2.2046,-2.1947,-2.1947,-2.1947,-2.1947,-2.193,-2.1864,-2.1864,-2.1847,-2.1797,-2.1797,-2.1797,-2.1797,-2.1797,-2.1797,-2.1797,-2.1797,-2.1797,-2.1797,-2.1797,-2.1797,-2.1797,-2.1797,-2.1648,-2.1325,-2.0958,-2.0613,-1.2737,0.0,-1.4458,-1.405,-1.4082,-1.4197,0.0,-1.3285,-1.2594,-1.268,0.0,-1.2015,-1.3064,-1.3079,-1.3727,-1.6262,-1.7079,-1.7985,-1.9775,0.0,0.0,0.0,0.0,0.0,0.0,0.0,0.0,0.0,0.0,-2.7625,-2.7625,-2.7625,-2.7625,-2.7625,-2.7625,-2.7625,-2.7625,-2.7625,-2.7625,-2.7625,-2.7625,-2.7845,-2.8288,-2.7795,-2.8091,0.0,0.0,0.0,-2.6706,-2.5325,-2.4942,-2.5237,-2.5313,-2.5572,-2.5934,-2.6132,-2.622,-2.622,-2.622,-2.622,-2.622,-2.622,-2.622,-2.622,-2.622,-2.622,-2.622,-2.622,-2.622,-2.622,-2.622,-2.622,-2.622,-2.622,-2.622,-2.622,-2.622,-2.6071,-2.5955,-2.5955,-2.5359,-2.4795,-2.4613,-2.4116,-2.3686,-2.3503,-2.3487,-2.3487,-2.3487,-2.3487,-2.3272,-2.2692,-2.2642,-2.241,-2.1847,-2.1797,-2.1797,-2.1797,-2.1797,-2.1797,-2.1797,-2.1797,-2.1797,-2.1797,-2.1797,-2.1797,-2.1797,-2.1797,-2.1751,-2.1678,-2.1087,-2.0761,-1.1087,-1.2507,-1.3693,-1.3583,-1.3612,-1.3642,-1.3642,0.0,0.0,0.0,0.0,-1.244,-1.3196,-1.378,-1.471,-1.6502,-1.7784,0.0,0.0,0.0,0.0,0.0,0.0,0.0,0.0,0.0,0.0,0.0,0.0,-2.7625,-2.7625,-2.7625,-2.7625,-2.7625,-2.7625,-2.7625,-2.7625,-2.7625,-2.7625,-2.7625,-2.7625,-2.7845,-2.8288,-2.7795,-2.7993,0.0,0.0,0.0,-2.6851,-2.5672,-2.5313,-2.5503,-2.5503,-2.5684,-2.5901,-2.6132,-2.622,-2.622,-2.622,-2.622,-2.622,-2.622,-2.622,-2.622,-2.622,-2.622,-2.622,-2.622,-2.622,-2.622,-2.622,-2.622,-2.622,-2.622,-2.622,-2.622,-2.622,-2.622,-2.6132,-2.5901,-2.5713,-2.5438,-2.4919,-2.466,-2.4398,-2.405,-2.4,-2.4,-2.4,-2.4,-2.3851,-2.3454,-2.3106,-2.2742,-2.2327,-2.198,-2.1797,-2.1797,-2.1797,-2.1797,-2.1797,-2.1797,-2.1797,-2.1797,-2.1797,-2.1797,-2.1797,-2.1797,-2.1797,-2.1781,-2.1103,-2.0952,-1.0439,-1.2239,-1.3808,-1.4165,-1.3987,-1.3704,-1.36,0.0,0.0,0.0,0.0,0.0,0.0,-1.4809,0.0,0.0,0.0,0.0,0.0,0.0,0.0,0.0,0.0,0.0,0.0,0.0,0.0,0.0,0.0,-2.7625,-2.7625,-2.7625,-2.7625,-2.7625,-2.7625,-2.7625,-2.7625,-2.7625,-2.7625,-2.7625,-2.7625,-2.7845,-2.8304,-2.7894,-2.7932,-2.831,0.0,0.0,-2.6878,-2.5821,-2.5503,-2.5594,-2.554,-2.554,-2.5684,-2.6043,-2.622,-2.622,-2.622,-2.622,-2.622,-2.622,-2.622,-2.622,-2.622,-2.622,-2.622,-2.622,-2.622,-2.622,-2.622,-2.622,-2.622,-2.622,-2.622,-2.622,-2.622,-2.622,-2.6079,-2.5684,-2.5937,-2.5881,-2.483,-2.4999,-2.5026,-2.4247,-2.4182,-2.4215,-2.4148,-2.4182,-2.4182,-2.4083,-2.3571,-2.3189,-2.3073,-2.2377,-2.1963,-2.1963,-2.1847,-2.1797,-2.1797,-2.1797,-2.1797,-2.1797,-2.1797,-2.1797,-2.1797,-2.1897,-2.1963,-2.1963,-2.1376,-2.1298,-1.0439,-1.2261,-1.3531,-1.2485,-1.3008,-1.3635,-1.3077,0.0,0.0,0.0,0.0,0.0,0.0,-1.6353,0.0,0.0,0.0,0.0,0.0,0.0,0.0,0.0,0.0,0.0,0.0,0.0,0.0,0.0,0.0,-2.7625,-2.7625,-2.7625,-2.7625,-2.7625,-2.7625,-2.7625,-2.7625,-2.7625,-2.7625,-2.7625,-2.7625,-2.7845,-2.8288,-2.8207,-2.8358,-2.8565,0.0,-2.7089,-2.712,-2.5589,-2.5422,-2.6043,-2.5684,-2.5721,-2.6079,-2.6168,-2.622,-2.622,-2.622,-2.622,-2.622,-2.622,-2.622,-2.622,-2.622,-2.622,-2.622,-2.622,-2.622,-2.622,-2.622,-2.622,-2.622,-2.622,-2.622,-2.622,-2.622,-2.622,-2.6168,-2.6132,-2.6132,-2.601,-2.5447,-2.5737,-2.5721,-2.4888,-2.5046,-2.5158,-2.4818,-2.5083,-2.5041,-2.4492,-2.4641,-2.4514,-2.3884,-2.3156,-2.2725,-2.2725,-2.2145,-2.1797,-2.1797,-2.1797,-2.1797,-2.1797,-2.1797,-2.1797,-2.1797,-2.2427,-2.2725,-2.2742,-2.2579,-2.2248,-0.9965,-1.1491,-1.2747,-1.2852,-1.4128,-1.5188,-1.4584,0.0,0.0,0.0,0.0,0.0,0.0,0.0,0.0,0.0,0.0,0.0,0.0,0.0,0.0,0.0,0.0,0.0,0.0,0.0,0.0,0.0,0.0,0.0,-2.7625,-2.7625,-2.7625,-2.7625,-2.7625,-2.7625,-2.7625,-2.7625,-2.7625,-2.7625,-2.7845,-2.8076,-2.8288,-2.8202,-2.8225,-2.8275,0.0,-2.6792,-2.6804,-2.5935,-2.5844,-2.6168,-2.5954,-2.599,-2.622,-2.622,-2.622,-2.622,-2.622,-2.622,-2.622,-2.622,-2.622,-2.622,-2.622,-2.622,-2.622,-2.622,-2.622,-2.622,-2.622,-2.622,-2.622,-2.622,-2.622,-2.622,-2.622,-2.622,-2.6043,-2.5605,-2.5663,-2.5626,-2.4942,-2.5192,-2.5362,-2.4942,-2.5059,-2.5198,-2.5198,-2.5389,-2.548,-2.5422,-2.5029,-2.4738,-2.4596,-2.372,-2.2916,-2.2344,-2.198,-2.1797,-2.1797,-2.2178,-2.2195,-2.1797,-2.2576,-2.2791,-2.2394,-2.3123,-2.339,-2.3161,-2.3165,-2.2936,-0.971,-1.1042,-1.2314,-1.351,-1.5143,-1.6398,-1.6069,0.0,0.0,0.0,0.0,0.0,0.0,0.0,0.0,0.0,0.0,0.0,0.0,0.0,0.0,0.0,0.0,0.0,0.0,0.0,0.0,0.0,0.0,0.0,-2.7625,-2.7625,-2.7625,-2.7625,-2.7625,-2.766,-2.776,-2.776,-2.776,-2.776,-2.7941,-2.8105,-2.8217,-2.8005,-2.7815,-2.7608,-2.6953,-2.66,-2.6406,-2.6274,-2.622,-2.622,-2.622,-2.622,-2.622,-2.622,-2.622,-2.622,-2.622,-2.622,-2.622,-2.622,-2.622,-2.622,-2.622,-2.622,-2.622,-2.622,-2.622,-2.622,-2.622,-2.622,-2.622,-2.622,-2.622,-2.622,-2.622,-2.6115,-2.5828,-2.5176,-2.5198,-2.5121,-2.4426,-2.4639,-2.4823,-2.4623,-2.4704,-2.4823,-2.5028,-2.516,-2.5368,-2.5844,-2.5175,-2.4821,-2.5076,-2.4308,-2.3357,-2.2394,-2.2311,-2.2311,-2.2311,-2.2857,-2.2891,-2.2327,-2.3421,-2.3719,-2.3156,-2.3901,-2.4082,-2.3809,-2.3816,-2.3676,-1.0215,-1.1715,-1.2906,-1.363,-1.4827,0.0,-1.6517,-1.7115,0.0,-1.8373,0.0,0.0,0.0,0.0,0.0,0.0,0.0,0.0,0.0,0.0,0.0,0.0,0.0,0.0,0.0,0.0,0.0,0.0,0.0,0.0,-2.7625,-2.7625,-2.7625,-2.7625,-2.7625,-2.7795,-2.8255,-2.8255,-2.8255,-2.824,-2.761,-2.7535,-2.8034,-2.7753,-2.7243,-2.6631,-2.7071,-2.6862,-2.6214,-2.6201,-2.622,-2.622,-2.622,-2.622,-2.622,-2.622,-2.622,-2.622,-2.622,-2.622,-2.622,-2.622,-2.622,-2.622,-2.622,-2.622,-2.622,-2.622,-2.622,-2.622,-2.622,-2.622,-2.622,-2.622,-2.622,-2.622,-2.622,-2.5864,-2.554,-2.5465,-2.516,-2.4799,-2.4385,-2.4639,-2.4623,-2.3809,-2.4078,-2.4204,-2.3809,-2.412,-2.4533,-2.4942,-2.5227,-2.5342,-2.5125,-2.5026,-2.4646,-2.3884,-2.3835,-2.3835,-2.3835,-2.3884,-2.3901,-2.3835,-2.3951,-2.3967,-2.3918,-2.4663,-2.4993,-2.4975,-2.4858,-2.4483,-0.9815,-1.1491,-1.3071,-1.4139,-1.571,0.0,0.0,-1.8179,-1.9256,-2.0348,-2.0767,0.0,0.0,0.0,0.0,0.0,0.0,0.0,0.0,0.0,0.0,0.0,0.0,0.0,0.0,0.0,0.0,0.0,0.0,0.0,-2.7595,-2.7186,-2.6961,-2.6961,-2.7682,-2.7712,-2.6995,-2.7736,-2.8054,-2.7878,-2.8053,-2.822,-2.8421,-2.7744,-2.7268,-2.6989,-2.6726,-2.6468,-2.622,-2.622,-2.622,-2.622,-2.622,-2.622,-2.622,-2.622,-2.622,-2.622,-2.622,-2.622,-2.622,-2.622,-2.622,-2.622,-2.622,-2.622,-2.622,-2.622,-2.622,-2.622,-2.622,-2.622,-2.622,-2.622,-2.622,-2.622,-2.622,-2.6079,-2.5791,-2.5253,-2.5005,-2.4664,-2.3979,-2.3979,-2.3964,-2.3638,-2.3739,-2.3909,-2.4036,-2.4177,-2.4451,-2.4863,-2.5059,-2.4987,-2.4632,-2.4846,-2.4869,-2.4558,-2.421,-2.4,-2.4,-2.4213,-2.4109,-2.3634,-2.4252,-2.4317,-2.3883,-2.4643,-2.4846,-2.4594,-2.4792,-2.4483,-0.989,-1.161,-1.34,-1.4513,0.0,0.0,-1.8208,-1.9211,-2.0333,-2.1455,-2.1859,0.0,0.0,0.0,0.0,0.0,0.0,0.0,0.0,0.0,0.0,0.0,0.0,0.0,0.0,0.0,0.0,0.0,0.0,0.0,0.0,-2.6527,-2.6321,-2.6497,-2.7238,-2.7334,-2.6654,-2.7446,-2.7891,-2.7874,-2.8152,-2.8266,-2.8233,-2.7366,-2.6932,-2.6916,-2.6419,-2.622,-2.622,-2.622,-2.622,-2.622,-2.622,-2.622,-2.622,-2.622,-2.622,-2.622,-2.622,-2.622,-2.622,-2.622,-2.622,-2.622,-2.622,-2.622,-2.622,-2.622,-2.622,-2.622,-2.622,-2.622,-2.622,-2.622,-2.622,-2.6168,-2.599,-2.5881,-2.5567,-2.4839,-2.4583,-2.4297,-2.3681,-2.3595,-2.3595,-2.3595,-2.3595,-2.3739,-2.4036,-2.4078,-2.4245,-2.4719,-2.4942,-2.4863,-2.4533,-2.4679,-2.4744,-2.4744,-2.4482,-2.427,-2.427,-2.4511,-2.4413,-2.3895,-2.4544,-2.4665,-2.4153,-2.4665,-2.4649,-2.4182,-2.4545,-2.4147,-1.0618,-1.2246,-1.3974,0.0,0.0,0.0,-1.9241,-2.0228,-2.0902,-2.1575,0.0,-2.2877,-2.349,0.0,0.0,0.0,0.0,0.0,0.0,0.0,0.0,0.0,0.0,0.0,0.0,0.0,0.0,0.0,0.0,0.0,0.0,-2.56,-2.5756,-2.6167,-2.6212,-2.6639,-2.7583,-2.7583,-2.7858,-2.8395,-2.7649,-2.73,-2.7284,-2.6535,-2.622,-2.622,-2.622,-2.622,-2.622,-2.622,-2.622,-2.622,-2.622,-2.622,-2.622,-2.622,-2.622,-2.622,-2.622,-2.622,-2.622,-2.622,-2.622,-2.622,-2.622,-2.622,-2.622,-2.622,-2.622,-2.622,-2.622,-2.622,-2.622,-2.622,-2.622,-2.6079,-2.5594,-2.5198,-2.4799,-2.4385,-2.3909,-2.3595,-2.3595,-2.3595,-2.3595,-2.3595,-2.3595,-2.3595,-2.3595,-2.3595,-2.3809,-2.441,-2.4981,-2.516,-2.4902,-2.4639,-2.4492,-2.4492,-2.4759,-2.4902,-2.4902,-2.4902,-2.4902,-2.4902,-2.4902,-2.4902,-2.4902,-2.4902,-2.4539,-2.3875,-2.4166,-2.3563,-1.0211,-1.1807,0.0,-1.4591,0.0,0.0,0.0,-2.0228,0.0,0.0,0.0,-2.3385,-2.3565,0.0,0.0,0.0,0.0,0.0,0.0,0.0,0.0,0.0,0.0,0.0,0.0,0.0,0.0,0.0,0.0,0.0,0.0,-2.5635,-2.5551,-2.5994,-2.6788,-2.6855,-2.615,-2.694,-2.7217,-2.6849,-2.6634,-2.68,-2.7284,-2.6535,-2.622,-2.622,-2.622,-2.622,-2.622,-2.622,-2.622,-2.622,-2.622,-2.622,-2.622,-2.622,-2.622,-2.622,-2.622,-2.622,-2.622,-2.622,-2.622,-2.622,-2.622,-2.622,-2.622,-2.622,-2.622,-2.622,-2.622,-2.622,-2.622,-2.622,-2.622,-2.6079,-2.5594,-2.5427,-2.5121,-2.441,-2.4177,-2.3994,-2.3638,-2.3595,-2.3595,-2.3595,-2.3595,-2.3595,-2.3595,-2.3595,-2.3681,-2.3852,-2.4006,-2.4074,-2.4006,-2.3894,-2.3852,-2.3852,-2.3921,-2.4256,-2.4863,-2.4639,-2.4492,-2.4492,-2.4131,-2.3964,-2.3964,-2.3964,-2.3686,-2.3061,-2.3152,-2.2707,-1.1374,-1.3045,0.0,-1.5727,-1.7834,-1.9899,-2.0692,0.0,0.0,0.0,0.0,0.0,0.0,0.0,0.0,0.0,0.0,0.0,0.0,0.0,0.0,0.0,0.0,0.0,0.0,0.0,0.0,0.0,0.0,0.0,0.0,-2.5357,-2.5346,-2.5719,-2.6414,-2.6471,-2.5775,-2.6491,-2.6634,-2.622,-2.622,-2.6435,-2.6833,-2.6402,-2.622,-2.622,-2.622,-2.622,-2.622,-2.622,-2.622,-2.622,-2.622,-2.622,-2.622,-2.622,-2.622,-2.622,-2.622,-2.622,-2.622,-2.622,-2.622,-2.622,-2.622,-2.622,-2.622,-2.622,-2.622,-2.622,-2.622,-2.622,-2.6168,-2.5954,-2.6079,-2.597,-2.5176,-2.516,-2.5005,-2.4188,-2.4036,-2.3952,-2.3638,-2.3595,-2.3595,-2.3595,-2.3595,-2.3595,-2.3595,-2.3595,-2.3595,-2.3595,-2.3595,-2.3595,-2.3595,-2.3595,-2.3595,-2.3595,-2.3595,-2.3852,-2.4364,-2.4147,-2.4036,-2.4036,-2.3739,-2.3595,-2.3595,-2.3595,-2.3146,-2.2293,-2.2604,-2.2039,-1.3202,0.0,0.0,-1.7443,-1.8762,0.0,-2.2289,0.0,-2.2921,0.0,0.0,0.0,0.0,0.0,0.0,0.0,0.0,0.0,0.0,0.0,0.0,0.0,0.0,0.0,0.0,0.0,0.0,0.0,0.0,0.0,0.0,-2.4942,-2.5121,-2.5556,-2.554,-2.5775,-2.622,-2.622,-2.622,-2.622,-2.622,-2.622,-2.622,-2.622,-2.622,-2.622,-2.622,-2.622,-2.622,-2.622,-2.622,-2.622,-2.622,-2.622,-2.622,-2.622,-2.622,-2.622,-2.622,-2.622,-2.622,-2.622,-2.622,-2.622,-2.622,-2.622,-2.622,-2.622,-2.622,-2.6168,-2.6132,-2.6168,-2.6079,-2.5519,-2.5775,-2.5807,-2.4589,-2.4614,-2.4583,-2.3767,-2.3595,-2.3595,-2.3595,-2.3595,-2.3595,-2.3595,-2.3595,-2.3595,-2.3595,-2.3595,-2.3595,-2.3595,-2.3595,-2.3595,-2.3595,-2.3595,-2.3595,-2.3595,-2.3595,-2.3595,-2.3595,-2.3595,-2.3595,-2.3595,-2.3595,-2.3595,-2.3595,-2.3595,-2.2951,-2.171,-2.2308,-2.1545,-1.1591,-1.3509,0.0,0.0,-1.9121,-2.1515,-2.2499,-2.3056,-2.343,0.0,0.0,0.0,0.0,0.0,0.0,0.0,0.0,0.0,0.0,0.0,0.0,0.0,0.0,0.0,0.0,0.0,0.0,0.0,0.0,0.0,-2.5351,-2.5389,-2.5572,-2.6043,-2.6043,-2.6096,-2.622,-2.622,-2.622,-2.622,-2.622,-2.622,-2.622,-2.622,-2.622,-2.622,-2.622,-2.622,-2.622,-2.622,-2.622,-2.622,-2.622,-2.622,-2.622,-2.622,-2.622,-2.622,-2.622,-2.622,-2.622,-2.622,-2.622,-2.622,-2.622,-2.622,-2.622,-2.622,-2.622,-2.6132,-2.5775,-2.5901,-2.5934,-2.4815,-2.5098,-2.5406,-2.4492,-2.4385,-2.4245,-2.3724,-2.3595,-2.3595,-2.3595,-2.3595,-2.3595,-2.3595,-2.3595,-2.3595,-2.3595,-2.3595,-2.3595,-2.3595,-2.3595,-2.3595,-2.3595,-2.3595,-2.3595,-2.3595,-2.3595,-2.3595,-2.3595,-2.3595,-2.3595,-2.3595,-2.3595,-2.3595,-2.3595,-2.3595,-2.2951,-2.1695,-2.1844,-2.1111,0.0,0.0,0.0,-1.7712,0.0,0.0,-2.2458,-2.2921,-2.3236,0.0,0.0,0.0,0.0,0.0,0.0,0.0,0.0,0.0,0.0,0.0,0.0,0.0,0.0,0.0,0.0,0.0,0.0,0.0,0.0,-2.5368,-2.5811,-2.5864,-2.5954,-2.6168,-2.622,-2.622,-2.622,-2.622,-2.622,-2.622,-2.622,-2.622,-2.622,-2.622,-2.622,-2.622,-2.622,-2.622,-2.622,-2.622,-2.622,-2.622,-2.622,-2.622,-2.622,-2.622,-2.622,-2.622,-2.622,-2.622,-2.622,-2.622,-2.622,-2.622,-2.622,-2.622,-2.6168,-2.5937,-2.5848,-2.5775,-2.5329,-2.5384,-2.5362,-2.4508,-2.4902,-2.5237,-2.4188,-2.4135,-2.4177,-2.3696,-2.3595,-2.3595,-2.3595,-2.3595,-2.3595,-2.3595,-2.3595,-2.3595,-2.3595,-2.3595,-2.3595,-2.3595,-2.3595,-2.3595,-2.3595,-2.3595,-2.3595,-2.3595,-2.3595,-2.3595,-2.3595,-2.3595,-2.3595,-2.3595,-2.3595,-2.3595,-2.3595,-2.3295,-2.2652,-2.168,-2.138,-2.0662,0.0,0.0,-1.6398,-1.8882,-2.0124,0.0,-2.2084,-2.2517,-2.2817,0.0,0.0,0.0,0.0,0.0,0.0,0.0,0.0,0.0,0.0,0.0,0.0,0.0,0.0,0.0,0.0,0.0,0.0,0.0,0.0,-2.5647,-2.6168,-2.6132,-2.6132,-2.622,-2.622,-2.622,-2.622,-2.622,-2.622,-2.622,-2.622,-2.622,-2.622,-2.622,-2.622,-2.622,-2.622,-2.622,-2.622,-2.622,-2.622,-2.622,-2.622,-2.622,-2.622,-2.622,-2.622,-2.622,-2.622,-2.622,-2.622,-2.622,-2.6132,-2.6079,-2.6079,-2.6043,-2.5881,-2.5519,-2.5389,-2.5313,-2.4902,-2.4823,-2.4799,-2.4287,-2.4744,-2.4989,-2.3837,-2.3909,-2.4036,-2.3681,-2.3595,-2.3595,-2.3595,-2.3595,-2.3595,-2.3595,-2.3595,-2.3595,-2.3595,-2.3595,-2.3595,-2.3595,-2.3595,-2.3595,-2.3595,-2.3595,-2.3595,-2.3595,-2.3595,-2.3595,-2.3595,-2.3595,-2.3595,-2.3595,-2.3595,-2.3535,-2.337,-2.2906,-2.2278,-2.1515,-2.0976,-2.0348,0.0,0.0,-1.6293,0.0,-1.9779,-2.0767,0.0,0.0,0.0,0.0,0.0,0.0,0.0,0.0,0.0,0.0,0.0,0.0,0.0,0.0,0.0,0.0,0.0,0.0,0.0,0.0,0.0,0.0,-2.516,-2.5346,-2.6168,-2.5811,-2.5775,-2.6168,-2.622,-2.622,-2.622,-2.622,-2.622,-2.622,-2.622,-2.622,-2.622,-2.622,-2.622,-2.622,-2.622,-2.622,-2.622,-2.622,-2.622,-2.622,-2.622,-2.622,-2.622,-2.622,-2.622,-2.622,-2.622,-2.622,-2.622,-2.622,-2.5937,-2.5594,-2.5594,-2.5368,-2.5059,-2.4981,-2.4981,-2.4902,-2.4492,-2.4639,-2.4704,-2.3894,-2.4078,-2.4287,-2.3724,-2.3638,-2.3681,-2.3595,-2.3595,-2.3595,-2.3595,-2.3595,-2.3595,-2.3595,-2.3595,-2.3595,-2.3595,-2.3595,-2.3595,-2.3595,-2.3595,-2.3595,-2.3595,-2.3595,-2.3595,-2.3595,-2.3595,-2.3595,-2.3595,-2.3595,-2.3595,-2.3595,-2.3595,-2.3236,-2.2473,-2.2607,-2.2054,-2.0842,-2.0752,-2.0348,-1.1096,-1.3331,-1.5724,0.0,-1.8882,-1.9779,-2.0543,0.0,0.0,0.0,0.0,0.0,0.0,0.0,0.0,0.0,0.0,0.0,0.0,0.0,0.0,0.0,0.0,0.0,0.0,0.0,0.0,0.0,-2.502,-2.5176,-2.5775,-2.5631,-2.5721,-2.6184,-2.622,-2.622,-2.622,-2.622,-2.622,-2.622,-2.622,-2.622,-2.622,-2.622,-2.622,-2.622,-2.622,-2.622,-2.622,-2.622,-2.622,-2.622,-2.622,-2.622,-2.622,-2.622,-2.622,-2.622,-2.622,-2.6043,-2.5811,-2.5811,-2.5535,-2.516,-2.516,-2.5059,-2.4863,-2.4639,-2.4558,-2.4436,-2.4036,-2.4063,-2.409,-2.3681,-2.3782,-2.3867,-2.3638,-2.3595,-2.3595,-2.3595,-2.3595,-2.3595,-2.3595,-2.3595,-2.3595,-2.3595,-2.3595,-2.3595,-2.3595,-2.3595,-2.3595,-2.3595,-2.3595,-2.3595,-2.3595,-2.3595,-2.3595,-2.3595,-2.3595,-2.3595,-2.3595,-2.3595,-2.3595,-2.3595,-2.3595,-2.3415,-2.3026,-2.2413,-2.1829,-2.1246,-2.0483,-2.0183,0.0,0.0,-1.4513,-1.6488,-1.7595,-1.8553,0.0,0.0,0.0,0.0,0.0,0.0,0.0,0.0,0.0,0.0,0.0,0.0,0.0,0.0,0.0,0.0,0.0,0.0,0.0,0.0,0.0,0.0,-2.4863,-2.5059,-2.5647,-2.5415,-2.546,-2.5903,-2.5756,-2.564,-2.564,-2.5839,-2.5938,-2.5938,-2.5938,-2.6021,-2.6203,-2.5822,-2.5756,-2.5938,-2.6137,-2.622,-2.622,-2.622,-2.622,-2.622,-2.622,-2.622,-2.622,-2.622,-2.6132,-2.6026,-2.6026,-2.5738,-2.5351,-2.5351,-2.5098,-2.4759,-2.4759,-2.4664,-2.4502,-2.4204,-2.412,-2.4036,-2.3696,-2.3595,-2.3595,-2.3595,-2.3595,-2.3595,-2.3595,-2.3595,-2.3595,-2.3595,-2.3595,-2.3595,-2.3595,-2.3595,-2.3595,-2.3595,-2.3595,-2.3595,-2.3595,-2.3595,-2.3595,-2.3595,-2.3595,-2.3595,-2.3595,-2.3595,-2.3595,-2.3595,-2.3595,-2.3595,-2.3595,-2.3595,-2.3595,-2.3595,-2.3595,-2.349,-2.3266,-2.2203,-2.1605,-2.1425,-2.0243,-1.9959,0.0,-1.0851,0.0,-1.4438,0.0,0.0,0.0,0.0,0.0,0.0,0.0,0.0,0.0,0.0,0.0,0.0,0.0,0.0,0.0,0.0,0.0,0.0,0.0,0.0,0.0,0.0,0.0,0.0,-2.4704,-2.5075,-2.6132,-2.5154,-2.4743,-2.5125,-2.4481,-2.4116,-2.4116,-2.4812,-2.5176,-2.5176,-2.5176,-2.5524,-2.617,-2.4762,-2.4497,-2.5209,-2.5905,-2.622,-2.622,-2.622,-2.622,-2.622,-2.622,-2.622,-2.622,-2.622,-2.5901,-2.554,-2.554,-2.5275,-2.4942,-2.4942,-2.4639,-2.4343,-2.4343,-2.4036,-2.3681,-2.3638,-2.3653,-2.3638,-2.3595,-2.3595,-2.3595,-2.3595,-2.3595,-2.3595,-2.3595,-2.3595,-2.3595,-2.3595,-2.3595,-2.3595,-2.3595,-2.3595,-2.3595,-2.3595,-2.3595,-2.3595,-2.3595,-2.3595,-2.3595,-2.3595,-2.3595,-2.3595,-2.3595,-2.3595,-2.3595,-2.3595,-2.3595,-2.3595,-2.3595,-2.3595,-2.3595,-2.3595,-2.3595,-2.3191,-2.2368,-2.1919,-2.138,-2.0752,-2.0019,-1.9705,0.0,0.0,0.0,-1.3555,-1.4827,-1.583,0.0,0.0,0.0,0.0,0.0,0.0,0.0,0.0,0.0,0.0,0.0,0.0,0.0,0.0,0.0,0.0,0.0,0.0,0.0,0.0,0.0,0.0,0.0,-2.308,-2.3724,-2.3667,-2.3767,-2.4061,-2.4034,-2.4,-2.4,-2.4265,-2.4398,-2.4398,-2.4398,-2.453,-2.4779,-2.4249,-2.4149,-2.4414,-2.4679,-2.4795,-2.4795,-2.4795,-2.4795,-2.4845,-2.5309,-2.5055,-2.4568,-2.5432,-2.5206,-2.4515,-2.4978,-2.4863,-2.4533,-2.4533,-2.4204,-2.3867,-2.3867,-2.3724,-2.3595,-2.3595,-2.3595,-2.3595,-2.3595,-2.3595,-2.3595,-2.3595,-2.3595,-2.3595,-2.3595,-2.3595,-2.3595,-2.3595,-2.3595,-2.3595,-2.3595,-2.3595,-2.3595,-2.3595,-2.3595,-2.3595,-2.3595,-2.3595,-2.3595,-2.3595,-2.3595,-2.3595,-2.3595,-2.3595,-2.3595,-2.3595,-2.3595,-2.3595,-2.3595,-2.3595,-2.3595,-2.3595,-2.3595,-2.3251,-2.2547,-2.1979,-2.1365,-2.0692,-2.0004,-1.9989,-0.8599,0.0,0.0,0.0,0.0,-1.4303,0.0,0.0,0.0,0.0,0.0,0.0,0.0,0.0,0.0,0.0,0.0,0.0,0.0,0.0,0.0,0.0,0.0,0.0,0.0,0.0,0.0,0.0,0.0,0.0,-2.2635,-2.2789,-2.2808,-2.2767,-2.2965,-2.3144,-2.3176,-2.3456,-2.3571,-2.3636,-2.3636,-2.3768,-2.3984,-2.3487,-2.3404,-2.3619,-2.3371,-2.3537,-2.4,-2.4,-2.3918,-2.3868,-2.4362,-2.4025,-2.3407,-2.4289,-2.4079,-2.3441,-2.3857,-2.3754,-2.3437,-2.3437,-2.3368,-2.3295,-2.3295,-2.343,-2.3595,-2.3595,-2.3595,-2.3595,-2.3595,-2.3595,-2.3595,-2.3595,-2.3595,-2.3595,-2.3595,-2.3595,-2.3595,-2.3595,-2.3595,-2.3595,-2.3595,-2.3595,-2.3595,-2.3595,-2.3595,-2.3595,-2.3595,-2.3595,-2.3595,-2.3595,-2.3595,-2.3595,-2.3595,-2.3595,-2.3595,-2.3595,-2.3595,-2.3595,-2.3595,-2.3595,-2.3595,-2.3595,-2.3595,-2.3191,-2.2338,-2.1904,-2.1395,-2.0782,-2.0034,-1.9989,0.0,0.0,0.0,0.0,0.0,0.0,0.0,0.0,0.0,0.0,0.0,0.0,0.0,0.0,0.0,0.0,0.0,0.0,0.0,0.0,0.0,0.0,0.0,0.0,0.0,0.0,0.0,0.0,-2.2656,-2.3067,-2.2996,-2.2599,-2.2005,-2.131,-2.1294,-2.1388,-2.1589,-2.2294,-2.2733,-2.2857,-2.2857,-2.3238,-2.3884,-2.2443,-2.2178,-2.2824,-2.2096,-2.2609,-2.3934,-2.3934,-2.372,-2.3434,-2.3466,-2.3176,-2.2845,-2.2877,-2.2619,-2.2262,-2.2278,-2.2041,-2.1695,-2.1695,-2.2128,-2.2694,-2.2667,-2.3101,-2.3595,-2.3595,-2.3595,-2.3595,-2.3595,-2.3595,-2.3595,-2.3595,-2.3595,-2.3595,-2.3595,-2.3595,-2.3595,-2.3595,-2.3595,-2.3595,-2.3595,-2.3595,-2.3595,-2.3595,-2.3595,-2.3595,-2.3595,-2.3595,-2.3595,-2.3595,-2.3595,-2.3595,-2.3595,-2.3595,-2.3595,-2.3595,-2.3595,-2.3595,-2.3595,-2.3595,-2.3595,-2.3595,-2.3595,-2.2981,-2.171,-2.171,-2.1455,-2.0932,-2.0079,-1.969,-0.7212,0.0,0.0,0.0,0.0,0.0,0.0,0.0,0.0,0.0,0.0,0.0,0.0,0.0,0.0,0.0,0.0,0.0,0.0,0.0,0.0,0.0,0.0,0.0,0.0,0.0,0.0,0.0,-2.0287,-2.0527,-2.0491,-2.0783,-2.105,-2.1294,-2.123,-2.123,-2.1388,-2.1582,-2.1711,-2.1727,-2.1899,-2.2075,-2.2256,-2.1919,-2.1897,-2.2079,-2.188,-2.1908,-2.2036,-2.2036,-2.2004,-2.1908,-2.2175,-2.1724,-2.1082,-2.2077,-2.1894,-2.1228,-2.1711,-2.1798,-2.1695,-2.1695,-2.1814,-2.2054,-2.2532,-2.3101,-2.3595,-2.3595,-2.3595,-2.3595,-2.3595,-2.3595,-2.3595,-2.3595,-2.3595,-2.3595,-2.3595,-2.3595,-2.3595,-2.3595,-2.3595,-2.3595,-2.3595,-2.3595,-2.3595,-2.3595,-2.3595,-2.3595,-2.3595,-2.3595,-2.3595,-2.3595,-2.3595,-2.3595,-2.3595,-2.3595,-2.3595,-2.3595,-2.3595,-2.3595,-2.3595,-2.3595,-2.3595,-2.3595,-2.3595,-2.3116,-2.2128,-2.2128,-2.141,-2.0034,-1.9794,-1.969,-0.7843,0.0,0.0,0.0,0.0,0.0,0.0,-1.2229,0.0,0.0,0.0,0.0,0.0,0.0,0.0,0.0,0.0,0.0,0.0,0.0,0.0,0.0,0.0,0.0,0.0,-1.8928,-1.9031,-1.9124,-1.9472,-1.9726,-1.9726,-2.0045,-2.0392,-2.0761,-2.0695,-2.0695,-2.0828,-2.0828,-2.0861,-2.0974,-2.1103,-2.1166,-2.1183,-2.1245,-2.1339,-2.1386,-2.1386,-2.1261,-2.1087,-2.0909,-2.0828,-2.0876,-2.107,-2.0651,-2.0071,-2.0898,-2.0812,-2.0348,-2.0722,-2.0857,-2.0857,-2.0857,-2.1051,-2.1365,-2.1739,-2.2413,-2.3131,-2.349,-2.3595,-2.3595,-2.3595,-2.3595,-2.3595,-2.3595,-2.3595,-2.3595,-2.3595,-2.3595,-2.3595,-2.3595,-2.3595,-2.3595,-2.3595,-2.3595,-2.3595,-2.3595,-2.3595,-2.3595,-2.3595,-2.3595,-2.3595,-2.3595,-2.3595,-2.3595,-2.3595,-2.3595,-2.3595,-2.3595,-2.3595,-2.3595,-2.3595,-2.3566,-2.3523,-2.3595,-2.3566,-2.3313,-2.2832,-2.2308,-2.1231,-1.969,-1.969,-1.969,0.0,0.0,0.0,0.0,0.0,0.0,-1.2206,-1.1947,-1.1595,0.0,0.0,0.0,0.0,0.0,0.0,0.0,0.0,0.0,0.0,0.0,0.0,0.0,0.0,0.0,-1.8042,-1.8302,-1.8558,-1.8891,-1.9373,-1.9738,-1.9849,-1.9849,-1.9894,-2.0005,-1.999,-2.0061,-2.0189,-2.0174,-2.0277,-2.0447,-2.0447,-2.0514,-2.0563,-2.0597,-2.0679,-2.0794,-2.0794,-2.0761,-2.0728,-2.0361,-2.0208,-2.0208,-2.0139,-1.9945,-1.969,-1.969,-1.969,-1.969,-1.969,-1.969,-1.969,-1.969,-2.0094,-2.0617,-2.0692,-2.138,-2.2293,-2.3146,-2.3385,-2.3385,-2.3385,-2.3415,-2.346,-2.346,-2.3535,-2.3595,-2.3595,-2.3595,-2.3595,-2.3595,-2.3595,-2.3595,-2.3595,-2.3595,-2.3595,-2.3595,-2.3595,-2.3595,-2.3595,-2.3595,-2.3595,-2.3595,-2.3595,-2.3595,-2.3595,-2.3595,-2.3595,-2.3595,-2.3595,-2.3595,-2.3595,-2.3451,-2.3407,-2.3508,-2.3451,-2.3346,-2.3161,-2.2024,-2.0857,-1.969,-1.969,-1.969,0.0,0.0,0.0,0.0,0.0,0.0,-0.978,-0.9892,-1.017,0.0,0.0,0.0,0.0,0.0,0.0,0.0,0.0,0.0,0.0,0.0,0.0,0.0,0.0,0.0,-1.7388,-1.7423,-1.75,-1.7577,-1.768,-1.8106,-1.8901,-1.8897,-1.9241,-2.0065,-2.0025,-1.999,-2.0025,-2.0025,-2.0061,-2.0096,-2.0189,-2.0277,-2.0277,-2.0481,-2.0597,-2.063,-2.0745,-2.0613,-2.0311,-2.0243,-2.0208,-2.0174,-1.9909,-1.9747,-1.969,-1.969,-1.969,-1.969,-1.969,-1.969,-1.969,-1.969,-1.9779,-1.9989,-2.0543,-2.0857,-2.1171,-2.1874,-2.2069,-2.2069,-2.2069,-2.2308,-2.2547,-2.2547,-2.3086,-2.3595,-2.3595,-2.3595,-2.3595,-2.3595,-2.3595,-2.3595,-2.3595,-2.3595,-2.3595,-2.3595,-2.3595,-2.3595,-2.3595,-2.3595,-2.3595,-2.3595,-2.3595,-2.3595,-2.3595,-2.3595,-2.3595,-2.3595,-2.3595,-2.3595,-2.3595,-2.3378,-2.3171,-2.3023,-2.3392,-2.2521,-2.0453,-2.0198,-1.9944,-1.969,-1.969,-1.969,0.0,0.0,0.0,-1.0619,0.0,0.0,0.0,0.0,-0.9882,0.0,0.0,0.0,0.0,0.0,0.0,0.0,0.0,0.0,0.0,0.0,0.0,0.0,0.0,0.0,-1.6677,-1.6706,-1.6862,-1.7179,-1.7188,-1.7412,-1.7939,-1.7932,-1.831,-1.914,-1.9097,-1.9236,-1.9545,-1.9632,-1.9632,-1.9545,-1.9675,-1.9782,-1.9818,-1.9945,-2.005,-2.0154,-2.0239,-2.0135,-1.9945,-1.9945,-1.9945,-1.9945,-1.9747,-1.969,-1.969,-1.969,-1.969,-1.969,-1.969,-1.969,-1.969,-1.969,-1.969,-1.975,-2.0094,-2.0438,-2.0782,-2.1111,-2.144,-2.1739,-2.1949,-2.1994,-2.2158,-2.2802,-2.3281,-2.3595,-2.3595,-2.3595,-2.3595,-2.3595,-2.3595,-2.3595,-2.3595,-2.3595,-2.3595,-2.3595,-2.3595,-2.3595,-2.3595,-2.3595,-2.3595,-2.3595,-2.3595,-2.3595,-2.3595,-2.3595,-2.3595,-2.3595,-2.3595,-2.3595,-2.3595,-2.3246,-2.2992,-2.2888,-2.3348,-2.2308,-1.969,-1.969,-1.969,-1.969,-1.969,-1.969,0.0,0.0,0.0,0.0,0.0,-1.0436,0.0,0.0,0.0,0.0,0.0,0.0,0.0,0.0,0.0,0.0,0.0,0.0,0.0,0.0,0.0,0.0,0.0,0.0,-1.5806,-1.5734,-1.599,-1.6775,-1.6623,-1.6651,-1.7019,-1.7027,-1.7327,-1.8006,-1.8155,-1.843,-1.8927,-1.9169,-1.9265,-1.9139,-1.9265,-1.9339,-1.9413,-1.9413,-1.9523,-1.9654,-1.969,-1.969,-1.969,-1.969,-1.969,-1.969,-1.969,-1.969,-1.969,-1.969,-1.969,-1.969,-1.969,-1.969,-1.969,-1.969,-1.969,-1.969,-1.969,-2.0079,-2.049,-2.049,-2.0863,-2.1341,-2.167,-2.1505,-2.156,-2.2592,-2.3236,-2.3551,-2.348,-2.348,-2.348,-2.348,-2.348,-2.348,-2.348,-2.3566,-2.3551,-2.348,-2.348,-2.348,-2.348,-2.348,-2.348,-2.348,-2.348,-2.348,-2.348,-2.3566,-2.3551,-2.348,-2.3551,-2.3595,-2.3595,-2.3142,-2.2888,-2.2888,-2.2774,-2.1679,-1.9566,-1.9639,-1.9654,-1.9581,-1.9258,-1.9207,0.0,0.0,0.0,0.0,-1.1864,0.0,0.0,0.0,0.0,0.0,0.0,0.0,0.0,0.0,0.0,0.0,0.0,0.0,0.0,0.0,0.0,0.0,0.0,0.0,0.0,-1.4021,-1.421,-1.5442,-1.4467,-1.4619,-1.6382,-1.6365,-1.6673,-1.7463,-1.7958,-1.8238,-1.8303,-1.895,-1.9302,-1.9302,-1.9339,-1.9376,-1.9413,-1.9538,-1.9538,-1.945,-1.9617,-1.9669,-1.9611,-1.9705,-1.969,-1.969,-1.969,-1.969,-1.969,-1.969,-1.969,-1.969,-1.969,-1.969,-1.969,-1.969,-1.969,-1.969,-1.969,-1.9713,-1.973,-1.973,-1.9701,-1.9686,-1.973,-1.9812,-1.9944,-2.0094,-2.1904,-2.348,-2.3053,-2.2978,-2.2978,-2.2978,-2.2978,-2.2978,-2.2978,-2.3304,-2.348,-2.3023,-2.2978,-2.2978,-2.2978,-2.2978,-2.2978,-2.2978,-2.2978,-2.2978,-2.2978,-2.3348,-2.3436,-2.3023,-2.3348,-2.3595,-2.3595,-2.3142,-2.2888,-2.2888,-2.0738,-1.9467,-1.9176,-1.9545,-1.9508,-1.9139,-1.7598,-1.7394,0.0,0.0,0.0,0.0,0.0,0.0,-1.0373,0.0,-0.9945,0.0,0.0,0.0,0.0,0.0,0.0,0.0,-1.0186,0.0,0.0,0.0,0.0,0.0,0.0,0.0,0.0,-1.3742,-1.3924,-1.5201,-1.4114,-1.4084,-1.5683,-1.5727,-1.5993,-1.668,-1.6936,-1.7219,-1.7621,-1.8352,-1.8709,-1.8666,-1.9126,-1.9339,-1.9339,-1.9465,-1.9501,-1.9538,-1.9596,-1.9632,-1.9669,-1.9632,-1.9654,-1.969,-1.969,-1.969,-1.969,-1.969,-1.969,-1.969,-1.969,-1.969,-1.969,-1.969,-1.969,-1.969,-1.9669,-1.9611,-1.9574,-1.9501,-1.9465,-1.9339,-1.8988,-1.9176,-1.9501,-1.9549,-2.1441,-2.3142,-2.2933,-2.2888,-2.2888,-2.2888,-2.2888,-2.2888,-2.2888,-2.3053,-2.3142,-2.2933,-2.2888,-2.2888,-2.2888,-2.2888,-2.2888,-2.2888,-2.2888,-2.2888,-2.2888,-2.3068,-2.3098,-2.2888,-2.3098,-2.3187,-2.3187,-2.3023,-2.2356,-2.1126,-2.0054,-1.8879,-1.7612,-1.7747,-1.776,-1.7571,-1.6837,-1.6752,-1.3391,0.0,0.0,0.0,0.0,0.0,0.0,0.0,0.0,0.0,0.0,0.0,0.0,0.0,0.0,0.0,0.0,-0.9645,0.0,0.0,0.0,0.0,0.0,0.0,0.0,-1.2996,-1.3058,-1.4558,-1.3357,-1.3259,-1.4932,-1.5048,-1.5313,-1.5935,-1.6114,-1.642,-1.6924,-1.768,-1.8016,-1.7975,-1.8534,-1.8811,-1.8811,-1.9038,-1.9199,-1.9235,-1.9464,-1.956,-1.9581,-1.956,-1.956,-1.9617,-1.9493,-1.9457,-1.9457,-1.9617,-1.9654,-1.9581,-1.9493,-1.9369,-1.9281,-1.9442,-1.9369,-1.9258,-1.9199,-1.9176,-1.9139,-1.9176,-1.9064,-1.8898,-1.8707,-1.8822,-1.9108,-1.9414,-2.0813,-2.2109,-2.2449,-2.2706,-2.2888,-2.2888,-2.2888,-2.2888,-2.2888,-2.2888,-2.2888,-2.2888,-2.2888,-2.2888,-2.2888,-2.2888,-2.2888,-2.2888,-2.2888,-2.2888,-2.2888,-2.2888,-2.2888,-2.2888,-2.2888,-2.2888,-2.2888,-2.2888,-2.2203,-2.0683,-1.9494,-1.8116,-1.6522,-1.6522,-1.6522,-1.6522,-1.6522,-1.6607,0.0,0.0,0.0,-1.1969,0.0,0.0,0.0,0.0,-1.0669,0.0,0.0,0.0,0.0,0.0,0.0,0.0,0.0,0.0,0.0,0.0,0.0,0.0,0.0,0.0,0.0,-1.1051,-1.087,0.0,-1.1406,-1.1554,-1.4179,-1.4347,-1.4653,-1.5313,-1.5908,-1.6227,-1.6242,-1.7042,-1.7412,-1.7412,-1.7508,-1.7556,-1.7585,-1.8239,-1.8449,-1.8373,-1.9111,-1.9376,-1.9339,-1.9376,-1.9413,-1.9376,-1.8988,-1.8822,-1.8898,-1.9413,-1.9538,-1.9339,-1.8974,-1.8525,-1.8263,-1.8765,-1.8574,-1.8145,-1.8145,-1.808,-1.8108,-1.85,-1.8266,-1.8028,-1.886,-1.8707,-1.8528,-1.9211,-1.964,-2.0194,-2.1224,-2.2203,-2.2888,-2.2888,-2.2888,-2.2888,-2.2888,-2.2888,-2.2888,-2.2888,-2.2888,-2.2888,-2.2888,-2.2888,-2.2888,-2.2888,-2.2888,-2.2888,-2.2888,-2.2888,-2.2888,-2.2888,-2.2888,-2.2888,-2.2888,-2.2888,-2.2843,-2.2797,-1.8724,-1.6584,-1.6522,-1.6522,-1.6522,-1.6522,-1.6522,-1.6808,0.0,0.0,-1.4115,-1.2794,0.0,0.0,0.0,0.0,0.0,0.0,0.0,0.0,0.0,0.0,0.0,0.0,0.0,0.0,0.0,0.0,0.0,0.0,0.0,0.0,0.0,0.0,0.0,-1.2352,-1.1991,-1.2455,-1.4212,-1.4715,-1.5062,-1.5283,-1.5516,-1.5494,-1.5293,-1.5937,-1.617,-1.5969,-1.6438,-1.6635,-1.6635,-1.6937,-1.7213,-1.7534,-1.7782,-1.8144,-1.8511,-1.85,-1.8486,-1.8511,-1.8394,-1.833,-1.8305,-1.8525,-1.8588,-1.8511,-1.8394,-1.8224,-1.8145,-1.8302,-1.8263,-1.8106,-1.8054,-1.8028,-1.7988,-1.8068,-1.7948,-1.7787,-1.7828,-1.7908,-1.8058,-1.8479,-1.9162,-1.9788,-2.023,-2.0584,-2.0832,-2.0832,-2.1417,-2.167,-2.0979,-2.2002,-2.2888,-2.2888,-2.2888,-2.2888,-2.2888,-2.2888,-2.2888,-2.2888,-2.2888,-2.2356,-2.0979,-2.2109,-2.2888,-2.2888,-2.2888,-2.2888,-2.2888,-2.1265,-2.0407,-2.0407,-1.8962,-1.8212,-1.8212,-1.7047,-1.6522,-1.6522,-1.6522,-1.6595,-1.4525,-1.4651,0.0,-1.3373,-1.299,0.0,-1.1193,0.0,0.0,0.0,0.0,0.0,0.0,0.0,0.0,0.0,0.0,0.0,0.0,-0.665,0.0,0.0,0.0,0.0,0.0,0.0,0.0,-1.1395,-1.1052,-1.1621,0.0,-1.4055,-1.449,-1.4939,-1.4954,-1.4845,-1.4606,-1.5013,-1.5095,-1.4876,-1.5305,-1.5509,-1.5544,-1.5792,-1.6094,-1.6428,-1.6683,-1.7123,-1.7724,-1.766,-1.7783,-1.7961,-1.7841,-1.7733,-1.7747,-1.7961,-1.7961,-1.7801,-1.8001,-1.7827,-1.7585,-1.7827,-1.7747,-1.7517,-1.7489,-1.7462,-1.7462,-1.7557,-1.7475,-1.738,-1.7557,-1.7598,-1.7699,-1.8209,-1.8817,-1.9417,-1.9712,-1.9798,-1.9798,-1.9798,-2.0346,-2.0584,-1.9901,-2.093,-2.2063,-2.2797,-2.2888,-2.2646,-2.1908,-2.1813,-2.2063,-2.2843,-2.2888,-2.2356,-2.1028,-2.2109,-2.2888,-2.2888,-2.2888,-2.2482,-2.157,-1.9986,-1.9101,-1.9101,-1.9101,-1.9101,-1.9101,-1.7366,-1.6522,-1.6522,-1.6522,-1.6522]}]]